[[{"header":{"parameterUnit":"m.s-1","parameterCategory":1,"la1":30.6,"la2":29.2853,"lo1":-89.7004,"lo2":-87.6739,"dx":0.0162,"dy":0.0183,"nx":112,"ny":82,"refTime":"2022-12-08T18:00:00:Z","depth":0,"parameterNumber":2,"parameterNumberName":"U-component_of_WINDS"},"data":[0.0,0.0,0.0,0.0,0.0,0.0,0.0,0.0,0.0,0.0,0.0,0.0,0.0,0.0,0.0,0.0,0.0,0.0,0.0,0.0,0.0,0.0,0.0,0.0,0.0,0.0,0.0,0.0,0.0,0.0,0.0,0.0,0.0,0.0,0.0,0.0,0.0,0.0,0.0,0.0,0.0,0.0,0.0,0.0,0.0,0.0,0.0,0.0,0.0,0.0,0.0,0.0,0.0,0.0,0.0,0.0,0.0,0.0,0.0,0.0,0.0,0.0,0.0,0.0,0.0,0.0,0.0,0.0,0.0,0.0,0.0,0.0,0.0,0.0,0.0,0.0,0.0,0.0,0.0,0.0,0.0,0.0,0.0,0.0,0.0,0.0,0.0,0.0,0.0,0.0,-4.9323,-5.0168,-5.0845,-5.1185,-5.1185,-4.9965,-4.912,-4.9018,0.0,0.0,0.0,0.0,0.0,0.0,0.0,0.0,0.0,0.0,0.0,0.0,0.0,0.0,0.0,0.0,0.0,0.0,0.0,0.0,0.0,0.0,0.0,0.0,0.0,0.0,0.0,0.0,0.0,0.0,0.0,0.0,0.0,0.0,0.0,0.0,0.0,0.0,0.0,0.0,0.0,0.0,0.0,0.0,0.0,0.0,0.0,0.0,0.0,0.0,0.0,0.0,0.0,0.0,0.0,0.0,0.0,0.0,0.0,0.0,0.0,0.0,0.0,0.0,0.0,0.0,0.0,0.0,0.0,0.0,0.0,0.0,0.0,0.0,0.0,0.0,0.0,0.0,0.0,0.0,0.0,0.0,0.0,0.0,0.0,0.0,0.0,0.0,0.0,0.0,0.0,0.0,0.0,0.0,0.0,0.0,0.0,0.0,0.0,0.0,0.0,0.0,0.0,0.0,-4.9526,-5.0913,-5.1117,-5.1185,-5.1185,-5.0405,-4.9661,-4.9052,0.0,0.0,0.0,0.0,0.0,0.0,0.0,0.0,0.0,0.0,0.0,0.0,0.0,0.0,0.0,0.0,0.0,0.0,0.0,0.0,0.0,0.0,0.0,0.0,0.0,0.0,0.0,0.0,0.0,0.0,0.0,0.0,0.0,0.0,0.0,0.0,0.0,0.0,0.0,0.0,0.0,0.0,0.0,0.0,0.0,0.0,0.0,0.0,0.0,0.0,0.0,0.0,0.0,0.0,0.0,0.0,0.0,0.0,0.0,0.0,0.0,0.0,0.0,0.0,0.0,0.0,0.0,0.0,0.0,0.0,0.0,0.0,0.0,0.0,0.0,0.0,0.0,0.0,0.0,0.0,0.0,0.0,0.0,0.0,0.0,0.0,0.0,0.0,0.0,0.0,0.0,0.0,0.0,0.0,0.0,0.0,0.0,0.0,0.0,0.0,0.0,0.0,0.0,-5.0338,-5.1217,-5.2334,-5.2469,-5.2469,-5.2469,-5.1725,-5.098,-5.0236,-4.7463,0.0,0.0,0.0,0.0,0.0,0.0,0.0,0.0,0.0,0.0,0.0,0.0,0.0,0.0,0.0,0.0,0.0,0.0,0.0,0.0,0.0,0.0,0.0,0.0,0.0,0.0,0.0,0.0,0.0,0.0,0.0,0.0,0.0,0.0,0.0,0.0,0.0,0.0,0.0,0.0,0.0,0.0,0.0,0.0,0.0,0.0,0.0,0.0,0.0,0.0,0.0,0.0,0.0,0.0,0.0,0.0,0.0,0.0,0.0,0.0,0.0,0.0,0.0,0.0,0.0,0.0,0.0,0.0,0.0,0.0,0.0,0.0,0.0,0.0,0.0,0.0,0.0,0.0,0.0,0.0,0.0,0.0,0.0,0.0,0.0,0.0,0.0,0.0,0.0,0.0,0.0,0.0,0.0,0.0,0.0,0.0,0.0,0.0,0.0,0.0,0.0,0.0,-5.2131,-5.2807,-5.345,-5.3518,-5.3518,-5.3518,-5.2773,-5.2063,-5.1522,-4.9359,0.0,0.0,0.0,0.0,0.0,0.0,0.0,0.0,0.0,0.0,0.0,0.0,0.0,0.0,0.0,0.0,0.0,0.0,0.0,0.0,0.0,0.0,0.0,0.0,0.0,0.0,0.0,0.0,0.0,0.0,0.0,0.0,0.0,0.0,0.0,0.0,0.0,0.0,0.0,0.0,0.0,0.0,0.0,0.0,0.0,0.0,0.0,0.0,0.0,0.0,0.0,0.0,0.0,0.0,0.0,0.0,0.0,0.0,0.0,0.0,0.0,0.0,0.0,0.0,0.0,0.0,0.0,0.0,0.0,0.0,0.0,0.0,0.0,0.0,0.0,0.0,0.0,0.0,0.0,0.0,0.0,0.0,0.0,0.0,0.0,0.0,0.0,0.0,0.0,0.0,0.0,0.0,0.0,0.0,0.0,0.0,0.0,0.0,0.0,0.0,0.0,0.0,-5.2909,-5.345,-5.3484,-5.3518,-5.3518,-5.3518,-5.2773,-5.2266,-5.2232,-5.0168,0.0,0.0,0.0,0.0,0.0,0.0,0.0,0.0,0.0,0.0,0.0,0.0,0.0,0.0,0.0,0.0,0.0,0.0,0.0,0.0,0.0,0.0,0.0,0.0,0.0,0.0,0.0,0.0,0.0,0.0,0.0,0.0,0.0,0.0,0.0,0.0,0.0,0.0,0.0,0.0,0.0,0.0,0.0,0.0,0.0,0.0,0.0,0.0,0.0,0.0,0.0,0.0,0.0,0.0,0.0,0.0,0.0,0.0,0.0,0.0,0.0,0.0,0.0,0.0,0.0,0.0,0.0,0.0,0.0,0.0,0.0,0.0,0.0,0.0,0.0,0.0,0.0,0.0,0.0,0.0,0.0,0.0,0.0,0.0,0.0,0.0,0.0,0.0,0.0,0.0,0.0,0.0,0.0,0.0,0.0,0.0,0.0,0.0,0.0,0.0,0.0,0.0,-5.301,-5.3687,-5.4126,-5.3788,-5.3687,-5.416,-5.3484,-5.2841,-5.2334,0.0,0.0,0.0,0.0,0.0,0.0,0.0,0.0,0.0,0.0,0.0,0.0,0.0,0.0,0.0,0.0,0.0,0.0,0.0,0.0,0.0,0.0,0.0,0.0,0.0,0.0,0.0,0.0,0.0,0.0,0.0,0.0,0.0,0.0,0.0,0.0,0.0,0.0,0.0,0.0,0.0,0.0,0.0,0.0,0.0,0.0,0.0,0.0,0.0,0.0,0.0,0.0,0.0,0.0,0.0,0.0,0.0,0.0,0.0,0.0,0.0,0.0,0.0,0.0,0.0,0.0,0.0,0.0,0.0,0.0,0.0,0.0,0.0,0.0,0.0,0.0,0.0,0.0,0.0,0.0,0.0,0.0,0.0,0.0,0.0,0.0,0.0,0.0,0.0,0.0,0.0,0.0,0.0,0.0,0.0,0.0,0.0,0.0,0.0,0.0,0.0,0.0,-5.2875,-5.3518,-5.4126,-5.4871,-5.4499,-5.4397,-5.4905,-5.4262,-5.3619,-5.3044,0.0,0.0,0.0,0.0,0.0,0.0,0.0,0.0,0.0,0.0,0.0,0.0,0.0,0.0,0.0,0.0,0.0,0.0,0.0,0.0,0.0,0.0,0.0,0.0,0.0,0.0,0.0,0.0,0.0,0.0,0.0,0.0,0.0,0.0,0.0,0.0,0.0,0.0,0.0,0.0,0.0,0.0,0.0,0.0,0.0,0.0,0.0,0.0,0.0,0.0,0.0,0.0,0.0,0.0,0.0,0.0,0.0,0.0,0.0,0.0,0.0,0.0,0.0,0.0,0.0,0.0,0.0,0.0,0.0,0.0,0.0,0.0,0.0,0.0,0.0,0.0,0.0,0.0,0.0,0.0,0.0,0.0,0.0,0.0,0.0,0.0,0.0,0.0,0.0,0.0,0.0,0.0,0.0,0.0,0.0,0.0,0.0,0.0,0.0,0.0,0.0,0.0,-5.4296,-5.46,-5.4905,-5.5614,-5.5681,-5.5681,-5.5681,-5.504,-5.46,0.0,0.0,0.0,0.0,0.0,0.0,0.0,0.0,0.0,0.0,0.0,0.0,0.0,0.0,0.0,0.0,0.0,0.0,0.0,0.0,0.0,0.0,0.0,0.0,0.0,0.0,0.0,0.0,0.0,0.0,0.0,0.0,0.0,0.0,0.0,0.0,0.0,0.0,0.0,0.0,0.0,0.0,0.0,0.0,0.0,0.0,0.0,0.0,0.0,0.0,0.0,0.0,0.0,0.0,0.0,0.0,0.0,0.0,0.0,0.0,0.0,0.0,0.0,0.0,0.0,0.0,0.0,0.0,0.0,0.0,0.0,0.0,0.0,0.0,0.0,0.0,0.0,0.0,0.0,0.0,0.0,0.0,0.0,0.0,0.0,0.0,0.0,0.0,0.0,0.0,0.0,0.0,0.0,0.0,0.0,0.0,0.0,0.0,0.0,0.0,0.0,0.0,0.0,-5.4431,-5.504,-5.5683,-5.6393,-5.6021,-5.5919,-5.6427,-5.5818,-5.5141,-5.4634,0.0,0.0,0.0,0.0,0.0,0.0,0.0,0.0,0.0,0.0,0.0,0.0,0.0,0.0,0.0,0.0,0.0,0.0,0.0,0.0,0.0,0.0,0.0,0.0,0.0,0.0,0.0,0.0,0.0,0.0,0.0,0.0,0.0,0.0,0.0,0.0,0.0,0.0,0.0,0.0,0.0,0.0,0.0,0.0,0.0,0.0,0.0,0.0,0.0,0.0,0.0,0.0,0.0,0.0,0.0,0.0,0.0,0.0,0.0,0.0,0.0,0.0,0.0,0.0,0.0,0.0,0.0,0.0,0.0,0.0,0.0,0.0,0.0,0.0,0.0,0.0,0.0,0.0,0.0,0.0,0.0,0.0,0.0,0.0,0.0,0.0,0.0,0.0,0.0,0.0,0.0,0.0,0.0,0.0,0.0,0.0,0.0,0.0,0.0,0.0,0.0,0.0,-5.4905,-5.5953,-5.6867,-5.7611,-5.7543,-5.7645,-5.8084,-5.7171,-5.6393,-5.5919,0.0,0.0,0.0,0.0,0.0,0.0,0.0,0.0,0.0,0.0,0.0,0.0,0.0,0.0,0.0,0.0,0.0,0.0,0.0,0.0,0.0,0.0,0.0,0.0,0.0,0.0,0.0,0.0,0.0,0.0,0.0,0.0,0.0,0.0,0.0,0.0,0.0,0.0,0.0,0.0,0.0,0.0,0.0,0.0,0.0,0.0,0.0,0.0,0.0,0.0,0.0,0.0,0.0,0.0,0.0,0.0,0.0,0.0,0.0,0.0,0.0,0.0,0.0,0.0,0.0,0.0,0.0,0.0,0.0,0.0,0.0,0.0,0.0,0.0,0.0,0.0,0.0,0.0,0.0,0.0,0.0,0.0,0.0,0.0,0.0,0.0,0.0,0.0,0.0,0.0,0.0,0.0,0.0,0.0,0.0,0.0,0.0,0.0,0.0,0.0,0.0,0.0,-5.5716,-5.7205,-5.8355,-5.9032,-5.9708,-6.0114,-6.0114,-5.8863,-5.8051,-5.7915,0.0,0.0,0.0,0.0,0.0,0.0,0.0,0.0,0.0,0.0,0.0,0.0,0.0,0.0,0.0,0.0,0.0,0.0,0.0,0.0,0.0,0.0,0.0,0.0,0.0,0.0,0.0,0.0,0.0,0.0,0.0,0.0,0.0,0.0,0.0,0.0,0.0,0.0,0.0,0.0,0.0,0.0,0.0,0.0,0.0,0.0,0.0,0.0,0.0,0.0,0.0,0.0,0.0,0.0,0.0,0.0,0.0,0.0,0.0,0.0,-4.8883,-4.8071,0.0,0.0,0.0,0.0,0.0,0.0,0.0,0.0,0.0,0.0,0.0,0.0,0.0,0.0,0.0,0.0,0.0,0.0,0.0,0.0,0.0,0.0,0.0,0.0,0.0,0.0,0.0,0.0,0.0,0.0,0.0,0.0,0.0,0.0,0.0,0.0,0.0,0.0,0.0,0.0,-5.7306,-5.8727,-5.9674,-5.9844,-6.0013,-6.0114,-6.0114,-5.981,-5.9133,-5.7949,-5.7442,0.0,0.0,0.0,0.0,0.0,0.0,0.0,0.0,0.0,0.0,0.0,0.0,0.0,0.0,0.0,0.0,0.0,0.0,0.0,0.0,0.0,0.0,0.0,0.0,0.0,0.0,0.0,0.0,0.0,0.0,0.0,0.0,0.0,0.0,0.0,0.0,0.0,0.0,0.0,0.0,0.0,0.0,0.0,0.0,0.0,0.0,0.0,0.0,0.0,0.0,0.0,0.0,0.0,0.0,0.0,0.0,0.0,0.0,0.0,-5.1217,-5.0067,0.0,0.0,0.0,0.0,0.0,0.0,0.0,0.0,0.0,0.0,0.0,0.0,0.0,0.0,0.0,0.0,0.0,0.0,0.0,0.0,0.0,0.0,0.0,0.0,0.0,0.0,0.0,0.0,0.0,0.0,0.0,0.0,0.0,0.0,0.0,0.0,0.0,0.0,0.0,0.0,-5.8321,-6.0047,-6.1197,-6.1197,-6.1839,-6.2245,-6.2245,-6.1603,-6.0858,-6.0114,-5.8693,0.0,0.0,0.0,0.0,0.0,0.0,0.0,0.0,0.0,0.0,0.0,0.0,0.0,0.0,0.0,0.0,0.0,0.0,0.0,0.0,0.0,0.0,0.0,0.0,0.0,0.0,0.0,0.0,0.0,0.0,0.0,0.0,0.0,0.0,0.0,0.0,0.0,0.0,0.0,0.0,0.0,0.0,0.0,0.0,0.0,0.0,0.0,0.0,0.0,0.0,0.0,0.0,0.0,-5.6984,-5.6886,-5.6134,-5.6822,-5.6709,-5.5953,-5.345,-5.2232,-5.1962,-5.1962,0.0,0.0,0.0,0.0,0.0,0.0,0.0,0.0,0.0,0.0,0.0,0.0,0.0,0.0,0.0,0.0,0.0,0.0,0.0,0.0,0.0,0.0,-5.4059,-5.4803,-5.5446,-5.5243,-5.2909,0.0,0.0,0.0,0.0,0.0,0.0,0.0,0.0,0.0,0.0,0.0,-5.9505,-6.1467,-6.2787,-6.2787,-6.3869,-6.4613,-6.4613,-6.3463,-6.2651,-6.2415,-6.0047,-5.8423,0.0,0.0,0.0,0.0,0.0,0.0,0.0,0.0,0.0,0.0,0.0,0.0,0.0,0.0,0.0,0.0,0.0,0.0,0.0,0.0,0.0,0.0,0.0,0.0,0.0,0.0,0.0,0.0,0.0,0.0,0.0,0.0,-4.7425,-4.9077,0.0,0.0,0.0,0.0,0.0,0.0,0.0,0.0,0.0,0.0,0.0,0.0,0.0,-5.785,-5.8561,-5.9391,-5.9444,-5.8842,-5.895,-5.8545,-5.7725,-5.7794,-5.7741,-5.7577,-5.7171,0.0,-5.5107,-5.5107,0.0,0.0,0.0,0.0,0.0,0.0,0.0,0.0,0.0,0.0,0.0,0.0,0.0,0.0,0.0,0.0,0.0,0.0,0.0,0.0,0.0,0.0,-5.5615,-5.6325,-5.6596,-5.6731,-5.6968,-5.6021,-5.5107,-5.5107,-5.5209,-5.531,0.0,0.0,0.0,0.0,0.0,0.0,-6.1839,-6.3328,-6.4309,-6.4309,-6.4478,-6.4613,-6.4613,-6.441,-6.3768,-6.2482,-6.2009,-6.0622,-5.7983,-5.7611,0.0,0.0,0.0,0.0,0.0,0.0,0.0,0.0,0.0,0.0,0.0,0.0,0.0,0.0,0.0,0.0,0.0,0.0,0.0,0.0,0.0,0.0,0.0,0.0,0.0,0.0,0.0,0.0,0.0,-4.882,-5.0288,-5.1463,-5.2344,-5.3151,0.0,0.0,0.0,0.0,0.0,0.0,0.0,0.0,0.0,-5.8804,-5.9612,-6.0199,-6.0566,-6.1374,-6.1592,-6.124,-6.1777,-6.1534,-6.0722,-6.1148,-6.0844,-5.9938,-5.9938,-5.9274,-5.8118,-5.7273,-5.6697,-5.6292,0.0,0.0,0.0,0.0,-5.4025,-5.3754,-5.3754,-5.3754,-5.3754,-5.3754,0.0,0.0,0.0,0.0,0.0,0.0,0.0,-5.6934,-5.6934,-5.7239,-5.7645,-5.7983,-5.8355,-5.8863,-5.9641,-5.9302,-5.849,-5.7205,-5.6934,-5.707,-5.7509,-5.8186,0.0,0.0,0.0,-6.2821,-6.3531,-6.4918,-6.5831,-6.5831,-6.6609,-6.7117,-6.7117,-6.6339,-6.5561,-6.4918,-6.37,-6.2245,-6.0486,-5.9607,-5.8118,0.0,0.0,0.0,0.0,0.0,0.0,0.0,0.0,0.0,0.0,0.0,0.0,0.0,0.0,0.0,0.0,0.0,0.0,0.0,0.0,0.0,0.0,0.0,0.0,0.0,0.0,0.0,0.0,-5.172,-5.2894,-5.3739,-5.4509,-5.5317,0.0,0.0,0.0,0.0,0.0,0.0,-5.8914,-6.0052,-6.0786,-6.1006,-6.1814,-6.2218,-6.2218,-6.3246,-6.3759,-6.3759,-6.4604,-6.4675,-6.4022,-6.4664,-6.4234,-6.2997,-6.2787,-6.2251,-6.1446,-5.9312,-5.8152,-5.7645,-5.7645,-5.7205,-5.6526,-5.6526,-5.6427,-5.6258,-5.6258,-5.6258,-5.6258,-5.6258,-5.6258,-5.6427,-5.7137,0.0,0.0,0.0,0.0,-5.9032,-5.9032,-5.9471,-5.9945,-6.0114,-6.0588,-6.1197,-6.1975,-6.2144,-6.1535,-5.9438,-5.9032,-5.9235,-5.9776,-6.0486,0.0,-6.2516,-6.3632,-6.4546,-6.5087,-6.6474,-6.7387,-6.7387,-6.8436,-6.9113,-6.9113,-6.8064,-6.732,-6.7117,-6.5392,-6.3937,-6.299,-6.1501,-5.9979,-5.849,0.0,0.0,0.0,0.0,0.0,0.0,0.0,0.0,0.0,0.0,0.0,0.0,0.0,0.0,0.0,0.0,0.0,0.0,0.0,0.0,0.0,0.0,0.0,0.0,0.0,0.0,0.0,0.0,0.0,-5.5354,-5.6198,0.0,0.0,0.0,0.0,-6.0089,-6.0236,-6.0603,-6.1374,-6.1484,-6.1887,-6.2658,-6.3503,-6.3943,-6.3943,-6.5521,-6.6292,-6.6329,-6.7136,-6.7477,-6.7372,-6.7408,-6.7303,-6.7054,-6.6172,-6.5766,-6.5412,-6.1586,-5.9979,-5.9945,-5.9945,-5.9471,-5.8829,-5.8829,-5.8389,-5.778,-5.778,-5.778,-5.778,-5.778,-5.778,-5.7915,-5.8693,-5.9404,0.0,0.0,-6.1637,-6.2144,-6.2144,-6.2178,-6.2415,-6.3125,-6.3328,-6.3531,-6.4275,-6.4444,-6.4005,-6.2448,-6.2144,-6.2178,-6.2212,0.0,-6.3362,-6.3463,-6.529,-6.6677,-6.6677,-6.803,-6.8977,-6.8977,-6.9045,-6.9113,-6.9113,-6.9045,-6.8673,-6.7895,-6.7083,-6.6,-6.4546,-6.3057,-6.1535,-6.0013,-5.9235,0.0,0.0,0.0,0.0,0.0,0.0,0.0,0.0,0.0,0.0,0.0,0.0,0.0,0.0,0.0,0.0,0.0,0.0,0.0,0.0,0.0,0.0,0.0,0.0,0.0,0.0,0.0,0.0,-5.7042,-5.785,0.0,-5.9465,-6.0272,-6.086,-6.1153,-6.2181,-6.2915,-6.3172,-6.3686,-6.4347,-6.5154,-6.5962,-6.6659,-6.7173,-6.8274,-6.8825,-6.8825,-6.9633,-7.0006,-7.0004,-7.0515,-7.0417,-6.9839,-6.9509,-6.8647,-6.7399,-6.5945,-6.4132,-6.2313,-6.2313,-6.1839,-6.1197,-6.1197,-6.1028,-6.0791,-6.0791,-6.0791,-6.0791,-6.0791,-6.1129,-6.1569,-6.1839,-6.2415,-6.3057,-6.3328,-6.3599,-6.3937,-6.4377,-6.4512,-6.4715,-6.5459,-6.5628,-6.5831,-6.6576,-6.6711,-6.6711,-6.6711,-6.5527,-6.4512,-6.4512,-6.5527,-6.6339,-6.6339,-6.7455,-6.8301,-6.8301,-6.918,-6.9789,-6.9789,-7.0229,-7.0534,-7.0534,-7.0094,-6.9688,-6.9383,-6.8707,-6.7827,-6.6779,-6.5764,-6.4546,-6.3024,-6.2279,-6.0926,0.0,0.0,0.0,0.0,0.0,0.0,0.0,0.0,0.0,0.0,0.0,0.0,0.0,0.0,0.0,0.0,0.0,0.0,0.0,0.0,0.0,0.0,0.0,0.0,0.0,-5.7116,-5.7923,-5.8694,-5.9538,-6.0346,-6.1153,-6.1961,-6.2548,-6.2842,-6.4127,-6.5007,-6.5301,-6.6072,-6.688,-6.7687,-6.8238,-6.8898,-6.9706,-7.0513,-7.1064,-7.1321,-7.2129,-7.2504,-7.2532,-7.3083,-7.3001,-7.2439,-7.2083,-7.1048,-6.9529,-6.9219,-6.7639,-6.5358,-6.485,-6.4309,-6.3869,-6.3869,-6.3869,-6.3869,-6.3869,-6.3869,-6.3869,-6.3869,-6.4241,-6.4613,-6.4613,-6.5121,-6.5696,-6.5696,-6.5899,-6.6237,-6.6711,-6.6846,-6.6948,-6.7455,-6.759,-6.7726,-6.8199,-6.8301,-6.847,-6.9011,-6.7861,-6.6846,-6.6846,-6.7658,-6.8301,-6.8301,-6.8977,-6.9451,-6.9451,-7.0094,-7.0567,-7.0567,-7.1007,-7.1312,-7.1312,-7.0838,-7.0567,-7.0567,-6.9891,-6.9214,-6.8707,-6.7726,-6.6711,-6.573,-6.4512,-6.2888,-6.0858,0.0,0.0,0.0,0.0,0.0,0.0,0.0,0.0,0.0,0.0,0.0,0.0,0.0,0.0,0.0,0.0,0.0,0.0,0.0,0.0,0.0,0.0,0.0,-5.8143,-5.8767,-5.9551,-6.0382,-6.119,-6.1998,-6.2842,-6.3686,-6.453,-6.5375,-6.6145,-6.6953,-6.7724,-6.8531,-6.9339,-7.0146,-7.0183,-7.0587,-7.1403,-7.2202,-7.2973,-7.3744,-7.4551,-7.4955,-7.4955,-7.4955,-7.4992,-7.4932,-7.401,-7.3038,-7.2043,-7.1132,-7.0155,-6.9055,-6.7489,-6.688,-6.688,-6.688,-6.688,-6.688,-6.688,-6.688,-6.688,-6.688,-6.688,-6.688,-6.688,-6.7387,-6.7929,-6.7929,-6.8504,-6.9113,-6.9147,-6.9147,-6.9147,-6.918,-6.918,-6.918,-6.918,-6.918,-6.918,-6.918,-6.918,-6.918,-6.9147,-6.9147,-6.918,-6.918,-6.9755,0.0,-7.0229,-7.0872,-7.1312,-7.1312,-7.1312,-7.1312,-7.1312,-7.1312,-7.1312,-7.1312,-7.0635,-7.0229,-7.0229,-6.8774,-6.7963,-6.7929,-6.5797,-6.4005,-6.255,0.0,0.0,0.0,0.0,0.0,0.0,0.0,0.0,0.0,0.0,0.0,0.0,0.0,0.0,0.0,0.0,0.0,0.0,0.0,0.0,0.0,-5.9905,-6.0456,-5.9098,-6.0052,-6.1227,-6.2034,-6.2879,-6.3943,-6.5338,-6.6219,-6.7026,-6.7871,-6.8641,-6.9192,-6.9412,-7.022,-7.1027,-7.1798,-7.2422,-7.3083,-7.3927,-7.4147,-7.4368,-7.4588,-7.5395,-7.5763,-7.5799,-7.6387,-7.6613,-7.6613,-7.6361,-7.5676,-7.4758,-7.4476,-7.3332,-7.153,-6.9356,-6.847,-6.847,-6.847,-6.847,-6.847,-6.847,-6.847,-6.847,-6.847,-6.847,-6.847,-6.847,-6.8605,-6.8774,-6.8774,-6.8944,-6.9214,-6.9755,-6.9891,-7.0026,-7.0567,-7.0703,-7.0703,-7.0703,-7.0703,-7.0703,-7.0703,-7.0703,-7.0534,-6.9992,-7.0331,-7.0703,-7.0703,-7.0872,-7.1007,-7.1007,-7.1176,-7.1312,-7.1312,-7.1312,-7.1312,-7.1312,-7.1312,-7.1312,-7.1312,-7.1109,-7.1007,-7.1007,-7.006,-6.9316,-6.8774,-6.759,-6.6779,0.0,0.0,0.0,0.0,0.0,0.0,0.0,0.0,0.0,0.0,0.0,0.0,0.0,0.0,0.0,0.0,0.0,0.0,0.0,0.0,0.0,0.0,-6.1263,-6.1887,-6.1337,-6.2071,-6.3062,-6.42,-6.5081,-6.6109,-6.7393,-6.8238,-6.9045,-6.9853,-7.066,-7.1248,-7.1578,-7.2386,-7.3046,-7.3487,-7.3964,-7.4588,-7.5395,-7.5395,-7.5579,-7.5879,-7.6387,-7.6607,-7.6644,-7.709,-7.7273,-7.7273,-7.7273,-7.6728,-7.5753,-7.5369,-7.4234,-7.2645,0.0,0.0,0.0,0.0,-7.0026,-7.0026,-7.0026,-7.0026,-7.0026,-7.0026,-7.0026,-7.0026,-7.0026,-7.0026,-7.0026,-7.0026,-7.0026,-7.0128,-7.0534,-7.0669,-7.077,-7.121,-7.1312,-7.1312,-7.1312,-7.1312,-7.1312,-7.1312,-7.1312,0.0,-7.1142,-7.121,-7.1312,-7.1312,-7.1312,-7.1312,-7.1312,-7.1312,-7.1447,-7.1751,-7.1751,-7.1887,-7.2191,-7.2225,0.0,0.0,0.0,-7.1616,-7.1312,-7.0906,0.0,0.0,0.0,-6.8707,-6.8402,-6.7963,0.0,0.0,-6.3497,-6.3362,0.0,0.0,0.0,0.0,0.0,0.0,0.0,0.0,0.0,0.0,0.0,0.0,0.0,0.0,0.0,0.0,-6.2658,-6.3613,-6.4383,-6.464,-6.5228,-6.6476,-6.743,-6.8311,-6.9229,-6.9963,-7.0734,-7.1623,-7.2386,-7.3083,-7.378,-7.4588,0.0,0.0,0.0,-7.5506,-7.624,-7.624,-7.6607,-7.7273,-7.7273,-7.7273,-7.7273,-7.7273,-7.7273,-7.7273,-7.7273,-7.6793,-7.5925,-7.5012,-7.3966,-7.2962,-7.2714,-7.2099,-7.1312,-7.1312,-7.1312,-7.1312,-7.1312,0.0,0.0,-7.1312,-7.1312,-7.1312,-7.1312,-7.1312,-7.1312,-7.1312,-7.1312,-7.1312,-7.1312,-7.1312,-7.1312,-7.1312,-7.1379,-7.1447,-7.1447,-7.1515,-7.1548,-7.1548,-7.1548,-7.1751,-7.2428,-7.1921,-7.1447,-7.1548,-7.1548,-7.1548,-7.1548,-7.1548,-7.1819,-7.2462,-7.2529,0.0,-7.3443,-7.3477,-7.3206,-7.2563,-7.2529,-7.2225,-7.1582,-7.1481,-7.1109,-7.0432,-7.0364,-6.9992,-6.935,-6.935,-6.935,-6.9316,-6.7793,-6.7083,0.0,0.0,0.0,0.0,0.0,0.0,0.0,0.0,0.0,0.0,0.0,0.0,0.0,0.0,0.0,-6.2548,-6.4934,-6.6806,-6.6953,-6.8128,-6.8568,-6.7577,-6.8752,-7.022,-7.1651,-7.1945,-7.2642,-7.4111,-7.4368,-7.4515,-7.4661,-7.5432,-7.5873,-7.5873,-7.6497,-7.6907,-7.7053,-7.7053,-7.7127,-7.7273,-7.7273,0.0,-7.7273,-7.7273,-7.7273,-7.7273,-7.7273,-7.7181,-7.6988,-7.6793,-7.5649,-7.3885,-7.2228,-7.1457,-7.1312,-7.1312,-7.1312,-7.1312,-7.1312,-7.1312,-7.1312,-7.1312,-7.1312,-7.1312,-7.1312,-7.1312,0.0,-7.1312,-7.1312,-7.1312,-7.1312,-7.1312,-7.1312,-7.1312,-7.1751,-7.2191,-7.2191,-7.2665,-7.3071,-7.3071,-7.3071,-7.3105,-7.324,-7.2665,-7.2394,-7.2969,-7.3071,-7.3071,-7.3071,-7.3071,-7.3105,-7.3274,-7.3274,-7.3341,-7.3477,-7.3477,-7.3443,-7.3274,-7.3274,-7.3206,-7.3071,-7.2496,-7.2124,-7.1988,-7.1379,-7.1041,-7.0872,-7.0872,-7.0872,-7.0838,-6.935,-6.8673,0.0,0.0,0.0,0.0,0.0,0.0,0.0,0.0,0.0,0.0,0.0,-6.1092,-6.1557,0.0,-6.431,-6.5118,-6.6623,-6.7981,-6.8788,-7.0293,-7.0844,-6.9633,-7.0587,-7.1762,-7.2973,-7.345,-7.4221,-7.5432,-7.5506,-7.5689,-7.6063,-7.6497,-7.6717,-7.6717,-7.709,-7.7273,-7.7273,-7.7273,-7.7273,-7.7273,-7.7273,-7.7273,-7.7273,-7.7273,-7.7273,-7.7273,-7.7273,-7.7273,-7.7212,-7.6197,-7.4903,-7.3447,-7.2283,-7.1616,-7.1312,-7.1312,-7.1312,-7.1312,-7.1312,-7.1312,-7.1312,-7.1312,-7.1312,-7.1312,-7.1312,-7.1312,-7.1312,-7.1312,-7.1582,-7.1853,-7.1853,-7.2124,-7.2394,-7.2394,-7.2665,-7.2935,-7.2935,-7.324,-7.3477,-7.3477,-7.3477,-7.3612,-7.3984,-7.3747,-7.351,-7.3477,-7.3477,-7.3477,-7.3477,-7.3477,-7.3612,-7.4018,-7.4052,-7.4187,-7.4559,-7.4255,-7.4052,-7.4052,-7.368,-7.3477,-7.3477,-7.3138,-7.2935,-7.2935,-7.2597,-7.2394,-7.2394,-7.2394,-7.2394,-7.2394,-7.165,-7.0906,0.0,0.0,0.0,0.0,0.0,0.0,0.0,-5.8988,-5.9698,-6.0676,-6.1924,-6.289,-6.3246,-6.464,-6.6182,-6.7467,-6.8091,-6.8898,-7.0367,-7.1835,-7.2569,-7.2055,-7.2569,-7.3266,-7.4074,-7.4771,-7.5469,-7.6276,-7.635,-7.6644,-7.7273,-7.7273,-7.7273,-7.7273,-7.7273,-7.7273,-7.7273,-7.7273,-7.7273,-7.7273,-7.7273,-7.7384,-7.753,-7.753,-7.764,-7.7818,-7.7818,-7.7818,-7.7657,-7.5836,-7.4463,-7.3489,-7.3064,-7.2451,-7.1718,-7.1582,-7.1616,-7.1718,-7.1582,-7.1616,-7.1751,-7.1751,-7.1751,-7.1751,-7.1751,-7.1751,-7.1751,-7.1751,-7.2157,-7.2597,-7.2597,-7.3037,-7.3477,-7.3477,-7.3612,-7.3713,-7.3713,-7.3815,-7.3916,-7.3916,-7.3916,-7.4119,-7.4728,-7.483,-7.4627,-7.4018,-7.3916,-7.3916,-7.3916,-7.3916,-7.4153,-7.4762,-7.483,-7.5067,-7.5642,-7.5168,-7.483,-7.483,-7.4255,-7.3916,-7.3916,-7.3781,-7.3713,-7.3713,-7.3544,-7.3477,-7.3477,-7.3477,-7.3477,-7.3477,-7.3477,-7.2868,-5.774,-5.774,-5.7886,-5.8621,-5.8854,-5.9148,0.0,-6.0199,-6.0713,-6.2218,-6.267,-6.3246,-6.4751,-6.6329,-6.7467,-6.765,-6.9486,-7.1211,-7.2129,-7.301,-7.378,-7.4441,-7.4588,-7.4955,-7.5763,-7.5909,-7.6313,-7.709,-7.7163,-7.72,-7.7273,-7.7273,-7.7273,-7.7273,-7.7273,-7.7273,-7.7273,-7.7273,-7.7273,-7.7273,-7.7273,-7.7708,-7.8442,-7.8442,-7.8846,-7.9507,-7.9507,-7.9507,-7.9443,-7.8265,-7.7122,-7.6089,-7.5171,-7.4199,-7.3172,-7.2529,-7.2699,-7.3138,-7.2496,-7.2699,-7.324,-7.324,-7.324,-7.324,-7.324,-7.324,-7.324,-7.324,-7.3308,-7.3375,-7.3375,-7.3443,-7.3477,-7.3477,-7.3984,-7.4492,-7.4492,-7.4999,-7.5439,-7.5439,-7.5439,-7.5473,-7.5574,-7.5574,-7.554,-7.5473,-7.5439,-7.5439,-7.5439,-7.5439,-7.5473,-7.5574,-7.5574,-7.5608,-7.5676,-7.5608,-7.5574,-7.5574,-7.5506,-7.5439,-7.5439,-7.483,-7.4492,-7.4492,-7.3815,-7.3477,-7.3477,-7.3477,-7.3477,-7.3477,-7.3477,-7.3409,-5.9281,-5.9391,-5.9501,-5.9832,-5.9905,-6.0236,-6.152,-6.1814,-6.2254,-6.3943,-6.464,-6.5301,-6.6476,-6.7614,-6.8715,-6.9633,-7.1027,-7.2275,-7.3083,-7.4294,-7.5212,-7.5579,-7.6019,-7.624,-7.613,-7.6533,-7.6937,-7.7273,-7.7273,-7.7273,-7.7273,-7.7273,-7.7273,-7.7273,-7.7273,-7.7273,-7.7273,-7.7273,-7.753,-7.8075,-7.8075,-7.8479,-7.9286,-7.9286,-7.947,-7.98,-7.98,-7.98,-7.97,-7.8658,-7.7557,-7.6568,-7.5966,-7.5077,-7.4052,-7.3308,-7.324,-7.3443,-7.3138,-7.324,-7.3477,-7.3477,-7.3477,-7.3477,-7.3477,-7.3477,-7.3477,-7.3477,-7.3815,-7.4153,-7.4153,-7.4458,-7.4762,-7.4762,-7.5033,-7.5236,-7.5236,-7.5473,-7.5709,-7.5709,-7.5709,-7.5709,-7.5709,-7.5709,-7.5709,-7.5709,-7.5709,-7.5709,-7.5709,-7.5709,-7.5879,-7.6352,-7.6386,-7.6555,-7.6995,-7.7029,-7.7029,-7.7029,-7.7029,-7.7029,-7.7029,-7.6724,-7.6589,-7.6589,-7.6251,-7.6115,-7.6115,-7.6115,-7.6115,-7.6115,-7.6115,-7.6115,-6.0236,-6.0419,-6.0456,-6.0676,-6.0896,-6.1447,-6.2842,-6.3356,-6.3906,-6.5338,-6.6256,-6.7063,-6.7871,-6.8862,-7.0036,-7.1431,-7.2312,-7.3193,-7.4221,-7.5359,-7.6166,-7.6423,-7.6974,-7.7053,-7.6497,-7.6943,-7.7273,-7.7273,-7.7273,-7.7273,-7.7273,-7.7273,-7.7273,-7.7273,-7.7273,-7.742,-7.7671,-7.7671,-7.8112,-7.8919,-7.8919,-7.936,-8.0131,-8.0351,-8.0461,-8.0461,-8.0461,-8.0461,-8.0392,-7.9621,-7.853,-7.724,-7.7033,-7.61,-7.483,-7.4289,-7.4086,-7.4052,-7.3849,-7.3916,-7.4086,-7.4086,-7.4086,-7.4086,-7.4086,-7.4086,-7.4086,-7.4086,-7.4492,-7.4897,-7.4897,-7.5303,-7.5709,-7.5709,-7.5709,-7.5709,-7.5709,-7.5709,-7.5709,-7.5709,-7.5879,-7.6014,-7.6014,-7.6183,-7.6318,-7.6318,-7.6318,-7.6251,-7.6048,-7.6217,-7.6555,-7.713,-7.7198,-7.7401,-7.7942,-7.7976,-7.7976,-7.7976,-7.7976,-7.7976,-7.7976,-7.7976,-7.7976,-7.7976,-7.7976,-7.7976,-7.7976,-7.7976,-7.7976,-7.7976,-7.7976,-7.7976,-6.0382,-6.0419,-6.0603,-6.1374,-6.2144,-6.2989,-6.387,-6.4677,-6.5485,-6.6292,-6.71,-6.7907,-6.8715,-7.0183,-7.1505,-7.2349,-7.312,-7.4221,-7.5799,-7.6056,-7.6387,-7.7163,-7.7273,-7.7273,-7.7273,-7.7273,-7.7273,-7.7273,-7.7273,-7.7273,-7.7273,-7.7273,-7.7273,-7.7273,-7.7273,-7.7708,-7.8552,-7.8552,-7.8956,-7.9764,-7.9764,-8.0167,-8.1012,-8.1782,-8.2113,-8.2113,-8.2113,-8.2113,-8.2113,-8.208,-8.0839,-7.8912,-7.8948,-7.7606,-7.5676,-7.5642,-7.5642,-7.554,-7.483,-7.5033,-7.5642,-7.5642,-7.5642,-7.5642,-7.5642,-7.5642,-7.5642,-7.5642,-7.5642,-7.5676,-7.5676,-7.5676,-7.5709,-7.5709,-7.5709,-7.5709,-7.5709,-7.5709,-7.5709,-7.5709,-7.6318,-7.686,-7.686,-7.7435,-7.7908,-7.7908,-7.7908,-7.7671,-7.6961,-7.7468,-7.7942,-7.7942,-7.7942,-7.7976,-7.7976,-7.7976,-7.7976,-7.7976,-7.7976,-7.7976,-7.7976,-7.7976,-7.7976,-7.7976,-7.7976,-7.7976,-7.7976,-7.7976,-7.7976,-7.7976,-7.7976,-7.7976,-6.2548,-6.2842,-6.2915,-6.3172,-6.387,-6.4677,-6.5485,-6.5888,-6.6476,-6.7834,-6.8311,-6.8898,-7.0257,-7.0954,-7.1762,-7.3083,-7.3964,-7.4882,-7.5946,-7.657,-7.7011,-7.7273,-7.7273,-7.7273,-7.7273,-7.7273,-7.7273,-7.7273,-7.7273,-7.7273,-7.7273,-7.7273,-7.7273,-7.7273,-7.7855,-7.8295,-7.8589,-7.914,-7.98,-8.0608,-8.1122,-8.1525,-8.1819,-8.2076,-8.2186,-8.2186,-8.2186,-8.2186,-8.2186,-8.2186,-8.137,-8.0069,-8.0069,-7.874,-7.6747,-7.6747,-7.6312,-7.5676,-7.5439,-7.5506,-7.5709,-7.5709,-7.5709,-7.5709,-7.5709,-7.5709,-7.5709,-7.5709,-7.5709,-7.5709,-7.5709,-7.5709,-7.5709,-7.5709,-7.5709,-7.5709,-7.5709,-7.6115,-7.6487,-7.6487,-7.7096,-7.7638,-7.7638,-7.7841,-7.8145,-7.8653,-7.8314,-7.7908,-7.7638,-7.7841,-7.8179,-7.8686,-7.872,-7.8923,-7.9431,-7.9464,-7.9464,-7.9464,-7.9464,-7.9464,-7.9464,-7.9464,-7.9464,-7.9464,-7.9464,-7.9464,-7.9464,-7.9464,-7.9464,-7.9464,-7.9464,-7.9464,-6.3723,-6.409,-6.4163,-6.4457,-6.5118,-6.5852,-6.6366,-6.6733,-6.7283,-6.8641,-6.9119,-6.9743,-7.1036,-7.1513,-7.2275,-7.3854,-7.4551,-7.5285,-7.6387,-7.6974,-7.7273,-7.7273,-7.7273,-7.7273,-7.7273,-7.7273,-7.7273,-7.7273,-7.7273,-7.7273,-7.7273,-7.7598,-7.7781,-7.7781,-7.8589,-7.9176,-7.9433,-7.9947,-8.0608,-8.1452,-8.1929,-8.2186,-8.2186,-8.2186,-8.2186,-8.2186,-8.2186,-8.2186,-8.2186,-8.2186,-8.1542,-8.0623,-8.0623,-7.9262,-7.7292,-7.7292,-7.6645,-7.5709,-7.5709,-7.5709,-7.5709,-7.5709,-7.5709,-7.5709,-7.5709,-7.5709,-7.5709,-7.5709,-7.5709,-7.5709,-7.5709,-7.5709,-7.5709,-7.5709,-7.5912,-7.6115,-7.6115,-7.6724,-7.7299,-7.7299,-7.7874,-7.8382,-7.8382,-7.8619,-7.8957,-7.9431,-7.9092,-7.8788,-7.8788,-7.8788,-7.8957,-7.9431,-7.9498,-7.9701,-8.0175,-8.0209,-8.0209,-8.0209,-8.0209,-8.0209,-8.0209,-8.0209,-8.0209,-8.0209,-8.0209,-8.0209,-8.0209,-8.0209,-8.0209,-8.0209,-8.0209,-8.0344,-6.3906,-6.42,-6.442,-6.5191,-6.5962,-6.6549,-6.6549,-6.7136,-6.7944,-6.8788,-6.9559,-7.0367,-7.1211,-7.1982,-7.3046,-7.4661,-7.4918,-7.5469,-7.7053,-7.7273,-7.7273,-7.7273,-7.7273,-7.7273,-7.7273,-7.7273,-7.731,-7.7347,-7.731,-7.731,-7.7347,-7.8148,-7.8626,-7.8662,-7.9433,-8.0241,-8.1012,-8.1048,-8.1452,-8.2186,-8.2186,-8.2186,-8.2186,-8.2186,-8.2186,-8.2186,-8.2186,-8.2186,-8.2186,-8.2186,-8.1613,-8.0695,-8.0695,-7.938,-7.7476,-7.7476,-7.6747,-7.5771,-7.5771,-7.5723,-7.5709,-7.5709,-7.5709,-7.5709,-7.5709,-7.5709,-7.5709,-7.5709,-7.5709,-7.5709,-7.5709,-7.5743,-7.5743,-7.5743,-7.6352,-7.6961,-7.6961,-7.7536,-7.8044,-7.8044,-7.8653,-7.916,-7.916,-7.9735,-8.0209,-8.0209,-8.0209,-8.0209,-8.0209,-8.0209,-8.0209,-8.0209,-8.0209,-8.0209,-8.0209,-8.0209,-8.0209,-8.0209,-8.0209,-8.0209,-8.0209,-8.0209,-8.0209,-8.0209,-8.0209,-8.0209,-8.0209,-8.0242,-8.0242,-8.0242,-8.031,-8.0682,-6.4787,-6.5448,-6.5925,-6.6145,-6.6806,-6.7393,-6.7393,-6.754,-6.8091,-6.9486,-6.9963,-7.0513,-7.1945,-7.2349,-7.3046,-7.4661,-7.4918,-7.5469,-7.7053,-7.7273,-7.7273,-7.7273,-7.7273,-7.7273,-7.7273,-7.7273,-7.7598,-7.8222,-7.7671,-7.7567,-7.8222,-7.8479,-7.8883,-7.947,-8.0277,-8.0791,-8.1012,-8.1599,-8.2003,-8.2186,-8.2186,-8.2186,-8.2186,-8.2186,-8.2186,-8.2186,-8.2186,-8.2186,-8.2186,-8.2186,-8.2018,-8.1782,-8.1782,-8.0947,-7.9729,-7.9729,-7.8541,-7.6882,-7.6882,-7.6358,-7.5709,-7.5709,-7.5709,-7.5709,-7.5709,-7.5709,-7.5709,-7.5709,-7.5709,-7.5709,-7.5709,-7.6149,-7.6589,-7.6589,-7.7164,-7.7705,-7.7705,-7.828,-7.8822,-7.8822,-7.9431,-7.9938,-7.9938,-8.0073,-8.0209,-8.0209,-8.0209,-8.0209,-8.0209,-8.0209,-8.0209,-8.0209,-8.0209,-8.0209,-8.0209,-8.0209,-8.0209,-8.0209,-8.0209,-8.0209,-8.0209,-8.0209,-8.0209,-8.0209,-8.0209,-8.0209,-8.0209,-8.075,-8.1021,-8.1021,-8.1596,-8.1934,-6.5081,-6.5888,-6.6586,-6.6953,-6.7357,-6.7687,-6.7687,-6.7687,-6.8054,-6.9302,-6.9853,-7.0477,-7.1762,-7.2275,-7.3046,-7.4661,-7.4918,-7.5469,-7.7053,-7.7273,-7.7273,-7.7273,-7.7273,-7.7273,-7.7273,-7.7273,-7.7671,-7.8516,-7.8148,-7.8259,-7.9066,-7.947,-7.9874,-8.0314,-8.1122,-8.1525,-8.1525,-8.1966,-8.2186,-8.2186,-8.2186,-8.2186,-8.2186,-8.2186,-8.2186,-8.2186,-8.2186,-8.2186,-8.2186,-8.2186,-8.2186,-8.2186,-8.2186,-8.1542,-8.0514,-8.0069,-7.8822,-7.7248,-7.6747,-7.6173,-7.5709,-7.5709,-7.5709,-7.5709,-7.5709,-7.5709,-7.5709,-7.5709,-7.5946,-7.6217,-7.6217,-7.6792,-7.7367,-7.7367,-7.7942,-7.8483,-7.8483,-7.9058,-7.96,-7.96,-7.9938,-8.0209,-8.0209,-8.0209,-8.0209,-8.0209,-8.0209,-8.0209,-8.0209,-8.0209,-8.0209,-8.0209,-8.0209,-8.0209,-8.0209,-8.0209,-8.0209,-8.0209,-8.0209,-8.0209,-8.0209,-8.0209,-8.0344,-8.0682,-8.0682,-8.0818,-8.1156,-8.1596,-8.1765,-8.1799,-8.2205,-8.2577,-6.5118,-6.5962,-6.6843,-6.7504,-6.7687,-6.7687,-6.7687,-6.7687,-6.7907,-6.8752,-6.9449,-7.0183,-7.0991,-7.1798,-7.2826,-7.4368,-7.4771,-7.5402,-7.6907,-7.7237,-7.7273,-7.7273,-7.7273,-7.7273,-7.7273,-7.7384,-7.7855,-7.8699,-7.8846,-7.9213,-7.991,-8.0608,-8.1048,-8.1158,-8.1819,-8.2186,-8.2186,-8.2186,-8.2186,-8.2186,-8.2186,-8.2186,-8.2186,-8.2186,-8.2186,-8.2186,-8.2186,-8.2186,-8.2186,-8.2186,-8.2186,-8.2186,-8.2186,-8.1647,-8.0695,-7.9765,-7.8618,-7.7424,-7.6462,-7.6028,-7.5845,-7.5743,-7.5709,-7.5709,-7.5709,-7.5777,-7.5845,-7.5845,-7.642,-7.7063,-7.7063,-7.757,-7.8145,-7.8145,-7.872,-7.9261,-7.9261,-7.9769,-8.0209,-8.0209,-8.0209,-8.0209,-8.0209,-8.0209,-8.0209,-8.0209,-8.0209,-8.0209,-8.0209,-8.0209,-8.0209,-8.0209,-8.0209,-8.0209,-8.0209,-8.0209,-8.0209,-8.0209,-8.0209,-8.0242,-8.0344,-8.0344,-8.0682,-8.1426,-8.1426,-8.1765,-8.2408,-8.2509,-8.2543,-8.2543,-8.2644,-8.305,-6.5264,-6.6366,-6.7504,-6.765,-6.7687,-6.7687,-6.7687,-6.7687,-6.7907,-6.8752,-6.9009,-6.9339,-7.0146,-7.0991,-7.1835,-7.2753,-7.4037,-7.5249,-7.6166,-7.687,-7.7273,-7.7273,-7.7273,-7.7273,-7.7273,-7.7965,-7.8699,-7.9507,-8.0204,-8.0645,-8.0791,-8.0938,-8.1305,-8.1966,-8.2113,-8.2186,-8.2186,-8.2186,-8.2186,-8.2186,-8.2186,-8.2186,-8.2186,-8.2186,-8.2186,-8.2186,-8.2186,-8.2186,-8.2186,-8.2186,-8.2186,-8.2186,-8.2186,-8.2088,-8.1919,-8.1715,-8.0367,-7.87,-7.8494,-7.7654,-7.6589,-7.5912,-7.5709,-7.5709,-7.5709,-7.6149,-7.669,-7.669,-7.7232,-7.7807,-7.7807,-7.8348,-7.8923,-7.8923,-7.9464,-8.0006,-8.0006,-8.0107,-8.0209,-8.0209,-8.0209,-8.0209,-8.0209,-8.0209,-8.0209,-8.0209,-8.0209,-8.0209,-8.0209,-8.0209,-8.0209,-8.0209,-8.0209,-8.0209,-8.0209,-8.0209,-8.0209,-8.0209,-8.0209,-8.0479,-8.1054,-8.1088,-8.146,-8.2205,-8.2205,-8.2272,-8.2408,-8.3016,-8.3321,-8.3321,-8.393,-8.4302,-6.5656,-6.684,-6.8123,-6.8123,-6.8123,-6.8123,-6.8123,-6.7878,-6.7797,-6.8201,-6.8605,-6.9009,-6.9412,-7.0477,-7.155,-7.2386,-7.3854,-7.5175,-7.5983,-7.679,-7.7273,-7.7273,-7.7273,-7.7273,-7.7273,-7.8112,-7.8919,-7.9727,-8.0534,-8.1195,-8.1599,-8.1636,-8.1782,-8.2186,-8.2186,-8.2186,-8.2186,-8.2186,-8.2186,-8.2186,-8.2186,-8.2186,-8.2186,-8.2186,-8.2186,-8.2186,-8.2186,-8.2443,-8.281,-8.281,-8.3067,-8.3434,-8.3434,-8.3434,-8.3368,-8.2817,-8.1592,-8.0105,-7.9557,-7.851,-7.7401,-7.7029,-7.6893,-7.6893,-7.6893,-7.7164,-7.7468,-7.7468,-7.801,-7.8585,-7.8585,-7.9126,-7.9667,-7.9667,-7.9938,-8.0209,-8.0209,-8.0209,-8.0209,-8.0209,-8.0209,-8.0209,-8.0209,-8.0209,-8.0209,-8.0209,-8.0209,-8.0209,-8.0209,-8.0209,-8.0209,-8.0209,-8.0209,-8.0209,-8.0209,-8.0209,-8.0344,-8.075,-8.075,-8.1088,-8.1832,-8.1866,-8.2205,-8.2949,-8.2983,-8.3152,-8.3558,-8.393,-8.4065,-8.4099,-8.4471,-8.464,-6.5955,-6.7072,-6.8287,-6.8474,-6.8567,-6.8599,-6.8311,-6.7938,-6.7542,-6.7263,-6.7834,-6.8385,-6.8385,-6.9706,-7.1064,-7.1872,-7.3487,-7.4918,-7.5726,-7.668,-7.7273,-7.7273,-7.7273,-7.7273,-7.7273,-7.8259,-7.9103,-7.9727,-8.0718,-8.1525,-8.215,-8.2186,-8.2186,-8.2186,-8.2186,-8.2186,-8.2186,-8.2186,-8.2186,-8.2186,-8.2186,-8.2186,-8.2186,-8.2186,-8.2296,-8.2443,-8.2443,-8.292,-8.3654,-8.3654,-8.4022,-8.4609,-8.4609,-8.4609,-8.4471,-8.3628,-8.2632,-8.149,-8.0386,-7.9384,-7.857,-7.8311,-7.8111,-7.7976,-7.7976,-7.8111,-7.8247,-7.8247,-7.8754,-7.9363,-7.9363,-7.9769,-8.0209,-8.0209,-8.0209,-8.0209,-8.0209,-8.0209,-8.0209,-8.0209,-8.0209,-8.0209,-8.0209,-8.0209,-8.0209,-8.0209,-8.0209,-8.0209,-8.0209,-8.0209,-8.0209,-8.0209,-8.0209,-8.0209,-8.0209,-8.0344,-8.0682,-8.1257,-8.1426,-8.1866,-8.2611,-8.2644,-8.2983,-8.3727,-8.3727,-8.4031,-8.464,-8.464,-8.464,-8.464,-8.464,-8.464,-6.5806,-6.6686,-6.758,-6.8325,-6.8884,-6.8918,-6.768,-6.7347,-6.7009,-6.5761,-6.6145,-6.6733,-6.6733,-6.8054,-6.9376,-7.0183,-7.2275,-7.4074,-7.4918,-7.6319,-7.7273,-7.7273,-7.7273,-7.7273,-7.7273,-7.8736,-7.969,-7.9764,-8.1195,-8.2113,-8.2186,-8.2186,-8.2186,-8.2186,-8.2186,-8.2186,-8.2186,-8.2186,-8.2186,-8.2186,-8.2186,-8.2186,-8.2186,-8.2186,-8.259,-8.3287,-8.3287,-8.3765,-8.4499,-8.4499,-8.4535,-8.4609,-8.4609,-8.4609,-8.4609,-8.4471,-8.3771,-8.267,-8.1531,-8.0885,-8.0374,-7.9352,-7.8551,-7.7976,-7.7976,-7.8483,-7.9025,-7.9025,-7.9532,-8.0107,-8.0107,-8.0141,-8.0209,-8.0209,-8.0209,-8.0209,-8.0209,-8.0209,-8.0209,-8.0209,-8.0209,-8.0209,-8.0209,-8.0209,-8.0209,-8.0209,-8.0209,-8.0209,-8.0209,-8.0209,-8.0209,-8.0209,-8.0209,-8.0209,-8.0209,-8.0784,-8.1224,-8.1291,-8.1934,-8.2644,-8.3355,-8.3389,-8.3761,-8.4505,-8.4539,-8.4539,-8.464,-8.464,-8.464,-8.464,-8.464,-8.464,-6.6107,-6.6825,-6.7675,-6.8469,-6.847,-6.8186,-6.7847,-6.7142,-6.6277,-6.5467,-6.5558,-6.5925,-6.6402,-6.743,-6.8605,-6.9889,-7.1725,-7.3413,-7.4735,-7.5873,-7.6754,-7.7237,-7.7273,-7.7494,-7.8038,-7.9103,-8.0204,-8.1158,-8.1819,-8.2186,-8.2186,-8.2186,-8.2186,-8.2186,-8.2186,-8.2186,-8.2186,-8.2186,-8.2186,-8.2186,-8.2186,-8.2186,-8.2223,-8.27,-8.3104,-8.3434,-8.3911,-8.4572,-8.5306,-8.5306,-8.56,-8.604,-8.604,-8.604,-8.604,-8.604,-8.5336,-8.4302,-8.384,-8.2708,-8.1413,-8.0932,-8.0107,-7.9329,-7.9329,-7.9532,-7.9769,-7.9769,-7.9972,-8.0209,-8.0209,-8.0209,-8.0209,-8.0209,-8.0209,-8.0209,-8.0209,-8.0209,-8.0209,-8.0209,-8.0209,-8.0209,-8.0209,-8.0209,-8.0209,-8.0209,-8.0209,-8.0209,-8.0209,-8.0209,-8.0378,-8.0818,-8.0851,-8.0851,-8.0851,-8.1528,-8.2137,-8.2577,-8.2915,-8.3389,-8.4133,-8.4167,-8.4302,-8.4553,-8.464,-8.464,-8.464,-8.464,-8.464,-8.464,-8.464,-8.464,-6.6249,-6.6745,-6.7447,-6.8248,-6.8155,-6.7763,-6.7411,-6.6579,-6.5695,-6.4955,-6.4878,-6.5169,-6.5888,-6.6717,-6.7871,-6.9486,-7.1101,-7.2789,-7.4661,-7.5579,-7.6387,-7.72,-7.753,-7.7928,-7.8552,-7.9543,-8.0718,-8.2076,-8.2186,-8.2186,-8.2186,-8.2186,-8.2186,-8.2186,-8.2186,-8.2186,-8.2186,-8.2186,-8.2186,-8.2186,-8.2186,-8.2333,-8.259,-8.3141,-8.3654,-8.4132,-8.4719,-8.5416,-8.6151,-8.6151,-8.6481,-8.6995,-8.6995,-8.6995,-8.6995,-8.6995,-8.65,-8.5768,-8.5429,-8.4006,-8.2346,-8.2014,-8.1125,-8.0209,-8.0209,-8.0209,-8.0209,-8.0209,-8.0209,-8.0209,-8.0209,-8.0209,-8.0209,-8.0209,-8.0209,-8.0209,-8.0209,-8.0209,-8.0209,-8.0209,-8.0209,-8.0209,-8.0209,-8.0209,-8.0209,-8.0209,-8.0209,-8.0209,-8.0209,-8.0378,-8.0716,-8.1224,-8.1663,-8.1866,-8.1629,-8.2306,-8.2949,-8.3456,-8.3693,-8.4065,-8.4606,-8.464,-8.464,-8.464,-8.464,-8.464,-8.464,-8.464,-8.464,-8.464,-8.464,-8.464,-6.6097,-6.638,-6.6624,-6.7409,-6.8027,-6.7899,-6.6047,-6.5596,-6.5253,-6.3888,-6.387,-6.4254,-6.4725,-6.5731,-6.7026,-6.8641,-7.0257,-7.2137,-7.4588,-7.5579,-7.6387,-7.72,-7.8075,-7.8589,-7.8589,-8.0057,-8.1342,-8.215,-8.2186,-8.2186,-8.2186,-8.2186,-8.2186,-8.2186,-8.2186,-8.2186,-8.2186,-8.2186,-8.2186,-8.2186,-8.2186,-8.2627,-8.3398,-8.3398,-8.4278,-8.5783,-8.5783,-8.6224,-8.6995,-8.6995,-8.6995,-8.6995,-8.6995,-8.6995,-8.6995,-8.6995,-8.696,-8.6819,-8.5657,-8.4532,-8.3407,-8.229,-8.1125,-8.0209,-8.0209,-8.0209,-8.0209,-8.0209,-8.0209,-8.0209,-8.0209,-8.0209,-8.0209,-8.0209,-8.0209,-8.0209,-8.0209,-8.0209,-8.0209,-8.0209,-8.0209,-8.0209,-8.0209,-8.0209,-8.0209,-8.0209,-8.0209,-8.0209,-8.0209,-8.0818,-8.1291,-8.1291,-8.2611,-8.3186,-8.2475,-8.305,-8.349,-8.349,-8.42,-8.4606,-8.464,-8.464,-8.464,-8.464,-8.464,-8.464,-8.464,-8.464,-8.464,-8.464,-8.464,-8.464,-6.5956,-6.6033,-6.6225,-6.7069,-6.6959,-6.6587,-6.6216,-6.5459,-6.4671,-6.4253,-6.3653,-6.3702,-6.532,-6.5657,-6.6586,-6.9265,-7.0624,-7.2165,-7.4588,-7.5579,-7.6387,-7.72,-7.8552,-7.9396,-7.9396,-8.0865,-8.1929,-8.2186,-8.2186,-8.2186,-8.2186,-8.2186,-8.2186,-8.2186,-8.2186,-8.2186,-8.2186,-8.2186,-8.2186,-8.2186,-8.2774,-8.3177,-8.3471,-8.4535,-8.5306,-8.582,-8.6371,-8.6775,-8.6995,-8.6995,-8.6995,-8.6995,-8.6995,-8.6995,-8.6995,-8.6995,-8.6995,-8.6925,-8.6571,-8.5731,-8.4573,-8.3415,-8.229,-8.1222,-8.0476,-8.0209,-8.0209,-8.0209,-8.0209,-8.0209,-8.0209,-8.0209,-8.0209,-8.0209,-8.0209,-8.0209,-8.0209,-8.0209,-8.0209,-8.0209,-8.0209,-8.0209,-8.0209,-8.0209,-8.0209,-8.0209,-8.0209,-8.0378,-8.0885,-8.1156,-8.1663,-8.2678,-8.3219,-8.3422,-8.3186,-8.3828,-8.4268,-8.4268,-8.4505,-8.464,-8.464,-8.464,-8.464,-8.464,-8.464,-8.464,-8.464,-8.464,-8.464,-8.464,-8.464,-8.464,-6.582,-6.5897,-6.6013,-6.6513,-6.6282,-6.5884,-6.5918,-6.5247,-6.4661,-6.4661,-6.3813,-6.3655,-6.5506,-6.5568,-6.6256,-6.9155,-7.0587,-7.2165,-7.4588,-7.5579,-7.6533,-7.7671,-7.8993,-7.991,-8.0204,-8.1415,-8.2186,-8.2186,-8.2186,-8.2186,-8.2186,-8.2186,-8.2186,-8.2186,-8.2186,-8.2186,-8.2186,-8.2186,-8.2333,-8.2663,-8.3177,-8.3728,-8.4352,-8.5343,-8.5967,-8.6261,-8.6775,-8.6995,0.0,-8.6995,-8.6995,-8.6995,-8.6995,-8.6995,-8.6995,-8.6995,-8.6995,-8.6995,-8.6995,-8.6247,-8.5123,-8.4,-8.2527,-8.1125,-8.0426,-8.0209,-8.0209,-8.0209,-8.0209,-8.0209,-8.0209,-8.0209,-8.0209,-8.0209,-8.0209,-8.0209,-8.0209,-8.0209,-8.0209,-8.0209,-8.0209,-8.0209,-8.0209,-8.0209,-8.0276,-8.0547,-8.0615,-8.0885,-8.1629,-8.1968,-8.2475,-8.3389,-8.3761,-8.393,-8.393,-8.437,-8.464,-8.464,-8.464,-8.464,-8.464,-8.464,-8.464,-8.464,-8.464,-8.464,-8.464,-8.464,-8.464,-8.464,-8.464,-8.464,0.0,-6.582,-6.5897,-6.5897,-6.5897,-6.5781,-6.5276,-6.513,0.0,-6.5222,-6.4445,-6.4145,-6.5536,-6.5626,-6.6308,-6.8605,-7.0403,-7.2247,-7.4588,-7.5652,-7.679,-7.8405,-7.9286,-8.0094,-8.0938,-8.1746,-8.2186,-8.2186,-8.2186,-8.2186,-8.2186,-8.2186,-8.2186,-8.2186,-8.2186,-8.2186,-8.2186,-8.226,-8.2663,-8.3398,-8.3544,-8.4352,-8.5783,-8.5857,-8.6297,-8.6995,-8.6995,-8.6995,-8.6995,-8.6995,-8.6995,-8.6995,-8.6995,-8.6995,-8.6995,-8.6995,-8.6995,-8.6995,-8.6995,-8.632,-8.5201,-8.4,-8.2106,-8.0326,-8.0225,-8.0209,-8.0209,-8.0209,-8.0209,-8.0209,-8.0209,-8.0209,-8.0209,-8.0209,-8.0209,-8.0209,-8.0209,-8.0209,-8.0209,-8.0209,-8.0209,-8.0209,-8.0209,-8.0242,-8.0513,-8.119,-8.1325,-8.1629,-8.2374,-8.3084,-8.3524,-8.3558,-8.42,-8.464,-8.464,-8.464,-8.464,-8.464,-8.464,-8.464,-8.464,-8.464,-8.464,-8.464,-8.464,-8.464,-8.464,-8.464,-8.464,-8.464,-8.464,-8.464,-6.3705,0.0,-6.5897,-6.5897,-6.5897,-6.5885,0.0,-6.5403,-6.5383,-6.6417,-6.5834,-6.5592,-6.716,-6.7591,-6.8198,-6.9568,-7.1688,-7.356,-7.4735,-7.613,-7.7414,-7.8479,-7.9286,-8.0094,-8.0938,-8.1746,-8.2186,-8.2186,-8.2186,-8.2186,-8.2186,-8.2186,-8.2186,-8.2186,-8.2186,-8.2186,-8.2186,-8.281,-8.3214,-8.3434,-8.4646,-8.5416,-8.582,-8.6444,-8.6811,-8.6995,-8.6995,-8.6995,-8.6995,-8.6995,-8.6995,-8.6995,-8.6995,-8.6995,-8.6995,-8.6995,-8.6995,-8.6995,-8.6995,-8.6819,-8.6283,-8.4248,-8.2661,-8.1331,-8.0442,-8.0209,-8.0209,-8.0209,-8.0209,-8.0209,-8.0209,-8.0209,-8.0209,-8.0209,-8.0209,-8.0209,-8.0209,-8.0209,-8.0209,-8.0209,-8.0209,-8.0209,-8.0209,-8.0648,-8.1088,-8.1257,-8.1765,-8.2408,-8.3152,-8.3389,-8.3727,-8.4302,-8.4505,-8.464,-8.464,-8.464,-8.464,-8.464,-8.464,-8.464,-8.464,-8.464,-8.464,-8.464,-8.464,-8.464,-8.464,-8.464,-8.464,-8.464,-8.464,-8.464,-6.2627,-6.4012,-6.5282,-6.5282,-6.559,-6.5897,-6.5897,-6.5945,-6.6207,-6.6949,-6.6592,-6.6634,-6.8254,-6.8338,-6.8797,-7.0863,-7.2606,-7.4221,-7.5769,-7.6723,-7.7604,-7.8516,-7.9286,-8.0094,-8.0938,-8.1746,-8.2186,-8.2186,-8.2186,-8.2186,-8.2186,-8.2186,-8.2186,-8.2186,-8.2186,-8.237,-8.2737,-8.3177,-8.3765,-8.4499,-8.538,-8.5967,-8.6371,-8.6811,-8.6995,-8.6995,-8.6995,-8.6995,-8.6995,-8.6995,-8.6995,-8.6995,-8.6995,-8.6995,-8.6995,-8.6995,-8.6995,-8.6995,-8.6995,-8.6679,-8.5954,-8.4165,-8.2839,-8.1676,-8.0542,-8.0209,-8.0209,-8.0209,-8.0209,-8.0209,-8.0209,-8.0209,-8.0209,-8.0209,-8.0209,-8.0209,-8.0209,-8.0209,-8.0209,-8.0209,-8.0209,-8.031,-8.0648,-8.1021,-8.1528,-8.2205,-8.2644,-8.3186,-8.393,-8.3998,-8.4167,-8.4573,-8.464,-8.464,-8.464,-8.464,-8.464,-8.464,-8.464,-8.464,-8.464,-8.464,-8.464,-8.464,-8.464,-8.464,-8.464,-8.464,-8.464,-8.464,-8.464,-8.464,-6.2062,-6.3243,-6.4436,-6.4589,-6.5243,-6.5936,-6.6051,-6.659,-6.7167,-6.7436,-6.7452,-6.7827,-6.9141,-6.9005,-6.9536,-7.2084,-7.3377,-7.4808,-7.698,-7.7273,-7.7671,-7.8662,-7.936,-8.0167,-8.1085,-8.1782,-8.2186,-8.2186,-8.2186,-8.2186,-8.2186,-8.2186,-8.2186,-8.2186,-8.2333,-8.2774,-8.3581,-8.3581,-8.4352,-8.5783,-8.593,-8.6334,-8.6995,-8.6995,-8.6995,-8.6995,-8.6995,-8.6995,-8.6995,-8.6995,-8.6995,-8.6995,-8.6995,-8.6995,-8.6995,-8.6995,-8.6995,-8.6995,-8.6995,-8.6356,-8.5391,-8.4248,-8.3103,-8.1922,-8.0804,-8.0326,-8.0209,-8.0209,-8.0209,-8.0209,-8.0209,-8.0209,-8.0209,-8.0209,-8.0209,-8.0209,-8.0209,-8.0209,-8.0209,-8.0209,-8.0276,-8.0547,-8.119,-8.146,-8.2035,-8.3321,-8.3592,-8.3896,-8.4539,-8.464,-8.464,-8.464,-8.464,-8.464,-8.464,-8.464,-8.464,-8.464,-8.464,-8.464,-8.464,-8.464,-8.464,-8.464,-8.464,-8.464,-8.464,-8.464,-8.464,-8.464,-8.464,-8.464,-6.1908,-6.2781,-6.3666,-6.4436,-6.5243,-6.609,-6.6744,-6.7013,-6.7513,-6.9013,-6.9816,-7.0286,-7.0284,-7.1896,-7.3052,-7.2585,-7.4331,-7.6093,-7.7127,-7.7273,-7.7892,-7.9433,-7.969,-8.0351,-8.1856,-8.2113,-8.2186,-8.2186,-8.2186,-8.2186,-8.2186,-8.2186,-8.2186,-8.2186,-8.2884,-8.3618,-8.4425,-8.4425,-8.4866,-8.5783,-8.6481,-8.6885,-8.6995,-8.6995,-8.6995,-8.6995,-8.6995,-8.6995,-8.6995,-8.6995,-8.6995,-8.6995,-8.6995,-8.6995,-8.6995,-8.6995,-8.6995,-8.6995,-8.6995,-8.6891,-8.6536,-8.5429,-8.4289,-8.3147,-8.1968,-8.0966,-8.0209,-8.0209,-8.0209,-8.0209,-8.0209,-8.0209,-8.0209,-8.0209,-8.0209,-8.0209,-8.0209,-8.0209,-8.0209,-8.0209,-8.0682,-8.1156,-8.1257,-8.234,-8.3219,-8.3456,-8.4031,-8.4505,-8.4606,-8.464,-8.464,-8.464,-8.464,-8.464,-8.464,-8.464,-8.464,-8.464,-8.464,-8.464,-8.464,-8.464,-8.464,-8.464,-8.464,-8.464,-8.464,-8.464,-8.464,-8.464,-8.464,-8.464,-6.187,-6.2704,-6.3628,-6.4974,-6.5936,-6.6782,-6.7628,-6.8513,-6.936,-7.0167,-7.1112,-7.1952,-7.2398,-7.3214,-7.3927,-7.4359,-7.5763,-7.69,-7.7237,-7.7708,-7.8442,-7.9653,-8.0167,-8.0901,-8.2076,-8.2186,-8.2186,-8.2186,-8.2186,-8.2186,-8.2186,-8.2186,-8.2186,-8.2186,-8.2994,-8.3801,-8.4609,-8.5013,-8.5637,-8.6444,-8.6811,-8.6995,-8.6995,-8.6995,-8.6995,-8.6995,-8.6995,-8.6995,-8.6995,-8.6995,-8.6995,-8.6995,-8.6995,-8.6995,-8.6995,-8.6995,-8.6995,-8.6995,-8.6995,-8.6995,-8.6784,-8.5693,-8.4532,-8.3407,-8.2244,-8.1077,-8.0209,-8.0209,-8.0209,-8.0209,-8.0209,-8.0209,-8.0209,-8.0209,-8.0209,-8.0209,-8.0209,-8.0209,-8.031,-8.0716,-8.1054,-8.1528,-8.234,-8.305,-8.3625,-8.4031,-8.4403,-8.464,-8.464,-8.464,-8.464,-8.464,-8.464,-8.464,-8.464,-8.464,-8.464,-8.464,-8.464,-8.464,-8.464,-8.464,-8.464,-8.464,-8.464,-8.464,-8.464,-8.464,-8.464,-8.464,-8.464,-8.464,-6.2127,-6.3128,-6.432,-6.6051,-6.6782,-6.7436,-6.8706,-6.9975,-7.1014,-7.1437,-7.2378,-7.3402,-7.4093,-7.4099,-7.4569,-7.611,-7.69,-7.7273,-7.7273,-7.8075,-7.8883,-7.969,-8.0498,-8.1342,-8.2113,-8.2186,-8.2186,-8.2186,-8.2186,-8.2186,-8.2186,-8.2186,-8.2296,-8.248,-8.3251,-8.4058,-8.4866,-8.5673,-8.6407,-8.6995,-8.6995,-8.6995,-8.6995,-8.6995,-8.6995,-8.6995,-8.6995,-8.6995,-8.6995,-8.6995,-8.6995,-8.6995,-8.6995,-8.6995,-8.6995,-8.6995,-8.6995,-8.6995,-8.6995,-8.6995,-8.6856,-8.5991,-8.4927,-8.3874,-8.2937,-8.191,-8.1014,-8.1014,-8.0804,-8.0542,-8.0276,-8.0209,-8.0209,-8.0209,-8.0209,-8.0209,-8.0209,-8.0344,-8.0615,-8.119,-8.1562,-8.2171,-8.3287,-8.3625,-8.3964,-8.4539,-8.464,-8.464,-8.464,-8.464,-8.464,-8.464,-8.464,-8.464,-8.464,-8.464,-8.464,-8.464,-8.464,-8.464,-8.464,-8.464,-8.464,-8.464,-8.464,-8.464,-8.464,-8.464,-8.464,-8.464,-8.464,-8.464,-6.3012,-6.4436,-6.6128,-6.7821,-6.7667,-6.7744,-7.0167,-7.0821,-7.136,-7.2976,-7.4161,-7.4771,-7.4299,-7.515,-7.619,-7.7084,-7.7237,-7.7273,-7.7273,-7.8075,-7.8883,-7.969,-8.0498,-8.1342,-8.2113,-8.2186,-8.2186,-8.2186,-8.2186,-8.2186,-8.2186,-8.2186,-8.2553,-8.3287,-8.4095,-8.4903,-8.571,-8.6518,-8.6958,-8.6995,-8.6995,-8.6995,-8.6995,-8.6995,-8.6995,-8.6995,-8.6995,-8.6995,-8.6995,-8.6995,-8.6995,-8.6995,-8.6995,-8.6995,-8.6995,-8.6995,-8.6995,-8.6995,-8.6995,-8.6995,-8.696,-8.6891,-8.6101,-8.5162,-8.5084,-8.4289,-8.3364,-8.3364,-8.2571,-8.1535,-8.0492,-8.0209,-8.0209,-8.0209,-8.0209,-8.0209,-8.0209,-8.0716,-8.1224,-8.1257,-8.2408,-8.3389,-8.349,-8.4065,-8.4573,-8.4606,-8.464,-8.464,-8.464,-8.464,-8.464,-8.464,-8.464,-8.464,-8.464,-8.464,-8.464,-8.464,-8.464,-8.464,-8.464,-8.464,-8.464,-8.464,-8.464,-8.464,-8.464,-8.464,-8.464,-8.464,-8.464,-8.464,-6.3743,-6.4974,-6.6551,-6.9283,-6.9706,-6.986,-7.136,-7.2514,-7.3591,-7.4822,-7.5463,-7.5852,-7.5941,-7.643,-7.6974,-7.7237,-7.7273,-7.7494,-7.8038,-7.8809,-7.9617,-8.0461,-8.1269,-8.1856,-8.215,-8.2186,-8.2186,-8.2186,-8.2186,-8.2186,-8.2186,-8.2186,-8.2553,-8.3398,-8.4168,-8.4976,-8.5783,-8.6591,-8.6995,-8.6995,-8.6995,-8.6995,-8.6995,-8.6995,-8.6995,-8.6995,-8.6995,-8.6995,-8.6995,-8.6995,-8.6995,-8.6995,-8.6995,-8.6995,-8.6995,-8.6995,-8.6995,-8.6995,-8.6995,-8.6995,-8.6995,-8.6995,-8.6247,-8.5278,-8.5278,-8.4492,-8.3621,-8.3621,-8.3321,-8.2706,-8.1569,-8.0755,-8.0209,-8.0209,-8.0209,-8.0209,-8.0209,-8.0784,-8.1426,-8.19,-8.2813,-8.3659,-8.4133,-8.4437,-8.464,-8.464,-8.464,-8.464,-8.464,-8.464,-8.464,-8.464,-8.464,-8.464,-8.464,-8.464,-8.464,-8.464,-8.464,-8.464,-8.464,-8.464,-8.464,-8.464,-8.464,-8.464,-8.464,-8.464,-8.464,-8.464,-8.464,-8.464,-6.4205,-6.582,-6.7667,-6.9937,-7.1321,-7.2322,-7.3206,-7.4284,-7.5361,-7.6245,-7.6782,-7.7117,-7.7111,-7.7361,-7.754,-7.7335,-7.7273,-7.7598,-7.8479,-7.9286,-8.0094,-8.0901,-8.1709,-8.2186,-8.2186,-8.2186,-8.2186,-8.2186,-8.2186,-8.2186,-8.2186,-8.2186,-8.27,-8.3765,-8.4315,-8.5123,-8.6151,-8.6738,-8.6995,-8.6995,-8.6995,-8.6995,-8.6995,-8.6995,-8.6995,-8.6995,-8.6995,-8.6995,-8.6995,-8.6995,-8.6995,-8.6995,-8.6995,-8.6995,-8.6995,-8.6995,-8.6995,-8.6995,-8.6995,-8.6995,-8.6995,-8.6995,-8.6464,-8.5843,-8.5843,-8.5314,-8.4653,-8.4653,-8.4411,-8.3922,-8.3155,-8.2106,-8.127,-8.127,-8.127,-8.1338,-8.1627,-8.1938,-8.2426,-8.3176,-8.3634,-8.4031,-8.4539,-8.464,-8.464,-8.464,-8.464,-8.464,-8.464,-8.464,-8.464,-8.464,-8.464,-8.464,-8.464,-8.464,-8.464,-8.464,-8.464,-8.464,-8.464,-8.464,-8.464,-8.464,-8.464,-8.464,-8.464,-8.464,-8.464,-8.464,-8.464,-8.464,-6.4359,-6.709,-6.9706,-6.9744,-7.2245,-7.4938,-7.5822,-7.6015,-7.6245,-7.713,-7.816,-7.8588,-7.7503,-7.7817,-7.8063,-7.7426,-7.731,-7.7604,-7.8479,-7.9286,-8.0094,-8.0938,-8.1709,-8.2186,-8.2186,-8.2186,-8.2186,-8.2186,-8.2186,-8.2186,-8.2186,-8.2186,-8.2957,-8.4535,-8.4609,-8.538,-8.6995,-8.6995,-8.6995,-8.6995,-8.6995,-8.6995,-8.6995,-8.6995,-8.6995,-8.6995,-8.6995,-8.6995,-8.6995,-8.6995,-8.6995,-8.6995,-8.6995,-8.6995,-8.6995,-8.6995,-8.6995,-8.6995,-8.6995,-8.6995,-8.6995,-8.6995,-8.6995,-8.6995,-8.6995,-8.6995,-8.6995,-8.6995,-8.6211,-8.5317,-8.5317,-8.4492,-8.3663,-8.3621,-8.3621,-8.3833,-8.462,-8.4457,-8.437,-8.5132,-8.4933,-8.4606,-8.4606,-8.4606,-8.464,-8.464,-8.464,-8.464,-8.464,-8.464,-8.464,-8.464,-8.464,-8.464,-8.464,-8.464,-8.464,-8.464,-8.464,-8.464,-8.464,-8.464,-8.464,-8.464,-8.464,-8.464,-8.464,-8.464,-8.464,-8.464,-8.464,-8.464,-6.5128,-6.7128,-6.936,-7.1783,-7.3129,-7.4399,-7.6438,-7.6899,-7.7077,-7.7606,-7.8479,-7.8733,-7.7526,-7.745,-7.754,-7.7335,-7.7818,-7.8516,-7.9323,-8.0131,-8.0938,-8.1746,-8.2039,-8.2186,-8.2186,-8.2186,-8.2186,-8.2186,-8.2186,-8.2186,-8.2186,-8.2737,-8.3544,-8.4572,-8.5159,-8.593,-8.6995,-8.6995,-8.6995,-8.6995,-8.6995,-8.6995,-8.6995,-8.6995,-8.6995,-8.6995,-8.6995,-8.6995,-8.6995,-8.6995,-8.6995,-8.6995,-8.6995,-8.6995,-8.6995,-8.6995,-8.6995,-8.6995,-8.6995,-8.6995,-8.6995,-8.6995,-8.6995,-8.6995,-8.6995,-8.6995,-8.6995,-8.6995,-8.6749,-8.65,-8.65,-8.6247,-8.5618,-8.4,-8.401,-8.4513,-8.4726,-8.5561,-8.628,-8.6526,-8.6198,-8.5887,-8.5887,-8.517,-8.464,-8.464,-8.464,-8.464,-8.464,-8.464,-8.464,-8.464,-8.464,-8.464,-8.464,-8.464,-8.464,-8.464,-8.464,-8.464,-8.464,-8.464,-8.464,-8.464,-8.464,-8.464,-8.464,-8.464,-8.464,-8.464,-8.464,-8.464,-6.5436,-6.7398,-6.959,-7.2283,-7.3476,-7.463,-7.7207,-7.7854,-7.8038,-7.8359,-7.8821,-7.8816,-7.7503,-7.751,-7.774,-7.7776,-7.8259,-7.8993,-8.0131,-8.0681,-8.1305,-8.2113,-8.2186,-8.2186,-8.2186,-8.2186,-8.2186,-8.2186,-8.2186,-8.2186,-8.2186,-8.2957,-8.3765,-8.4572,-8.538,-8.6187,-8.6995,-8.6995,-8.6995,-8.6995,-8.6995,-8.6995,-8.6995,-8.6995,-8.6995,-8.6995,-8.6995,-8.6995,-8.6995,-8.6995,-8.6995,-8.6995,-8.6995,-8.6995,-8.6995,-8.6995,-8.6995,-8.6995,-8.6995,-8.6995,-8.6995,-8.6995,-8.6995,-8.6995,-8.6995,-8.6995,-8.6995,-8.6995,-8.6995,-8.6995,-8.6995,-8.7252,-8.7154,-8.5747,-8.5794,-8.6337,-8.6985,-8.7443,-8.7857,-8.8178,-8.7634,-8.6961,-8.6512,-8.5786,-8.5344,-8.5344,-8.5684,-8.6037,-8.6087,-8.5617,-8.5515,-8.5987,-8.517,-8.4785,-8.5292,-8.489,-8.464,-8.464,-8.464,-8.464,-8.464,-8.464,-8.464,-8.464,-8.464,-8.464,-8.464,-8.464,-8.464,-8.464,-8.464,-8.464,-6.532,-6.7628,-7.0014,-7.1745,-7.363,-7.5668,-7.7977,-7.8717,-7.8955,-7.9162,-7.9152,-7.8741,-7.754,-7.7834,-7.8387,-7.8566,-7.8736,-7.9323,-8.0791,-8.1048,-8.1379,-8.2113,-8.2186,-8.2186,-8.2186,-8.2186,-8.2186,-8.2186,-8.2186,-8.2186,-8.2186,-8.303,-8.3838,-8.4572,-8.5453,-8.6261,-8.6995,-8.6995,-8.6995,-8.6995,-8.6995,-8.6995,-8.6995,-8.6995,-8.6995,-8.6995,-8.6995,-8.6995,-8.6995,-8.6995,-8.6995,-8.6995,-8.6995,-8.6995,-8.6995,-8.6995,-8.6995,-8.6995,-8.6995,-8.6995,-8.6995,-8.6995,-8.6995,-8.6995,-8.6995,-8.6995,-8.6995,-8.6995,-8.6995,-8.7031,-8.7105,-8.7655,-8.8243,-8.839,-8.8426,-8.883,-9.0298,-8.9778,-8.9296,-9.0019,-8.9221,-8.7998,-8.6913,-8.6623,-8.6526,-8.6526,-8.7492,-8.8223,-8.8259,-8.7293,-8.7008,-8.8088,-8.6252,-8.5344,-8.6316,-8.5361,-8.4713,-8.4606,-8.464,-8.464,-8.464,-8.464,-8.464,-8.464,-8.464,-8.464,-8.464,-8.464,-8.464,-8.464,-8.464,-8.464,-6.4589,-6.6744,-6.9244,-7.1591,-7.4938,-7.7823,-7.8361,-7.8847,-7.9131,-7.9184,-7.8829,-7.8255,-7.742,-7.7978,-7.8547,-7.8583,-7.9653,-8.0608,-8.0938,-8.1525,-8.2003,-8.2186,-8.2186,-8.2186,-8.2186,-8.2186,-8.2186,-8.2186,-8.2186,-8.2186,-8.2186,-8.3544,-8.4425,-8.4609,-8.6004,-8.6811,-8.6995,-8.6995,-8.6995,-8.6995,-8.6995,-8.6995,-8.6995,-8.6995,-8.6995,-8.6995,-8.6995,-8.6995,-8.6995,-8.6995,-8.6995,-8.6995,-8.6995,-8.6995,-8.6995,-8.6995,-8.6995,-8.6995,-8.6995,-8.6995,-8.6995,-8.6995,-8.6995,-8.6995,-8.6995,-8.6995,-8.6995,-8.6995,-8.6995,-8.7142,-8.7766,-8.8059,-8.8536,-8.9784,-9.0078,-9.0188,-9.0519,-9.0887,-9.1178,-9.1361,-9.0443,-8.9516,-8.927,-8.8446,-8.7815,-8.7815,-8.8043,-8.8223,-8.8223,-8.7998,-8.7906,-8.8178,-8.7723,-8.7151,-8.6463,-8.6152,-8.5617,-8.466,-8.464,-8.464,-8.464,-8.464,-8.464,-8.464,-8.464,-8.464,-8.464,-8.464,-8.464,-8.464,-8.464,-8.464,-6.4359,-6.6474,-6.9129,-7.2091,-7.5668,-7.8477,-7.8477,-7.8866,-7.9198,-7.9198,-7.8447,-7.771,-7.7365,-7.8002,-7.8736,-7.9103,-8.0204,-8.1122,-8.1525,-8.1929,-8.2186,-8.2186,-8.2186,-8.2186,-8.2186,-8.2186,-8.2186,-8.2186,-8.2186,-8.2186,-8.2186,-8.3728,-8.4609,-8.4609,-8.6187,-8.6995,-8.6995,-8.6995,-8.6995,-8.6995,-8.6995,-8.6995,-8.6995,-8.6995,-8.6995,-8.6995,-8.6995,-8.6995,-8.6995,-8.6995,-8.6995,-8.6995,-8.6995,-8.6995,-8.6995,-8.6995,-8.6995,-8.6995,-8.6995,-8.6995,-8.6995,-8.6995,-8.6995,-8.6995,-8.6995,-8.6995,-8.7105,-8.7472,-8.7582,-8.7766,-8.8573,-8.905,-8.9564,-9.0408,-9.0592,-9.0702,-9.1106,-9.151,-9.1803,-9.1803,-9.1286,-9.0676,-9.0087,-8.9474,-8.9057,-8.9057,-8.9558,-8.9924,-8.9924,-8.9432,-8.9306,-8.9883,-8.8884,-8.8178,-8.8133,-8.7069,-8.6152,-8.5515,-8.4943,-8.464,-8.464,-8.464,-8.464,-8.464,-8.464,-8.464,-8.464,-8.464,-8.464,-8.464,-8.464,-8.464,-6.4128,-6.6474,-6.9398,-7.2692,-7.5784,-7.813,-7.8438,-7.8752,-7.901,-7.916,-7.819,-7.7273,-7.7273,-7.8148,-7.9029,-7.969,-8.0571,-8.1452,-8.2113,-8.2186,-8.2186,-8.2186,-8.2186,-8.2186,-8.2186,-8.2186,-8.2186,-8.2186,-8.2186,-8.2186,-8.2186,-8.3728,-8.4609,-8.4609,-8.6187,-8.6995,-8.6995,-8.6995,-8.6995,-8.6995,-8.6995,-8.6995,-8.6995,-8.6995,-8.6995,-8.6995,-8.6995,-8.6995,-8.6995,-8.6995,-8.6995,-8.6995,-8.6995,-8.6995,-8.6995,-8.6995,-8.6995,-8.6995,-8.6995,-8.6995,-8.6995,-8.6995,-8.6995,-8.6995,-8.6995,-8.7105,-8.7362,-8.8023,-8.8316,-8.861,-8.9417,-9.0115,-9.0629,-9.0776,-9.0812,-9.0996,-9.1657,-9.1803,-9.1803,-9.1803,-9.1803,-9.1472,-9.0483,-9.0324,-9.0324,-9.0324,-9.1173,-9.1803,-9.1803,-9.0945,-9.0676,-9.1694,-9.0006,-8.9142,-8.9924,-8.8178,-8.6865,-8.6414,-8.5464,-8.4785,-8.4606,-8.464,-8.464,-8.464,-8.464,-8.464,-8.464,-8.464,-8.464,-8.464,-8.464,-8.464,-6.3243,-6.6436,-7.0167,-7.2822,-7.4938,-7.6707,-7.8169,-7.8294,-7.827,-7.9047,-7.819,-7.7273,-7.7273,-7.8589,-7.9653,-7.9764,-8.1048,-8.2076,-8.2186,-8.2186,-8.2186,-8.2186,-8.2186,-8.2186,-8.2186,-8.2186,-8.2186,-8.2186,-8.2186,-8.2186,-8.2186,-8.3728,-8.4609,-8.4609,-8.6187,-8.6995,-8.6995,-8.6995,-8.6995,-8.6995,-8.6995,-8.6995,-8.6995,-8.6995,-8.6995,-8.6995,-8.6995,-8.6995,-8.6995,-8.6995,-8.6995,-8.6995,-8.6995,-8.6995,-8.6995,-8.6995,-8.6995,-8.6995,-8.6995,-8.6995,-8.6995,-8.6995,-8.6995,-8.6995,-8.6995,-8.7509,-8.8059,-8.8169,-8.872,-8.9454,-9.0225,-9.0519,-9.0776,-9.1473,-9.1657,-9.1657,-9.1767,-9.1803,-9.1803,-9.1803,-9.1803,-9.1767,-9.1583,-9.1583,-9.1583,-9.1583,-9.1694,-9.1803,-9.1803,-9.1657,-9.162,-9.1803,-9.1509,-9.0945,-9.0046,-8.9683,-8.8623,-8.6561,-8.6217,-8.5684,-8.4606,-8.464,-8.464,-8.464,-8.464,-8.464,-8.464,-8.464,-8.464,-8.464,-8.464,-8.464,-6.482,-6.7513,-7.0321,-7.286,-7.4745,-7.6438,-7.813,-7.8479,-7.8614,-7.9078,-7.8473,-7.7739,-7.7365,-7.8295,-7.9286,-7.9727,-8.0755,-8.1672,-8.215,-8.2186,-8.2186,-8.2186,-8.2186,-8.2186,-8.2186,-8.2186,-8.2186,-8.2186,-8.2186,-8.2186,-8.2186,-8.3728,-8.4609,-8.4609,-8.6187,-8.6995,-8.6995,-8.6995,-8.6995,-8.6995,-8.6995,-8.6995,-8.6995,-8.6995,-8.6995,-8.6995,-8.6995,-8.6995,-8.6995,-8.6995,-8.6995,-8.6995,-8.6995,-8.6995,-8.6995,-8.6995,-8.6995,-8.6995,-8.6995,-8.6995,-8.6995,-8.6995,-8.7325,-8.7655,-8.7655,-8.8243,-8.8977,-8.9417,-8.9821,-9.0262,-9.1069,-9.1253,-9.1363,-9.173,-9.1803,-9.1803,-9.1803,-9.1803,-9.1803,-9.1803,-9.1803,-9.1803,-9.1803,-9.1803,-9.1803,-9.1803,-9.1803,-9.1803,-9.1803,-9.1803,-9.1803,-9.1803,-9.1803,-9.1583,-9.1022,-9.044,-8.9594,-8.8526,-8.7769,-8.7198,-8.6658,-8.5987,-8.5617,-8.5617,-8.4943,-8.464,-8.464,-8.464,-8.464,-8.464,-8.464,-8.464,-6.5667,-6.7705,-6.9667,-7.2206,-7.413,-7.5784,-7.7476,-7.8216,-7.8635,-7.8822,-7.8579,-7.8128,-7.7426,-7.8002,-7.8809,-7.9396,-8.0167,-8.0975,-8.1782,-8.1893,-8.1966,-8.2186,-8.2186,-8.2186,-8.2186,-8.2186,-8.2186,-8.2186,-8.2186,-8.2186,-8.2186,-8.3728,-8.4609,-8.4609,-8.6187,-8.6995,-8.6995,-8.6995,-8.6995,-8.6995,-8.6995,-8.6995,-8.6995,-8.6995,-8.6995,-8.6995,-8.6995,-8.6995,-8.6995,-8.6995,-8.6995,-8.6995,-8.6995,-8.6995,-8.6995,-8.6995,-8.6995,-8.7031,-8.7252,-8.7325,-8.7362,-8.7545,-8.8023,-8.85,-8.85,-8.9087,-8.9858,-9.0445,-9.0739,-9.1033,-9.1657,-9.1803,-9.1803,-9.1803,-9.1803,-9.1803,-9.1803,-9.1803,-9.1803,-9.1803,-9.1803,-9.1803,-9.1803,-9.1803,-9.1803,-9.1803,-9.1803,-9.1803,-9.1803,-9.1803,-9.1803,-9.1803,-9.1803,-9.1803,-9.1803,-9.102,-9.0397,-9.0078,-8.9178,-8.8535,-8.8223,-8.7305,-8.672,-8.6414,-8.5515,-8.489,-8.464,-8.464,-8.464,-8.464,-8.464,-8.464,-6.4243,-6.5974,-6.7859,-7.0398,-7.236,-7.4091,-7.5745,-7.6935,-7.7701,-7.793,-7.8141,-7.8128,-7.7426,-7.8002,-7.8589,-7.8662,-7.9323,-8.0131,-8.0938,-8.1048,-8.1342,-8.2113,-8.2186,-8.2186,-8.2186,-8.2186,-8.2186,-8.2186,-8.2186,-8.2186,-8.2186,-8.3728,-8.4609,-8.4609,-8.6187,-8.6995,-8.6995,-8.6995,-8.6995,-8.6995,-8.6995,-8.6995,-8.6995,-8.6995,-8.6995,-8.6995,-8.6995,-8.6995,-8.6995,-8.6995,-8.6995,-8.6995,-8.6995,-8.6995,-8.6995,-8.6995,-8.6995,-8.7105,-8.7876,-8.8133,-8.828,-8.905,-8.9272,-8.9344,-8.9344,-8.9895,-9.0555,-9.0592,-9.1143,-9.173,-9.1803,-9.1803,-9.1803,-9.1803,-9.1803,-9.1803,-9.1803,-9.1803,-9.1803,-9.1803,-9.1803,-9.1803,-9.1803,-9.1803,-9.1803,-9.1803,-9.1803,-9.1803,-9.1803,-9.1803,-9.1803,-9.1803,-9.1803,-9.1803,-9.1803,-9.1767,-9.1211,-9.0046,-8.9924,-8.939,-8.8223,-8.8133,-8.7585,-8.6414,-8.6316,-8.5735,-8.464,-8.464,-8.464,-8.464,-8.464,-8.464,-6.3474,-6.5013,-6.6936,-6.9475,-7.0975,-7.2552,-7.5361,-7.6279,-7.6832,-7.7716,-7.797,-7.7889,-7.737,-7.753,-7.7965,-7.8516,-7.8846,-7.9286,-8.0131,-8.0241,-8.0534,-8.1342,-8.1415,-8.1636,-8.215,-8.2186,-8.2186,-8.2186,-8.2186,-8.2186,-8.2186,-8.3728,-8.4609,-8.4609,-8.6187,-8.6995,-8.6995,-8.6995,-8.6995,-8.6995,-8.6995,-8.6995,-8.6995,-8.6995,-8.6995,-8.7031,-8.7545,-8.7472,-8.6995,-8.6995,-8.6995,-8.7068,-8.7582,-8.7766,-8.7839,-8.8353,-8.8573,-8.861,-8.8867,-8.8977,-8.905,-8.9344,-8.9784,-9.0188,-9.0188,-9.0739,-9.1363,-9.1363,-9.1583,-9.1803,-9.1803,-9.1803,-9.1803,-9.1803,-9.1803,-9.1803,-9.1803,-9.1803,-9.1803,-9.1803,-9.1803,-9.1803,-9.1803,-9.1803,-9.1803,-9.1803,-9.1803,-9.1803,-9.1803,-9.1803,-9.1803,-9.1803,-9.1803,-9.1803,-9.1803,-9.1803,-9.162,-9.1173,-9.1173,-9.0945,-9.0559,-8.9801,-8.9142,-8.871,-8.7163,-8.5786,-8.464,-8.464,-8.464,-8.464,-8.464,-8.464,-6.2666,-6.4166,-6.5936,-6.7936,-6.9667,-7.1475,-7.3783,-7.5027,-7.5855,-7.6522,-7.7203,-7.7466,-7.6994,-7.709,-7.7494,-7.8075,-7.8185,-7.8442,-7.9286,-7.9396,-7.969,-8.0498,-8.0608,-8.0901,-8.1709,-8.1782,-8.1893,-8.2186,-8.2186,-8.2186,-8.2186,-8.3728,-8.4866,-8.538,-8.6444,-8.6995,-8.6995,-8.6995,-8.6995,-8.6995,-8.6995,-8.6995,-8.7031,-8.7288,-8.7399,-8.7472,-8.8243,-8.8169,-8.7435,-8.7692,-8.7839,-8.7876,-8.839,-8.861,-8.8683,-8.9234,-8.9382,-8.9419,-8.9711,-8.9821,-8.9858,-9.0115,-9.0592,-9.0996,-9.0996,-9.1363,-9.1803,-9.1803,-9.1803,-9.1803,-9.1803,-9.1803,-9.1803,-9.1803,-9.1803,-9.1803,-9.1803,-9.1803,-9.1803,-9.1803,-9.1803,-9.1803,-9.1803,-9.1803,-9.1803,-9.1803,-9.1803,-9.1803,-9.1803,-9.1803,-9.1803,-9.1803,-9.1803,-9.1803,-9.1803,-9.1803,-9.1803,-9.1803,-9.1803,-9.1803,-9.1803,-9.1022,-9.0404,-9.0006,-8.8043,-8.6414,-8.5188,-8.4785,-8.464,-8.464,-8.464,-8.464,0.0,0.0,0.0,-6.5628,-6.8321,-7.0821,-7.0898,-7.3022,-7.4809,-7.4304,-7.5705,-7.6844,-7.6169,-7.6717,-7.7237,-7.7237,-7.7273,-7.7598,-7.8442,-7.8552,-7.8846,-7.9653,-7.9764,-8.0057,-8.0901,-8.1012,-8.1342,-8.2113,-8.2186,-8.2186,-8.2186,-8.3728,-8.5343,-8.6958,-8.6995,-8.6995,-8.6995,-8.6995,-8.6995,-8.6995,-8.6995,-8.7031,-8.7068,-8.7839,-8.8206,-8.828,-8.9087,-8.9014,-8.8316,-8.9087,-8.9382,-8.9382,-8.9419,-8.9419,-8.9419,-8.9455,-8.9455,-8.9565,-9.0372,-9.0629,-9.0776,-9.1546,-9.1803,-9.1803,-9.1803,-9.1803,-9.1803,-9.1803,-9.1803,-9.1803,-9.1803,-9.1803,-9.1803,-9.1803,-9.1803,-9.1803,-9.1803,-9.1803,-9.1803,-9.1803,-9.1803,-9.1803,-9.1803,-9.1803,-9.1803,-9.1803,-9.1803,-9.1803,-9.1803,-9.1803,-9.1803,-9.1803,-9.1803,-9.1803,-9.1803,-9.1803,-9.1803,-9.1803,-9.1803,-9.1803,-9.1803,-9.1803,-9.1249,-9.0046,-8.892,-8.7712,-8.6463,-8.5222,-8.464,-8.464,-8.464,-8.464,-6.1089,0.0,0.0,0.0,0.0,0.0,-7.0475,-7.1507,-7.2483,-7.3914,-7.4644,-7.5059,-7.519,-7.5909,-7.6423,-7.6423,-7.6937,-7.7384,-7.7635,-7.7671,-7.8002,-7.8809,-7.8919,-7.925,-8.0057,-8.0645,-8.1085,-8.1342,-8.1856,-8.2186,-8.2186,-8.3728,-8.5343,-8.6958,-8.6995,-8.6995,-8.6995,-8.6995,-8.6995,-8.6995,-8.6995,-8.7325,-8.7876,-8.8096,-8.8536,-8.9124,-8.9931,-9.0152,-8.9931,-8.9564,-8.9382,-8.9455,-9.0041,-9.0298,-9.0335,-9.0922,-9.1143,-9.1179,-9.14,-9.1473,-9.151,-9.173,-9.1803,-9.1803,-9.1803,-9.1803,-9.1803,-9.1803,-9.1803,-9.1803,-9.1803,-9.1803,-9.1803,-9.1803,-9.1803,-9.1803,-9.1803,-9.1803,-9.1803,-9.1803,-9.1803,-9.1803,-9.1803,-9.1803,-9.1803,-9.1803,-9.1803,-9.1803,-9.1803,-9.1803,-9.1803,-9.1803,-9.1803,-9.1803,-9.1803,-9.1803,-9.1803,-9.1803,-9.1803,-9.1803,-9.1803,-9.1803,-9.1657,-9.1286,-9.0164,-8.8963,-8.7677,-8.5617,-8.464,-8.464,-8.464,-8.464,-6.0896,-6.1781,-6.3012,-6.3858,0.0,0.0,-6.9088,-6.9865,-7.0583,-7.2024,-7.2964,-7.3587,-7.3852,-7.4845,-7.5616,-7.5616,-7.6019,-7.6503,-7.72,-7.7273,-7.7494,-7.8002,-7.8075,-7.8369,-7.9213,-7.9727,-8.0277,-8.0938,-8.1415,-8.2003,-8.2663,-8.3911,-8.5196,-8.6481,-8.6811,-8.6995,-8.6995,-8.6995,-8.6995,-8.6995,-8.7362,-8.7766,-8.8206,-8.8904,-8.9454,-8.9968,-9.0739,-9.1106,-9.1069,-9.0592,-9.0408,-9.0445,-9.0922,-9.1106,-9.1179,-9.162,-9.1803,-9.1803,-9.1803,-9.1803,-9.1803,-9.1803,-9.1803,-9.1803,-9.1803,-9.1803,-9.1803,-9.1803,-9.1803,-9.1803,-9.1803,-9.1803,-9.1803,-9.1803,-9.1803,-9.1803,-9.1803,-9.1803,-9.1803,-9.1803,-9.1803,-9.1803,-9.1803,-9.1803,-9.1803,-9.1803,-9.1803,-9.1803,-9.1803,-9.1803,-9.1803,-9.1803,-9.1803,-9.1803,-9.1803,-9.1803,-9.1803,-9.1803,-9.1803,-9.1803,-9.1803,-9.1803,-9.1803,-9.1803,-9.0637,-8.939,-8.8178,-8.6301,-8.5118,-8.464,-8.464,-8.464,-6.1166,-6.1524,-6.2293,-6.2974,-6.4474,0.0,-6.7148,-6.82,-6.9083,-6.9521,-7.1005,-7.2226,-7.2197,-7.3492,-7.4603,-7.4625,-7.4735,-7.5359,-7.6943,-7.7163,-7.72,-7.7273,-7.7273,-7.7598,-7.8369,-7.8552,-7.9176,-8.0645,-8.0901,-8.1709,-8.3324,-8.4168,-8.4976,-8.5747,-8.6591,-8.6995,-8.6995,-8.6995,-8.6995,-8.7031,-8.7839,-8.8243,-8.839,-8.9931,-9.0665,-9.0776,-9.1473,-9.1803,-9.1803,-9.1803,-9.1803,-9.1803,-9.1803,-9.1803,-9.1803,-9.1803,-9.1803,-9.1803,-9.1803,-9.1803,-9.1803,-9.1803,-9.1803,-9.1803,-9.1803,-9.1803,-9.1803,-9.1803,-9.1803,-9.1803,-9.1803,-9.1803,-9.1803,-9.1803,-9.1803,-9.1803,-9.1803,-9.1803,-9.1803,-9.1803,-9.1803,-9.1803,-9.1803,-9.1803,-9.1803,-9.1803,-9.1803,-9.1803,-9.1803,-9.1803,-9.1803,-9.1803,-9.1803,-9.1803,-9.1803,-9.1803,-9.1803,-9.1803,-9.1803,-9.1803,-9.1803,-9.1803,-9.1803,-9.1803,-9.0637,-8.9474,-8.8402,-8.7163,-8.5953,-8.4785,-8.4785,-8.4713,-6.205,-6.1985,-6.2139,-6.2281,-6.3589,0.0,-6.5999,-6.6877,-6.7776,-6.8765,-6.9835,-7.0499,-7.0202,-7.1513,-7.269,-7.2912,-7.3523,-7.4515,-7.613,-7.635,-7.657,-7.72,-7.7273,-7.7347,-7.7561,-7.8185,-7.8736,-7.9029,-8.0277,-8.1709,-8.3324,-8.4168,-8.4976,-8.5747,-8.6591,-8.6995,-8.6995,-8.6995,-8.6995,-8.7031,-8.7839,-8.8536,-8.9197,-9.0188,-9.0959,-9.1583,-9.173,-9.1803,-9.1803,-9.1803,-9.1803,-9.1803,-9.1803,-9.1803,-9.1803,-9.1803,-9.1803,-9.1803,-9.1803,-9.1803,-9.1803,-9.1803,-9.1803,-9.1803,-9.1803,-9.1803,-9.1803,-9.1803,-9.1803,-9.1803,-9.1803,-9.1803,-9.1803,-9.1803,-9.1803,-9.1803,-9.1803,-9.1803,-9.1803,-9.1803,-9.1803,-9.1803,-9.1803,-9.1803,-9.1803,-9.1803,-9.1803,-9.1803,-9.1803,-9.1803,-9.1803,-9.1803,-9.1803,-9.1803,-9.1803,-9.1803,-9.1803,-9.1803,-9.1803,-9.1803,-9.1803,-9.1803,-9.1803,-9.1803,-9.0637,-8.9883,-8.9641,-8.8446,-8.7246,-8.6053,-8.6053,-8.5515,-6.3666,-6.3012,-6.2781,-6.3243,-6.3974,0.0,0.0,-6.6418,-6.6912,-6.7668,-6.847,-6.9053,-6.9015,-7.004,-7.0956,-7.125,-7.1651,-7.2312,-7.356,-7.4735,-7.5799,-7.6607,-7.6717,-7.6864,-7.7237,-7.7708,-7.8148,-7.8552,-8.0094,-8.1342,-8.2186,-8.3361,-8.4389,-8.5159,-8.5967,-8.6591,-8.6995,-8.6995,-8.7215,-8.7619,-8.8426,-8.9234,-9.0041,-9.0849,-9.1436,-9.1803,-9.1803,-9.1803,-9.1803,-9.1803,-9.1803,-9.1803,-9.1803,-9.1803,-9.1803,-9.1803,-9.1803,-9.1803,-9.1803,-9.1803,-9.1803,-9.1803,-9.1803,-9.1803,-9.1803,-9.1803,-9.1803,-9.1803,-9.1803,-9.1803,-9.1803,-9.1803,-9.1803,-9.1803,-9.1803,-9.1803,-9.1803,-9.1803,-9.1803,-9.1803,-9.1803,-9.1803,-9.1803,-9.1803,-9.1803,-9.1803,-9.1803,-9.1803,-9.1803,-9.1803,-9.1803,-9.1803,-9.1803,-9.1803,-9.1803,-9.1803,-9.1803,-9.1803,-9.1803,-9.1803,-9.1803,-9.1803,-9.1803,-9.1803,-9.1211,-9.0907,-9.0907,-9.0284,-8.9057,-8.7305,-8.7305,-8.6961,-6.5743,-6.4474,-6.3743,-6.4436,-6.4589,-6.4859,0.0,0.0,0.0,-6.6574,-6.7203,-6.7723,-6.7823,-6.8436,-6.8952,-6.8934,-6.9192,-6.9633,-7.0293,-7.2349,-7.4221,-7.5506,-7.5763,-7.6203,-7.698,-7.72,-7.7671,-7.8516,-7.9947,-8.0828,-8.1012,-8.2553,-8.3765,-8.4572,-8.538,-8.6187,-8.6995,-8.6995,-8.7399,-8.8206,-8.905,-8.9821,-9.0629,-9.1436,-9.1803,-9.1803,-9.1803,-9.1803,-9.1803,-9.1803,-9.1803,-9.1803,-9.1803,-9.1803,-9.1803,-9.1803,-9.1803,-9.1803,-9.1803,-9.1803,-9.1803,-9.1803,-9.1803,-9.1803,-9.1803,-9.1803,-9.1803,-9.1803,-9.1803,-9.1803,-9.1803,-9.1803,-9.1803,-9.1803,-9.1803,-9.1803,-9.1803,-9.1803,-9.1803,-9.1803,-9.1803,-9.1803,-9.1803,-9.1803,-9.1803,-9.1803,-9.1803,-9.1803,-9.1803,-9.1803,-9.1803,-9.1803,-9.1803,-9.1803,-9.1803,-9.1803,-9.1803,-9.1803,-9.1803,-9.1803,-9.1803,-9.1803,-9.1803,-9.1803,-9.1803,-9.1803,-9.1803,-9.1803,-9.0676,-8.8535,-8.8535,-8.8402,-6.8244,-6.6244,-6.4474,-6.4589,-6.4589,-6.4615,-6.477,0.0,-6.5935,-6.5972,0.0,-6.6446,-6.6011,0.0,0.0,-6.4988,-6.5962,-6.6953,-6.7026,-6.8531,-7.066,-7.3597,-7.4588,-7.5359,-7.6166,-7.687,-7.7671,-7.8516,-7.9433,-8.0241,-8.0975,-8.2553,-8.3765,-8.4572,-8.538,-8.6187,-8.6995,-8.6995,-8.7399,-8.8206,-8.905,-8.9821,-9.0629,-9.1436,-9.1803,-9.1803,-9.1803,-9.1803,-9.1803,-9.1803,-9.1803,-9.1803,-9.1803,-9.1803,-9.1803,-9.1803,-9.1803,-9.1803,-9.1803,-9.1803,-9.1803,-9.1803,-9.1803,-9.1803,-9.1803,-9.1803,-9.1803,-9.1803,-9.1803,-9.1803,-9.1803,-9.1803,-9.1803,-9.1803,-9.1803,-9.1803,-9.1803,-9.1803,-9.1803,-9.1803,-9.1803,-9.1803,-9.1803,-9.1803,-9.1803,-9.1803,-9.1803,-9.1803,-9.1803,-9.1803,-9.1803,-9.1803,-9.1803,-9.1803,-9.1803,-9.1803,-9.1803,-9.1803,-9.1803,-9.1803,-9.1803,-9.1803,-9.1803,-9.1803,-9.1803,-9.1803,-9.1803,-9.1803,-9.1135,-8.9801,-8.9801,-8.9221,-7.1591,-6.986,-6.8129,-6.7667,-6.7552,-6.7436,-6.6936,-6.6705,-6.6538,-6.6241,0.0,0.0,0.0,0.0,0.0,0.0,-6.5375,-6.5815,-6.5815,-6.6806,-6.8715,-7.1945,-7.301,-7.4184,-7.5946,-7.6423,-7.6974,-7.7781,-7.8626,-7.9433,-8.0241,-8.1379,-8.281,-8.4535,-8.4939,-8.571,-8.6995,-8.6995,-8.7655,-8.8904,-8.9271,-9.0078,-9.1326,-9.1657,-9.1803,-9.1803,-9.1803,-9.1803,-9.1803,-9.1803,-9.1803,-9.1803,-9.1803,-9.1803,-9.1803,-9.1803,-9.1803,-9.1803,-9.1803,-9.1803,-9.1803,-9.1803,-9.1803,-9.1803,-9.1803,-9.1803,-9.1803,-9.1803,-9.1803,-9.1803,-9.1803,-9.1803,-9.1803,-9.1803,-9.1803,-9.1803,-9.1803,-9.1803,-9.1803,-9.1803,-9.1803,-9.1803,-9.1803,-9.1803,-9.1803,-9.1803,-9.1803,-9.1803,-9.1803,-9.1803,-9.1803,-9.1803,-9.1803,-9.1803,-9.1803,-9.1803,-9.1803,-9.1803,-9.1803,-9.1803,-9.1803,-9.1803,-9.1803,-9.1803,-9.1803,-9.1803,-9.1803,-9.1803,-9.1509,-9.1022,-9.1022,-9.0754,-7.4213,-7.2798,-7.1437,-7.0591,-7.0052,-6.9513,-6.8898,-6.809,-6.7293,-6.6704,-6.5994,0.0,0.0,0.0,0.0,0.0,0.0,-6.4127,-6.3686,-6.453,0.0,0.0,0.0,-7.2973,-7.4918,-7.5726,-7.635,-7.6937,-7.8002,-7.8956,-7.9764,-8.0571,-8.2003,-8.4205,-8.4499,-8.527,-8.6664,-8.6885,-8.7839,-8.9382,-8.9382,-9.0262,-9.1803,-9.1803,-9.1803,-9.1803,-9.1803,-9.1803,-9.1803,-9.1803,-9.1803,-9.1803,-9.1803,-9.1803,-9.1803,-9.1803,-9.1803,-9.1803,-9.1803,-9.1803,-9.1803,-9.1803,-9.1803,-9.1803,-9.1803,-9.1803,-9.1803,-9.1803,-9.1803,-9.1803,-9.1803,-9.1803,-9.1803,-9.1803,-9.1803,-9.1803,-9.1803,-9.1803,-9.1803,-9.1803,-9.1803,-9.1803,-9.1803,-9.1803,-9.1803,-9.1803,-9.1803,-9.1803,-9.1803,-9.1803,-9.1803,-9.1803,-9.1803,-9.1803,-9.1803,-9.1803,-9.1803,-9.1803,-9.1803,-9.1803,-9.1803,-9.1803,-9.1803,-9.1803,-9.1803,-9.1803,-9.1803,-9.1803,-9.1803,-9.1803,-9.1803,-9.1803,-7.5427,-7.4254,-7.3206,-7.2322,-7.0898,-6.9706,-6.9667,-6.8975,-6.8115,-6.7231,-6.6672,-6.6091,-6.5258,0.0,0.0,0.0,0.0,0.0,0.0,0.0,0.0,0.0,0.0,0.0,0.0,-7.4735,-7.6093,-7.613,-7.7671,-7.8956,-7.9764,-8.0571,-8.1746,-8.3398,-8.4205,-8.5013,-8.582,-8.6628,-8.7839,-8.9382,-8.9382,-9.0262,-9.1803,-9.1803,-9.1803,-9.1803,-9.1803,-9.1803,-9.1803,-9.1803,-9.1803,-9.1803,-9.1803,-9.1803,-9.1803,-9.1803,-9.1803,-9.1803,-9.1803,-9.1803,-9.1803,-9.1803,-9.1803,-9.1803,-9.1803,-9.1803,-9.1803,-9.1803,-9.1803,-9.1803,-9.1803,-9.1803,-9.1803,-9.1803,-9.1803,-9.1803,-9.1803,-9.1803,-9.1803,-9.1803,-9.1803,-9.1803,-9.1803,-9.1803,-9.1803,-9.1803,-9.1803,-9.1803,-9.1803,-9.1803,-9.1803,-9.1803,-9.1803,-9.1803,-9.1803,-9.1803,-9.1803,-9.1803,-9.1803,-9.1803,-9.1803,-9.1803,-9.1803,-9.1803,-9.1803,-9.1803,-9.1803,-9.1803,-9.1803,-9.1803,-9.1803,-9.1803,-7.7851,-7.6937,-7.5876,-7.4444,-7.3679,-7.3111,-7.2366,-7.1091,-6.9868,-6.9291,-6.8126,-6.6726,-6.5254,0.0,0.0,0.0,0.0,0.0,0.0,0.0,0.0,0.0,0.0,0.0,0.0,0.0,-7.4955,-7.6019,-7.7121,-7.8112,-7.8956,-7.9764,-8.0938,-8.2553,-8.3911,-8.4976,-8.5783,-8.6591,-8.7839,-8.9382,-8.9382,-9.0262,-9.1803,-9.1803,-9.1803,-9.1803,-9.1803,-9.1803,-9.1803,-9.1803,-9.1803,-9.1803,-9.1803,-9.1803,-9.1803,-9.1803,-9.1803,-9.1803,-9.1803,-9.1803,-9.1803,-9.1803,-9.1803,-9.1803,-9.1803,-9.1803,-9.1803,-9.1803,-9.1803,-9.1803,-9.1803,-9.1803,-9.1803,-9.1803,-9.1803,-9.1803,-9.1803,-9.1803,-9.1803,-9.1803,-9.1803,-9.1803,-9.1803,-9.1803,-9.1803,-9.1803,-9.1803,-9.1803,-9.1803,-9.1803,-9.1803,-9.1803,-9.1803,-9.1803,-9.1803,-9.1803,-9.1803,-9.1803,-9.1803,-9.1803,-9.1803,-9.1803,-9.1803,-9.1803,-9.1803,-9.1803,-9.1803,-9.1803,-9.1803,-9.1803,-9.1803,-9.1803,-7.8601,-7.7948,-7.7372,-7.6022,-7.5433,-7.5037,-7.434,-7.2843,-7.1439,-7.0854,-6.9375,-6.7826,-6.6641,0.0,0.0,0.0,0.0,0.0,0.0,-6.141,0.0,0.0,0.0,0.0,0.0,0.0,0.0,0.0,0.0,0.0,0.0,-7.936,-8.0388,-8.1746,-8.3618,-8.4866,-8.538,-8.6481,-8.7839,-8.9382,-8.9382,-9.0262,-9.1803,-9.1803,-9.1803,-9.1803,-9.1803,-9.1803,-9.1803,-9.1803,-9.1803,-9.1803,-9.1803,-9.1803,-9.1803,-9.1803,-9.1803,-9.1803,-9.1803,-9.1803,-9.1803,-9.1803,-9.1803,-9.1803,-9.1803,-9.1803,-9.173,-9.1436,-9.1583,-9.173,-9.1436,-9.1583,-9.1803,-9.1803,-9.1803,-9.1803,-9.1803,-9.1803,-9.1803,-9.1803,-9.1803,-9.1803,-9.1803,-9.1803,-9.1803,-9.1803,-9.1803,-9.1803,-9.1803,-9.1803,-9.1803,-9.1803,-9.1803,-9.1803,-9.1803,-9.1803,-9.1803,-9.1803,-9.1803,-9.1803,-9.1803,-9.1803,-9.1803,-9.1803,-9.1803,-9.1803,-9.1803,-9.1803,-9.1803,-9.1803,-9.1803,-9.1803]},{"header":{"parameterUnit":"m.s-1","parameterCategory":1,"la1":30.6,"la2":29.2853,"lo1":-89.7004,"lo2":-87.6739,"dx":0.0162,"dy":0.0183,"nx":112,"ny":82,"refTime":"2022-12-08T18:00:00:Z","depth":0,"parameterNumber":3,"parameterNumberName":"V-component_of_WINDS"},"data":[0.0,0.0,0.0,0.0,0.0,0.0,0.0,0.0,0.0,0.0,0.0,0.0,0.0,0.0,0.0,0.0,0.0,0.0,0.0,0.0,0.0,0.0,0.0,0.0,0.0,0.0,0.0,0.0,0.0,0.0,0.0,0.0,0.0,0.0,0.0,0.0,0.0,0.0,0.0,0.0,0.0,0.0,0.0,0.0,0.0,0.0,0.0,0.0,0.0,0.0,0.0,0.0,0.0,0.0,0.0,0.0,0.0,0.0,0.0,0.0,0.0,0.0,0.0,0.0,0.0,0.0,0.0,0.0,0.0,0.0,0.0,0.0,0.0,0.0,0.0,0.0,0.0,0.0,0.0,0.0,0.0,0.0,0.0,0.0,0.0,0.0,0.0,0.0,0.0,0.0,2.8476,2.8965,2.9355,2.9626,2.9626,2.8848,2.8359,2.8301,0.0,0.0,0.0,0.0,0.0,0.0,0.0,0.0,0.0,0.0,0.0,0.0,0.0,0.0,0.0,0.0,0.0,0.0,0.0,0.0,0.0,0.0,0.0,0.0,0.0,0.0,0.0,0.0,0.0,0.0,0.0,0.0,0.0,0.0,0.0,0.0,0.0,0.0,0.0,0.0,0.0,0.0,0.0,0.0,0.0,0.0,0.0,0.0,0.0,0.0,0.0,0.0,0.0,0.0,0.0,0.0,0.0,0.0,0.0,0.0,0.0,0.0,0.0,0.0,0.0,0.0,0.0,0.0,0.0,0.0,0.0,0.0,0.0,0.0,0.0,0.0,0.0,0.0,0.0,0.0,0.0,0.0,0.0,0.0,0.0,0.0,0.0,0.0,0.0,0.0,0.0,0.0,0.0,0.0,0.0,0.0,0.0,0.0,0.0,0.0,0.0,0.0,0.0,0.0,2.8594,2.9394,2.9587,2.9626,2.9626,2.9101,2.8672,2.832,0.0,0.0,0.0,0.0,0.0,0.0,0.0,0.0,0.0,0.0,0.0,0.0,0.0,0.0,0.0,0.0,0.0,0.0,0.0,0.0,0.0,0.0,0.0,0.0,0.0,0.0,0.0,0.0,0.0,0.0,0.0,0.0,0.0,0.0,0.0,0.0,0.0,0.0,0.0,0.0,0.0,0.0,0.0,0.0,0.0,0.0,0.0,0.0,0.0,0.0,0.0,0.0,0.0,0.0,0.0,0.0,0.0,0.0,0.0,0.0,0.0,0.0,0.0,0.0,0.0,0.0,0.0,0.0,0.0,0.0,0.0,0.0,0.0,0.0,0.0,0.0,0.0,0.0,0.0,0.0,0.0,0.0,0.0,0.0,0.0,0.0,0.0,0.0,0.0,0.0,0.0,0.0,0.0,0.0,0.0,0.0,0.0,0.0,0.0,0.0,0.0,0.0,0.0,2.9062,2.957,3.0215,3.0293,3.0293,3.0293,2.9863,2.9434,2.9004,2.8097,0.0,0.0,0.0,0.0,0.0,0.0,0.0,0.0,0.0,0.0,0.0,0.0,0.0,0.0,0.0,0.0,0.0,0.0,0.0,0.0,0.0,0.0,0.0,0.0,0.0,0.0,0.0,0.0,0.0,0.0,0.0,0.0,0.0,0.0,0.0,0.0,0.0,0.0,0.0,0.0,0.0,0.0,0.0,0.0,0.0,0.0,0.0,0.0,0.0,0.0,0.0,0.0,0.0,0.0,0.0,0.0,0.0,0.0,0.0,0.0,0.0,0.0,0.0,0.0,0.0,0.0,0.0,0.0,0.0,0.0,0.0,0.0,0.0,0.0,0.0,0.0,0.0,0.0,0.0,0.0,0.0,0.0,0.0,0.0,0.0,0.0,0.0,0.0,0.0,0.0,0.0,0.0,0.0,0.0,0.0,0.0,0.0,0.0,0.0,0.0,0.0,0.0,3.0098,3.0488,3.0859,3.0898,3.0898,3.0898,3.0469,3.0059,2.9746,2.8569,0.0,0.0,0.0,0.0,0.0,0.0,0.0,0.0,0.0,0.0,0.0,0.0,0.0,0.0,0.0,0.0,0.0,0.0,0.0,0.0,0.0,0.0,0.0,0.0,0.0,0.0,0.0,0.0,0.0,0.0,0.0,0.0,0.0,0.0,0.0,0.0,0.0,0.0,0.0,0.0,0.0,0.0,0.0,0.0,0.0,0.0,0.0,0.0,0.0,0.0,0.0,0.0,0.0,0.0,0.0,0.0,0.0,0.0,0.0,0.0,0.0,0.0,0.0,0.0,0.0,0.0,0.0,0.0,0.0,0.0,0.0,0.0,0.0,0.0,0.0,0.0,0.0,0.0,0.0,0.0,0.0,0.0,0.0,0.0,0.0,0.0,0.0,0.0,0.0,0.0,0.0,0.0,0.0,0.0,0.0,0.0,0.0,0.0,0.0,0.0,0.0,0.0,3.0547,3.0859,3.0879,3.0898,3.0898,3.0898,3.0469,3.0176,3.0156,2.8965,0.0,0.0,0.0,0.0,0.0,0.0,0.0,0.0,0.0,0.0,0.0,0.0,0.0,0.0,0.0,0.0,0.0,0.0,0.0,0.0,0.0,0.0,0.0,0.0,0.0,0.0,0.0,0.0,0.0,0.0,0.0,0.0,0.0,0.0,0.0,0.0,0.0,0.0,0.0,0.0,0.0,0.0,0.0,0.0,0.0,0.0,0.0,0.0,0.0,0.0,0.0,0.0,0.0,0.0,0.0,0.0,0.0,0.0,0.0,0.0,0.0,0.0,0.0,0.0,0.0,0.0,0.0,0.0,0.0,0.0,0.0,0.0,0.0,0.0,0.0,0.0,0.0,0.0,0.0,0.0,0.0,0.0,0.0,0.0,0.0,0.0,0.0,0.0,0.0,0.0,0.0,0.0,0.0,0.0,0.0,0.0,0.0,0.0,0.0,0.0,0.0,0.0,3.0605,3.0996,3.125,3.1055,3.0996,3.1269,3.0879,3.0508,3.0215,0.0,0.0,0.0,0.0,0.0,0.0,0.0,0.0,0.0,0.0,0.0,0.0,0.0,0.0,0.0,0.0,0.0,0.0,0.0,0.0,0.0,0.0,0.0,0.0,0.0,0.0,0.0,0.0,0.0,0.0,0.0,0.0,0.0,0.0,0.0,0.0,0.0,0.0,0.0,0.0,0.0,0.0,0.0,0.0,0.0,0.0,0.0,0.0,0.0,0.0,0.0,0.0,0.0,0.0,0.0,0.0,0.0,0.0,0.0,0.0,0.0,0.0,0.0,0.0,0.0,0.0,0.0,0.0,0.0,0.0,0.0,0.0,0.0,0.0,0.0,0.0,0.0,0.0,0.0,0.0,0.0,0.0,0.0,0.0,0.0,0.0,0.0,0.0,0.0,0.0,0.0,0.0,0.0,0.0,0.0,0.0,0.0,0.0,0.0,0.0,0.0,0.0,3.0527,3.0898,3.125,3.168,3.1465,3.1406,3.1699,3.1328,3.0957,3.0625,0.0,0.0,0.0,0.0,0.0,0.0,0.0,0.0,0.0,0.0,0.0,0.0,0.0,0.0,0.0,0.0,0.0,0.0,0.0,0.0,0.0,0.0,0.0,0.0,0.0,0.0,0.0,0.0,0.0,0.0,0.0,0.0,0.0,0.0,0.0,0.0,0.0,0.0,0.0,0.0,0.0,0.0,0.0,0.0,0.0,0.0,0.0,0.0,0.0,0.0,0.0,0.0,0.0,0.0,0.0,0.0,0.0,0.0,0.0,0.0,0.0,0.0,0.0,0.0,0.0,0.0,0.0,0.0,0.0,0.0,0.0,0.0,0.0,0.0,0.0,0.0,0.0,0.0,0.0,0.0,0.0,0.0,0.0,0.0,0.0,0.0,0.0,0.0,0.0,0.0,0.0,0.0,0.0,0.0,0.0,0.0,0.0,0.0,0.0,0.0,0.0,0.0,3.1348,3.1523,3.1699,3.219,3.2229,3.2229,3.2229,3.1777,3.1523,0.0,0.0,0.0,0.0,0.0,0.0,0.0,0.0,0.0,0.0,0.0,0.0,0.0,0.0,0.0,0.0,0.0,0.0,0.0,0.0,0.0,0.0,0.0,0.0,0.0,0.0,0.0,0.0,0.0,0.0,0.0,0.0,0.0,0.0,0.0,0.0,0.0,0.0,0.0,0.0,0.0,0.0,0.0,0.0,0.0,0.0,0.0,0.0,0.0,0.0,0.0,0.0,0.0,0.0,0.0,0.0,0.0,0.0,0.0,0.0,0.0,0.0,0.0,0.0,0.0,0.0,0.0,0.0,0.0,0.0,0.0,0.0,0.0,0.0,0.0,0.0,0.0,0.0,0.0,0.0,0.0,0.0,0.0,0.0,0.0,0.0,0.0,0.0,0.0,0.0,0.0,0.0,0.0,0.0,0.0,0.0,0.0,0.0,0.0,0.0,0.0,0.0,0.0,3.1426,3.1777,3.2148,3.2559,3.2344,3.2285,3.2578,3.2226,3.1836,3.1543,0.0,0.0,0.0,0.0,0.0,0.0,0.0,0.0,0.0,0.0,0.0,0.0,0.0,0.0,0.0,0.0,0.0,0.0,0.0,0.0,0.0,0.0,0.0,0.0,0.0,0.0,0.0,0.0,0.0,0.0,0.0,0.0,0.0,0.0,0.0,0.0,0.0,0.0,0.0,0.0,0.0,0.0,0.0,0.0,0.0,0.0,0.0,0.0,0.0,0.0,0.0,0.0,0.0,0.0,0.0,0.0,0.0,0.0,0.0,0.0,0.0,0.0,0.0,0.0,0.0,0.0,0.0,0.0,0.0,0.0,0.0,0.0,0.0,0.0,0.0,0.0,0.0,0.0,0.0,0.0,0.0,0.0,0.0,0.0,0.0,0.0,0.0,0.0,0.0,0.0,0.0,0.0,0.0,0.0,0.0,0.0,0.0,0.0,0.0,0.0,0.0,0.0,3.1699,3.2305,3.2832,3.3262,3.3223,3.3281,3.3535,3.3008,3.2559,3.2285,0.0,0.0,0.0,0.0,0.0,0.0,0.0,0.0,0.0,0.0,0.0,0.0,0.0,0.0,0.0,0.0,0.0,0.0,0.0,0.0,0.0,0.0,0.0,0.0,0.0,0.0,0.0,0.0,0.0,0.0,0.0,0.0,0.0,0.0,0.0,0.0,0.0,0.0,0.0,0.0,0.0,0.0,0.0,0.0,0.0,0.0,0.0,0.0,0.0,0.0,0.0,0.0,0.0,0.0,0.0,0.0,0.0,0.0,0.0,0.0,0.0,0.0,0.0,0.0,0.0,0.0,0.0,0.0,0.0,0.0,0.0,0.0,0.0,0.0,0.0,0.0,0.0,0.0,0.0,0.0,0.0,0.0,0.0,0.0,0.0,0.0,0.0,0.0,0.0,0.0,0.0,0.0,0.0,0.0,0.0,0.0,0.0,0.0,0.0,0.0,0.0,0.0,3.2168,3.3027,3.3691,3.4082,3.4473,3.4707,3.4707,3.3984,3.3516,3.3437,0.0,0.0,0.0,0.0,0.0,0.0,0.0,0.0,0.0,0.0,0.0,0.0,0.0,0.0,0.0,0.0,0.0,0.0,0.0,0.0,0.0,0.0,0.0,0.0,0.0,0.0,0.0,0.0,0.0,0.0,0.0,0.0,0.0,0.0,0.0,0.0,0.0,0.0,0.0,0.0,0.0,0.0,0.0,0.0,0.0,0.0,0.0,0.0,0.0,0.0,0.0,0.0,0.0,0.0,0.0,0.0,0.0,0.0,0.0,0.0,2.8223,2.7754,0.0,0.0,0.0,0.0,0.0,0.0,0.0,0.0,0.0,0.0,0.0,0.0,0.0,0.0,0.0,0.0,0.0,0.0,0.0,0.0,0.0,0.0,0.0,0.0,0.0,0.0,0.0,0.0,0.0,0.0,0.0,0.0,0.0,0.0,0.0,0.0,0.0,0.0,0.0,0.0,3.3086,3.3906,3.4453,3.4551,3.4648,3.4707,3.4707,3.4531,3.4141,3.3457,3.3164,0.0,0.0,0.0,0.0,0.0,0.0,0.0,0.0,0.0,0.0,0.0,0.0,0.0,0.0,0.0,0.0,0.0,0.0,0.0,0.0,0.0,0.0,0.0,0.0,0.0,0.0,0.0,0.0,0.0,0.0,0.0,0.0,0.0,0.0,0.0,0.0,0.0,0.0,0.0,0.0,0.0,0.0,0.0,0.0,0.0,0.0,0.0,0.0,0.0,0.0,0.0,0.0,0.0,0.0,0.0,0.0,0.0,0.0,0.0,2.957,2.8906,0.0,0.0,0.0,0.0,0.0,0.0,0.0,0.0,0.0,0.0,0.0,0.0,0.0,0.0,0.0,0.0,0.0,0.0,0.0,0.0,0.0,0.0,0.0,0.0,0.0,0.0,0.0,0.0,0.0,0.0,0.0,0.0,0.0,0.0,0.0,0.0,0.0,0.0,0.0,0.0,3.3672,3.4668,3.5332,3.5332,3.5703,3.5937,3.5937,3.5566,3.5137,3.4707,3.3887,0.0,0.0,0.0,0.0,0.0,0.0,0.0,0.0,0.0,0.0,0.0,0.0,0.0,0.0,0.0,0.0,0.0,0.0,0.0,0.0,0.0,0.0,0.0,0.0,0.0,0.0,0.0,0.0,0.0,0.0,0.0,0.0,0.0,0.0,0.0,0.0,0.0,0.0,0.0,0.0,0.0,0.0,0.0,0.0,0.0,0.0,0.0,0.0,0.0,0.0,0.0,0.0,0.0,2.3604,2.57,2.9299,2.9501,3.0631,3.2305,3.0859,3.0156,3.0076,3.0076,0.0,0.0,0.0,0.0,0.0,0.0,0.0,0.0,0.0,0.0,0.0,0.0,0.0,0.0,0.0,0.0,0.0,0.0,0.0,0.0,0.0,0.0,3.1211,3.1641,3.2012,3.1894,3.0547,0.0,0.0,0.0,0.0,0.0,0.0,0.0,0.0,0.0,0.0,0.0,3.4355,3.5488,3.625,3.625,3.6875,3.7305,3.7305,3.6641,3.6172,3.6035,3.4668,3.373,0.0,0.0,0.0,0.0,0.0,0.0,0.0,0.0,0.0,0.0,0.0,0.0,0.0,0.0,0.0,0.0,0.0,0.0,0.0,0.0,0.0,0.0,0.0,0.0,0.0,0.0,0.0,0.0,0.0,0.0,0.0,0.0,1.7261,1.7862,0.0,0.0,0.0,0.0,0.0,0.0,0.0,0.0,0.0,0.0,0.0,0.0,0.0,2.1056,2.1387,2.1617,2.2595,2.4223,2.4267,2.6296,3.005,3.0086,3.1269,3.3242,3.3008,0.0,3.1896,3.1896,0.0,0.0,0.0,0.0,0.0,0.0,0.0,0.0,0.0,0.0,0.0,0.0,0.0,0.0,0.0,0.0,0.0,0.0,0.0,0.0,0.0,0.0,3.2109,3.2519,3.2676,3.2754,3.2891,3.2344,3.1896,3.1896,3.1875,3.1934,0.0,0.0,0.0,0.0,0.0,0.0,3.5703,3.6562,3.7129,3.7129,3.7226,3.7305,3.7305,3.7187,3.6816,3.6074,3.5801,3.5,3.3476,3.3262,0.0,0.0,0.0,0.0,0.0,0.0,0.0,0.0,0.0,0.0,0.0,0.0,0.0,0.0,0.0,0.0,0.0,0.0,0.0,0.0,0.0,0.0,0.0,0.0,0.0,0.0,0.0,0.0,0.0,1.7769,1.8303,1.8731,1.9052,1.9345,0.0,0.0,0.0,0.0,0.0,0.0,0.0,0.0,0.0,2.1403,2.1697,2.1911,2.2044,2.2338,2.2875,2.3585,2.3714,2.5174,2.7833,2.8028,2.9676,3.2544,3.2544,3.2941,3.3555,3.3066,3.2734,3.25,0.0,0.0,0.0,0.0,3.1191,3.1035,3.1035,3.1035,3.1035,3.1035,0.0,0.0,0.0,0.0,0.0,0.0,0.0,3.2871,3.2871,3.3047,3.3281,3.3476,3.3691,3.3984,3.4434,3.4238,3.3769,3.3027,3.2871,3.2949,3.3203,3.3594,0.0,0.0,0.0,3.6269,3.668,3.748,3.8008,3.8008,3.8457,3.875,3.875,3.8301,3.7851,3.748,3.6777,3.5937,3.4922,3.4414,3.3555,0.0,0.0,0.0,0.0,0.0,0.0,0.0,0.0,0.0,0.0,0.0,0.0,0.0,0.0,0.0,0.0,0.0,0.0,0.0,0.0,0.0,0.0,0.0,0.0,0.0,0.0,0.0,0.0,1.8824,1.9252,1.9559,1.984,2.0134,0.0,0.0,0.0,0.0,0.0,0.0,2.1443,2.1857,2.2124,2.2205,2.2498,2.2645,2.2645,2.302,2.3207,2.3207,2.3514,2.4665,2.6519,2.6702,2.8599,3.1753,3.2251,3.3274,3.4499,3.3986,3.3574,3.3281,3.3281,3.3027,3.2718,3.2718,3.2578,3.248,3.248,3.248,3.248,3.248,3.248,3.2578,3.2988,0.0,0.0,0.0,0.0,3.4082,3.4082,3.4336,3.4609,3.4707,3.498,3.5332,3.5781,3.5879,3.5527,3.4316,3.4082,3.4199,3.4512,3.4922,0.0,3.6094,3.6738,3.7266,3.7578,3.8379,3.8906,3.8906,3.9512,3.9902,3.9902,3.9297,3.8867,3.875,3.7754,3.6914,3.6367,3.5508,3.4629,3.3769,0.0,0.0,0.0,0.0,0.0,0.0,0.0,0.0,0.0,0.0,0.0,0.0,0.0,0.0,0.0,0.0,0.0,0.0,0.0,0.0,0.0,0.0,0.0,0.0,0.0,0.0,0.0,0.0,0.0,2.0147,2.0454,0.0,0.0,0.0,0.0,2.1871,2.1924,2.2058,2.2338,2.2378,2.2525,2.2806,2.3113,2.3273,2.3273,2.3848,2.4128,2.4142,2.4436,2.5649,2.782,2.7835,2.909,3.1357,3.3263,3.4144,3.4233,3.449,3.4629,3.4609,3.4609,3.4336,3.3965,3.3965,3.3711,3.3359,3.3359,3.3359,3.3359,3.3359,3.3359,3.3437,3.3887,3.4297,0.0,0.0,3.5586,3.5879,3.5879,3.5898,3.6035,3.6445,3.6562,3.668,3.7109,3.7207,3.6953,3.6055,3.5879,3.5898,3.5918,0.0,3.6582,3.6641,3.7695,3.8496,3.8496,3.9277,3.9824,3.9824,3.9863,3.9902,3.9902,3.9863,3.9648,3.9199,3.873,3.8105,3.7266,3.6406,3.5527,3.4648,3.4199,0.0,0.0,0.0,0.0,0.0,0.0,0.0,0.0,0.0,0.0,0.0,0.0,0.0,0.0,0.0,0.0,0.0,0.0,0.0,0.0,0.0,0.0,0.0,0.0,0.0,0.0,0.0,0.0,2.0762,2.1056,0.0,2.1643,2.1937,2.2151,2.2258,2.2632,2.2899,2.2993,2.318,2.342,2.3714,2.4008,2.4262,2.4449,2.485,2.505,2.505,2.5344,2.5913,2.6697,2.6892,2.8004,2.9915,3.0675,3.2467,3.4899,3.5064,3.5457,3.5976,3.5976,3.5703,3.5332,3.5332,3.5234,3.5098,3.5098,3.5098,3.5098,3.5098,3.5293,3.5547,3.5703,3.6035,3.6406,3.6562,3.6719,3.6914,3.7168,3.7246,3.7363,3.7793,3.7891,3.8008,3.8437,3.8516,3.8516,3.8516,3.7832,3.7246,3.7246,3.7832,3.8301,3.8301,3.8945,3.9434,3.9434,3.9941,4.0293,4.0293,4.0547,4.0723,4.0723,4.0469,4.0234,4.0059,3.9668,3.916,3.8555,3.7969,3.7266,3.6387,3.5957,3.5176,0.0,0.0,0.0,0.0,0.0,0.0,0.0,0.0,0.0,0.0,0.0,0.0,0.0,0.0,0.0,0.0,0.0,0.0,0.0,0.0,0.0,0.0,0.0,0.0,0.0,2.0788,2.1082,2.1363,2.167,2.1964,2.2258,2.2552,2.2766,2.2873,2.334,2.3661,2.3768,2.4048,2.4342,2.4636,2.4836,2.5077,2.5371,2.5665,2.5865,2.5959,2.6253,2.6479,2.64,2.66,2.7385,2.8626,2.9306,3.154,3.4761,3.5459,3.6534,3.7734,3.7441,3.7129,3.6875,3.6875,3.6875,3.6875,3.6875,3.6875,3.6875,3.6875,3.709,3.7305,3.7305,3.7598,3.793,3.793,3.8047,3.8242,3.8516,3.8594,3.8652,3.8945,3.9023,3.9101,3.9375,3.9434,3.9531,3.9844,3.918,3.8594,3.8594,3.9062,3.9434,3.9434,3.9824,4.0098,4.0098,4.0469,4.0742,4.0742,4.0996,4.1172,4.1172,4.0898,4.0742,4.0742,4.0351,3.9961,3.9668,3.9101,3.8516,3.7949,3.7246,3.6309,3.5137,0.0,0.0,0.0,0.0,0.0,0.0,0.0,0.0,0.0,0.0,0.0,0.0,0.0,0.0,0.0,0.0,0.0,0.0,0.0,0.0,0.0,0.0,0.0,2.1162,2.139,2.1748,2.1977,2.2271,2.2565,2.2873,2.318,2.3487,2.3794,2.4075,2.4369,2.4649,2.4943,2.5237,2.5531,2.5545,2.5692,2.6077,2.6279,2.656,2.6841,2.7134,2.7281,2.7281,2.7281,2.7295,2.7458,2.9434,3.1474,3.369,3.5659,3.7794,3.9768,3.8965,3.8613,3.8613,3.8613,3.8613,3.8613,3.8613,3.8613,3.8613,3.8613,3.8613,3.8613,3.8613,3.8906,3.9219,3.9219,3.9551,3.9902,3.9922,3.9922,3.9922,3.9941,3.9941,3.9941,3.9941,3.9941,3.9941,3.9941,3.9941,3.9941,3.9922,3.9922,3.9941,3.9941,4.0273,0.0,4.0547,4.0918,4.1172,4.1172,4.1172,4.1172,4.1172,4.1172,4.1172,4.1172,4.0781,4.0547,4.0547,3.9707,3.9238,3.9219,3.7988,3.6953,3.6113,0.0,0.0,0.0,0.0,0.0,0.0,0.0,0.0,0.0,0.0,0.0,0.0,0.0,0.0,0.0,0.0,0.0,0.0,0.0,0.0,0.0,2.1804,2.2004,2.151,2.1857,2.2285,2.2579,2.2886,2.3273,2.3781,2.4102,2.4396,2.4703,2.4983,2.5184,2.5264,2.5558,2.5852,2.6132,2.636,2.66,2.6907,2.6987,2.7068,2.7148,2.7442,2.7575,2.7589,2.7802,2.798,2.798,2.855,3.0001,3.2022,3.2576,3.5076,3.8535,3.924,3.9531,3.9531,3.9531,3.9531,3.9531,3.9531,3.9531,3.9531,3.9531,3.9531,3.9531,3.9531,3.9609,3.9707,3.9707,3.9805,3.9961,4.0273,4.0351,4.043,4.0742,4.082,4.082,4.082,4.082,4.082,4.082,4.082,4.0723,4.041,4.0605,4.082,4.082,4.0918,4.0996,4.0996,4.1094,4.1172,4.1172,4.1172,4.1172,4.1172,4.1172,4.1172,4.1172,4.1055,4.0996,4.0996,4.0449,4.0019,3.9707,3.9023,3.8555,0.0,0.0,0.0,0.0,0.0,0.0,0.0,0.0,0.0,0.0,0.0,0.0,0.0,0.0,0.0,0.0,0.0,0.0,0.0,0.0,0.0,0.0,2.2298,2.2525,2.2325,2.2592,2.2953,2.3367,2.3688,2.4062,2.4529,2.4836,2.513,2.5424,2.5718,2.5932,2.6052,2.6346,2.6587,2.6747,2.6921,2.7148,2.7442,2.7442,2.7509,2.7712,2.7802,2.7883,2.7896,2.8154,2.8221,2.8221,2.8221,2.9453,3.1475,3.2381,3.4813,3.8018,0.0,0.0,0.0,0.0,4.043,4.043,4.043,4.043,4.043,4.043,4.043,4.043,4.043,4.043,4.043,4.043,4.043,4.0488,4.0723,4.0801,4.0859,4.1113,4.1172,4.1172,4.1172,4.1172,4.1172,4.1172,4.1172,0.0,4.1074,4.1113,4.1172,4.1172,4.1172,4.1172,4.1172,4.1172,4.125,4.1426,4.1426,4.1504,4.168,4.1699,0.0,0.0,0.0,4.1348,4.1172,4.0937,0.0,0.0,0.0,3.9668,3.9492,3.9238,0.0,0.0,3.666,3.6582,0.0,0.0,0.0,0.0,0.0,0.0,0.0,0.0,0.0,0.0,0.0,0.0,0.0,0.0,0.0,0.0,2.2806,2.3153,2.3434,2.3527,2.3741,2.4195,2.4543,2.4863,2.5197,2.5464,2.5745,2.6157,2.6346,2.66,2.6854,2.7148,0.0,0.0,0.0,2.7482,2.7749,2.7749,2.7883,2.8221,2.8221,2.8221,2.8221,2.8221,2.8221,2.8221,2.8221,2.9286,3.1159,3.3201,3.5379,3.7578,3.8054,3.9453,4.1172,4.1172,4.1172,4.1172,4.1172,0.0,0.0,4.1172,4.1172,4.1172,4.1172,4.1172,4.1172,4.1172,4.1172,4.1172,4.1172,4.1172,4.1172,4.1172,4.1211,4.125,4.125,4.1289,4.1308,4.1308,4.1308,4.1426,4.1816,4.1523,4.125,4.1308,4.1308,4.1308,4.1308,4.1308,4.1465,4.1836,4.1875,0.0,4.2402,4.2422,4.2266,4.1894,4.1875,4.1699,4.1328,4.1269,4.1055,4.0664,4.0625,4.041,4.0039,4.0039,4.0039,4.0019,3.9141,3.873,0.0,0.0,0.0,0.0,0.0,0.0,0.0,0.0,0.0,0.0,0.0,0.0,0.0,0.0,0.0,2.2766,2.3634,2.4315,2.4369,2.4796,2.4957,2.4596,2.5024,2.5558,2.6079,2.6186,2.644,2.6974,2.7068,2.7121,2.7175,2.7455,2.7615,2.7615,2.7843,2.8087,2.814,2.814,2.8167,2.8221,2.8221,0.0,2.8221,2.8221,2.8221,2.8221,2.8221,2.8473,2.888,2.9286,3.1722,3.5638,3.9216,4.0841,4.1172,4.1172,4.1172,4.1172,4.1172,4.1172,4.1172,4.1172,4.1172,4.1172,4.1172,4.1172,0.0,4.1172,4.1172,4.1172,4.1172,4.1172,4.1172,4.1172,4.1426,4.168,4.168,4.1953,4.2187,4.2187,4.2187,4.2207,4.2285,4.1953,4.1797,4.2129,4.2187,4.2187,4.2187,4.2187,4.2207,4.2305,4.2305,4.2344,4.2422,4.2422,4.2402,4.2305,4.2305,4.2266,4.2187,4.1855,4.1641,4.1562,4.1211,4.1016,4.0918,4.0918,4.0918,4.0898,4.0039,3.9648,0.0,0.0,0.0,0.0,0.0,0.0,0.0,0.0,0.0,0.0,0.0,2.2311,2.2405,0.0,2.3407,2.3701,2.4249,2.4743,2.5037,2.5585,2.5785,2.5344,2.5692,2.6119,2.656,2.6734,2.7014,2.7455,2.7482,2.7549,2.7779,2.7843,2.7923,2.7923,2.8154,2.8221,2.8221,2.8221,2.8221,2.8221,2.8221,2.8221,2.8221,2.8221,2.8221,2.8221,2.8221,2.8221,2.8389,3.0592,3.3349,3.662,4.017,4.1348,4.1172,4.1172,4.1172,4.1172,4.1172,4.1172,4.1172,4.1172,4.1172,4.1172,4.1172,4.1172,4.1172,4.1172,4.1328,4.1484,4.1484,4.1641,4.1797,4.1797,4.1953,4.2109,4.2109,4.2285,4.2422,4.2422,4.2422,4.25,4.2715,4.2578,4.2441,4.2422,4.2422,4.2422,4.2422,4.2422,4.25,4.2734,4.2754,4.2832,4.3047,4.2871,4.2754,4.2754,4.2539,4.2422,4.2422,4.2226,4.2109,4.2109,4.1914,4.1797,4.1797,4.1797,4.1797,4.1797,4.1367,4.0937,0.0,0.0,0.0,0.0,0.0,0.0,0.0,2.147,2.1802,2.2084,2.2539,2.2968,2.302,2.3527,2.4088,2.4556,2.4783,2.5077,2.5611,2.6146,2.6413,2.6226,2.6413,2.6667,2.6961,2.7215,2.7468,2.7762,2.7789,2.7896,2.8221,2.8221,2.8221,2.8221,2.8221,2.8221,2.8221,2.8221,2.8221,2.8221,2.8221,2.8261,2.8315,2.8315,2.8355,2.8323,2.8323,2.8323,2.8649,3.2582,3.5517,3.7748,4.0292,4.1305,4.1406,4.1328,4.1348,4.1406,4.1328,4.1348,4.1426,4.1426,4.1426,4.1426,4.1426,4.1426,4.1426,4.1426,4.166,4.1914,4.1914,4.2168,4.2422,4.2422,4.25,4.2558,4.2558,4.2617,4.2676,4.2676,4.2676,4.2793,4.3144,4.3203,4.3086,4.2734,4.2676,4.2676,4.2676,4.2676,4.2812,4.3164,4.3203,4.334,4.3672,4.3398,4.3203,4.3203,4.2871,4.2676,4.2676,4.2598,4.2558,4.2558,4.2461,4.2422,4.2422,4.2422,4.2422,4.2422,4.2422,4.207,2.1015,2.1015,2.1069,2.1336,2.1494,2.1601,0.0,2.1911,2.2098,2.2645,2.2887,2.302,2.3567,2.4142,2.4556,2.4623,2.5291,2.5919,2.6253,2.6573,2.6854,2.7094,2.7148,2.7281,2.7575,2.7629,2.7776,2.8154,2.8181,2.8194,2.8221,2.8221,2.8221,2.8221,2.8221,2.8221,2.8221,2.8221,2.8221,2.8221,2.8221,2.8283,2.8551,2.8551,2.8698,2.8938,2.8938,2.8938,2.9111,3.1522,3.3934,3.6191,3.8405,4.0497,4.2246,4.1875,4.1973,4.2226,4.1855,4.1973,4.2285,4.2285,4.2285,4.2285,4.2285,4.2285,4.2285,4.2285,4.2324,4.2363,4.2363,4.2402,4.2422,4.2422,4.2715,4.3008,4.3008,4.3301,4.3555,4.3555,4.3555,4.3574,4.3633,4.3633,4.3613,4.3574,4.3555,4.3555,4.3555,4.3555,4.3574,4.3633,4.3633,4.3652,4.3691,4.3652,4.3633,4.3633,4.3594,4.3555,4.3555,4.3203,4.3008,4.3008,4.2617,4.2422,4.2422,4.2422,4.2422,4.2422,4.2422,4.2383,2.1577,2.1617,2.1657,2.1777,2.1804,2.1924,2.2392,2.2498,2.2659,2.3273,2.3527,2.3768,2.4195,2.4609,2.501,2.5344,2.5852,2.6306,2.66,2.7041,2.7375,2.7509,2.7669,2.7749,2.7709,2.7856,2.8003,2.8221,2.8221,2.8221,2.8221,2.8221,2.8221,2.8221,2.8221,2.8221,2.8221,2.8221,2.8315,2.8417,2.8417,2.8564,2.8858,2.8858,2.8925,2.9045,2.9045,2.9045,2.9206,3.1382,3.3622,3.5908,3.8394,4.0763,4.2754,4.2324,4.2285,4.2402,4.2226,4.2285,4.2422,4.2422,4.2422,4.2422,4.2422,4.2422,4.2422,4.2422,4.2617,4.2812,4.2812,4.2988,4.3164,4.3164,4.332,4.3437,4.3437,4.3574,4.3711,4.3711,4.3711,4.3711,4.3711,4.3711,4.3711,4.3711,4.3711,4.3711,4.3711,4.3711,4.3808,4.4082,4.4101,4.4199,4.4453,4.4473,4.4473,4.4473,4.4473,4.4473,4.4473,4.4297,4.4219,4.4219,4.4023,4.3945,4.3945,4.3945,4.3945,4.3945,4.3945,4.3945,2.1924,2.1991,2.2004,2.2084,2.2164,2.2365,2.2873,2.306,2.326,2.3781,2.4115,2.4409,2.4703,2.5064,2.5491,2.5999,2.6319,2.664,2.7014,2.7428,2.7722,2.7816,2.8016,2.814,2.7843,2.81,2.8221,2.8221,2.8221,2.8221,2.8221,2.8221,2.8221,2.8221,2.8221,2.8274,2.827,2.827,2.843,2.8724,2.8724,2.8885,2.9165,2.9245,2.9285,2.9285,2.9285,2.9285,2.936,3.0963,3.3334,3.6223,3.8093,4.0676,4.3203,4.2891,4.2773,4.2754,4.2637,4.2676,4.2773,4.2773,4.2773,4.2773,4.2773,4.2773,4.2773,4.2773,4.3008,4.3242,4.3242,4.3476,4.3711,4.3711,4.3711,4.3711,4.3711,4.3711,4.3711,4.3711,4.3808,4.3887,4.3887,4.3984,4.4062,4.4062,4.4062,4.4023,4.3906,4.4004,4.4199,4.4531,4.457,4.4687,4.5,4.5019,4.5019,4.5019,4.5019,4.5019,4.5019,4.5019,4.5019,4.5019,4.5019,4.5019,4.5019,4.5019,4.5019,4.5019,4.5019,4.5019,2.1977,2.1991,2.2058,2.2338,2.2619,2.2926,2.3247,2.3541,2.3834,2.4128,2.4422,2.4716,2.501,2.5545,2.6026,2.6333,2.6613,2.7014,2.7589,2.7682,2.7802,2.8181,2.8221,2.8221,2.8221,2.8221,2.8221,2.8221,2.8221,2.8221,2.8221,2.8221,2.8221,2.8221,2.8221,2.8283,2.8591,2.8591,2.8738,2.9032,2.9032,2.9179,2.9486,2.9766,2.9887,2.9887,2.9887,2.9887,2.9887,2.9976,3.2661,3.6797,3.6814,3.9649,4.3691,4.3672,4.3672,4.3613,4.3203,4.332,4.3672,4.3672,4.3672,4.3672,4.3672,4.3672,4.3672,4.3672,4.3672,4.3691,4.3691,4.3691,4.3711,4.3711,4.3711,4.3711,4.3711,4.3711,4.3711,4.3711,4.4062,4.4375,4.4375,4.4707,4.498,4.498,4.498,4.4844,4.4433,4.4726,4.5,4.5,4.5,4.5019,4.5019,4.5019,4.5019,4.5019,4.5019,4.5019,4.5019,4.5019,4.5019,4.5019,4.5019,4.5019,4.5019,4.5019,4.5019,4.5019,4.5019,4.5019,2.2766,2.2873,2.2899,2.2993,2.3247,2.3541,2.3834,2.3981,2.4195,2.469,2.4863,2.5077,2.5571,2.5825,2.6119,2.66,2.6921,2.7255,2.7642,2.7869,2.803,2.8221,2.8221,2.8221,2.8221,2.8221,2.8221,2.8221,2.8221,2.8221,2.8221,2.8221,2.8221,2.8221,2.8337,2.8497,2.8604,2.8804,2.9045,2.9339,2.9526,2.9673,2.978,2.9873,2.9913,2.9913,2.9913,2.9913,2.9913,2.9913,3.1745,3.4504,3.4504,3.7347,4.1453,4.1453,4.2409,4.3691,4.3555,4.3594,4.3711,4.3711,4.3711,4.3711,4.3711,4.3711,4.3711,4.3711,4.3711,4.3711,4.3711,4.3711,4.3711,4.3711,4.3711,4.3711,4.3711,4.3945,4.416,4.416,4.4512,4.4824,4.4824,4.4941,4.5117,4.541,4.5215,4.498,4.4824,4.4941,4.5137,4.543,4.5449,4.5566,4.5859,4.5879,4.5879,4.5879,4.5879,4.5879,4.5879,4.5879,4.5879,4.5879,4.5879,4.5879,4.5879,4.5879,4.5879,4.5879,4.5879,4.5879,2.3193,2.3327,2.3354,2.346,2.3701,2.3968,2.4155,2.4289,2.4489,2.4983,2.5157,2.5384,2.5943,2.6117,2.6306,2.6881,2.7134,2.7402,2.7802,2.8016,2.8221,2.8221,2.8221,2.8221,2.8221,2.8221,2.8221,2.8221,2.8221,2.8221,2.8221,2.8243,2.831,2.831,2.8604,2.8818,2.8911,2.9098,2.9339,2.9646,2.982,2.9913,2.9913,2.9913,2.9913,2.9913,2.9913,2.9913,2.9913,2.9913,3.1301,3.3395,3.3395,3.6226,4.0343,4.0343,4.1723,4.3711,4.3711,4.3711,4.3711,4.3711,4.3711,4.3711,4.3711,4.3711,4.3711,4.3711,4.3711,4.3711,4.3711,4.3711,4.3711,4.3711,4.3828,4.3945,4.3945,4.4297,4.4629,4.4629,4.4961,4.5254,4.5254,4.5391,4.5586,4.5859,4.5664,4.5488,4.5488,4.5488,4.5586,4.5859,4.5898,4.6016,4.6289,4.6308,4.6308,4.6308,4.6308,4.6308,4.6308,4.6308,4.6308,4.6308,4.6308,4.6308,4.6308,4.6308,4.6308,4.6308,4.6308,4.6387,2.326,2.3367,2.3447,2.3728,2.4008,2.4222,2.4222,2.4436,2.473,2.5037,2.5317,2.5611,2.5919,2.6199,2.6587,2.7175,2.7268,2.7468,2.814,2.8221,2.8221,2.8221,2.8221,2.8221,2.8221,2.8221,2.8234,2.8248,2.8234,2.8234,2.8248,2.8444,2.8617,2.8631,2.8911,2.9205,2.9486,2.9499,2.9646,2.9913,2.9913,2.9913,2.9913,2.9913,2.9913,2.9913,2.9913,2.9913,2.9913,2.9913,3.1226,3.3219,3.3219,3.5967,3.9903,3.9903,4.1453,4.3526,4.3526,4.3609,4.3711,4.3711,4.3711,4.3711,4.3711,4.3711,4.3711,4.3711,4.3711,4.3711,4.3711,4.373,4.373,4.373,4.4082,4.4433,4.4433,4.4766,4.5058,4.5058,4.541,4.5703,4.5703,4.6035,4.6308,4.6308,4.6308,4.6308,4.6308,4.6308,4.6308,4.6308,4.6308,4.6308,4.6308,4.6308,4.6308,4.6308,4.6308,4.6308,4.6308,4.6308,4.6308,4.6308,4.6308,4.6308,4.6308,4.6328,4.6328,4.6328,4.6367,4.6582,2.3581,2.3821,2.3995,2.4075,2.4315,2.4529,2.4529,2.4583,2.4783,2.5291,2.5464,2.5665,2.6186,2.6333,2.6587,2.7175,2.7268,2.7468,2.814,2.8221,2.8221,2.8221,2.8221,2.8221,2.8221,2.8221,2.8243,2.847,2.827,2.8328,2.847,2.8564,2.8711,2.8925,2.9219,2.9406,2.9486,2.97,2.9847,2.9913,2.9913,2.9913,2.9913,2.9913,2.9913,2.9913,2.9913,2.9913,2.9913,2.9913,3.0258,3.0781,3.0781,3.2602,3.5186,3.5186,3.7673,4.1202,4.1202,4.2326,4.3711,4.3711,4.3711,4.3711,4.3711,4.3711,4.3711,4.3711,4.3711,4.3711,4.3711,4.3965,4.4219,4.4219,4.4551,4.4863,4.4863,4.5195,4.5508,4.5508,4.5859,4.6152,4.6152,4.623,4.6308,4.6308,4.6308,4.6308,4.6308,4.6308,4.6308,4.6308,4.6308,4.6308,4.6308,4.6308,4.6308,4.6308,4.6308,4.6308,4.6308,4.6308,4.6308,4.6308,4.6308,4.6308,4.6308,4.6621,4.6777,4.6777,4.7109,4.7305,2.3688,2.3981,2.4235,2.4369,2.4516,2.4636,2.4636,2.4636,2.477,2.5224,2.5424,2.5651,2.6119,2.6306,2.6587,2.7175,2.7268,2.7468,2.814,2.8221,2.8221,2.8221,2.8221,2.8221,2.8221,2.8221,2.827,2.8577,2.8444,2.8484,2.8778,2.8925,2.9072,2.9232,2.9526,2.9673,2.9673,2.9833,2.9913,2.9913,2.9913,2.9913,2.9913,2.9913,2.9913,2.9913,2.9913,2.9913,2.9913,2.9913,2.9913,2.9913,2.9913,3.1301,3.3556,3.4504,3.7175,4.0427,4.1453,4.2659,4.3711,4.3711,4.3711,4.3711,4.3711,4.3711,4.3711,4.3711,4.3848,4.4004,4.4004,4.4336,4.4668,4.4668,4.5,4.5312,4.5312,4.5644,4.5957,4.5957,4.6152,4.6308,4.6308,4.6308,4.6308,4.6308,4.6308,4.6308,4.6308,4.6308,4.6308,4.6308,4.6308,4.6308,4.6308,4.6308,4.6308,4.6308,4.6308,4.6308,4.6308,4.6308,4.6387,4.6582,4.6582,4.666,4.6855,4.7109,4.7207,4.7226,4.7461,4.7676,2.3701,2.4008,2.4329,2.4569,2.4636,2.4636,2.4636,2.4636,2.4716,2.5024,2.5277,2.5545,2.5838,2.6132,2.6507,2.7068,2.7215,2.7537,2.8087,2.8207,2.8221,2.8221,2.8221,2.8221,2.8221,2.8261,2.8337,2.8644,2.8698,2.8831,2.9085,2.9339,2.9499,2.9539,2.978,2.9913,2.9913,2.9913,2.9913,2.9913,2.9913,2.9913,2.9913,2.9913,2.9913,2.9913,2.9913,2.9913,2.9913,2.9913,2.9913,2.9913,2.9913,3.1137,3.3219,3.5201,3.7604,4.009,4.2057,4.3234,4.3789,4.373,4.3711,4.3711,4.3711,4.375,4.3789,4.3789,4.4121,4.4492,4.4492,4.4785,4.5117,4.5117,4.5449,4.5762,4.5762,4.6055,4.6308,4.6308,4.6308,4.6308,4.6308,4.6308,4.6308,4.6308,4.6308,4.6308,4.6308,4.6308,4.6308,4.6308,4.6308,4.6308,4.6308,4.6308,4.6308,4.6308,4.6308,4.6328,4.6387,4.6387,4.6582,4.7012,4.7012,4.7207,4.7578,4.7637,4.7656,4.7656,4.7715,4.7949,2.3754,2.4155,2.4569,2.4623,2.4636,2.4636,2.4636,2.4636,2.4716,2.5024,2.5117,2.5237,2.5531,2.5838,2.6146,2.648,2.6947,2.7388,2.7722,2.8073,2.8221,2.8221,2.8221,2.8221,2.8221,2.8377,2.8644,2.8938,2.9192,2.9352,2.9406,2.9459,2.9593,2.9833,2.9887,2.9913,2.9913,2.9913,2.9913,2.9913,2.9913,2.9913,2.9913,2.9913,2.9913,2.9913,2.9913,2.9913,2.9913,2.9913,2.9913,2.9913,2.9913,3.0182,3.0526,3.0959,3.3804,3.7432,3.7861,4.0747,4.4219,4.3828,4.3711,4.3711,4.3711,4.3965,4.4277,4.4277,4.459,4.4922,4.4922,4.5234,4.5566,4.5566,4.5879,4.6191,4.6191,4.625,4.6308,4.6308,4.6308,4.6308,4.6308,4.6308,4.6308,4.6308,4.6308,4.6308,4.6308,4.6308,4.6308,4.6308,4.6308,4.6308,4.6308,4.6308,4.6308,4.6308,4.6308,4.6465,4.6797,4.6816,4.7031,4.7461,4.7461,4.75,4.7578,4.793,4.8105,4.8105,4.8457,4.8672,2.2287,2.2689,2.3042,2.3042,2.3042,2.3042,2.3042,2.387,2.4676,2.4823,2.497,2.5117,2.5264,2.5651,2.613,2.6346,2.6881,2.7362,2.7655,2.7949,2.8221,2.8221,2.8221,2.8221,2.8221,2.843,2.8724,2.9018,2.9312,2.9553,2.97,2.9713,2.9766,2.9913,2.9913,2.9913,2.9913,2.9913,2.9913,2.9913,2.9913,2.9913,2.9913,2.9913,2.9913,2.9913,2.9913,3.0007,3.014,3.014,3.0234,3.0368,3.0368,3.0368,3.055,3.1687,3.4319,3.7567,3.8803,4.1635,4.4687,4.4473,4.4394,4.4394,4.4394,4.4551,4.4726,4.4726,4.5039,4.5371,4.5371,4.5683,4.5996,4.5996,4.6152,4.6308,4.6308,4.6308,4.6308,4.6308,4.6308,4.6308,4.6308,4.6308,4.6308,4.6308,4.6308,4.6308,4.6308,4.6308,4.6308,4.6308,4.6308,4.6308,4.6308,4.6308,4.6387,4.6621,4.6621,4.6816,4.7246,4.7266,4.7461,4.7891,4.791,4.8008,4.8242,4.8457,4.8535,4.8555,4.8769,4.8867,2.0875,2.1228,2.1531,2.159,2.1291,2.1055,2.1456,2.2732,2.4001,2.4316,2.469,2.489,2.489,2.5371,2.5865,2.6159,2.6747,2.7268,2.7562,2.7909,2.8221,2.8221,2.8221,2.8221,2.8221,2.8484,2.8791,2.9018,2.9379,2.9673,2.99,2.9913,2.9913,2.9913,2.9913,2.9913,2.9913,2.9913,2.9913,2.9913,2.9913,2.9913,2.9913,2.9913,2.9953,3.0007,3.0007,3.0181,3.0448,3.0448,3.0581,3.0795,3.0795,3.0795,3.1058,3.2837,3.4969,3.746,3.986,4.2321,4.4453,4.4985,4.5098,4.5019,4.5019,4.5098,4.5176,4.5176,4.5469,4.582,4.582,4.6055,4.6308,4.6308,4.6308,4.6308,4.6308,4.6308,4.6308,4.6308,4.6308,4.6308,4.6308,4.6308,4.6308,4.6308,4.6308,4.6308,4.6308,4.6308,4.6308,4.6308,4.6308,4.6308,4.6308,4.6387,4.6582,4.6914,4.7012,4.7266,4.7695,4.7715,4.791,4.834,4.834,4.8516,4.8867,4.8867,4.8867,4.8867,4.8867,4.8867,2.0827,2.1026,2.1308,2.1543,2.0241,1.9275,2.0854,2.1396,2.1934,2.353,2.4075,2.4289,2.4289,2.477,2.5251,2.5545,2.6306,2.6961,2.7268,2.7872,2.8221,2.8221,2.8221,2.8221,2.8221,2.8657,2.9005,2.9032,2.9553,2.9887,2.9913,2.9913,2.9913,2.9913,2.9913,2.9913,2.9913,2.9913,2.9913,2.9913,2.9913,2.9913,2.9913,2.9913,3.006,3.0314,3.0314,3.0488,3.0755,3.0755,3.0768,3.0795,3.0795,3.0795,3.0795,3.1058,3.2577,3.4879,3.7371,3.9998,4.2623,4.4895,4.5351,4.5019,4.5019,4.5312,4.5625,4.5625,4.5918,4.625,4.625,4.6269,4.6308,4.6308,4.6308,4.6308,4.6308,4.6308,4.6308,4.6308,4.6308,4.6308,4.6308,4.6308,4.6308,4.6308,4.6308,4.6308,4.6308,4.6308,4.6308,4.6308,4.6308,4.6308,4.6308,4.6641,4.6894,4.6933,4.7305,4.7715,4.8125,4.8144,4.8359,4.8789,4.8808,4.8808,4.8867,4.8867,4.8867,4.8867,4.8867,4.8867,1.725,1.7438,1.7581,1.7787,1.7151,1.7001,1.8895,2.0207,2.1535,2.3424,2.3861,2.3995,2.4168,2.4543,2.497,2.5438,2.6106,2.672,2.7201,2.7615,2.7936,2.8207,2.8221,2.8301,2.8404,2.8791,2.9192,2.9539,2.978,2.9913,2.9913,2.9913,2.9913,2.9913,2.9913,2.9913,2.9913,2.9913,2.9913,2.9913,2.9913,2.9913,2.9927,3.01,3.0247,3.0368,3.0541,3.0782,3.1049,3.1049,3.1156,3.1316,3.1316,3.1316,3.1316,3.1316,3.2864,3.5027,3.602,3.9008,4.2494,4.3486,4.4747,4.5801,4.5801,4.5918,4.6055,4.6055,4.6172,4.6308,4.6308,4.6308,4.6308,4.6308,4.6308,4.6308,4.6308,4.6308,4.6308,4.6308,4.6308,4.6308,4.6308,4.6308,4.6308,4.6308,4.6308,4.6308,4.6308,4.6308,4.6406,4.666,4.668,4.668,4.668,4.707,4.7422,4.7676,4.7871,4.8144,4.8574,4.8594,4.8672,4.894,4.8867,4.8867,4.8867,4.8867,4.8867,4.8867,4.8867,4.8867,1.4839,1.495,1.503,1.5208,1.472,1.4868,1.7355,1.8934,2.0399,2.2286,2.3214,2.3559,2.3171,2.3872,2.4703,2.5291,2.5879,2.6493,2.7175,2.7509,2.7802,2.8194,2.8315,2.8364,2.8591,2.8951,2.9379,2.9873,2.9913,2.9913,2.9913,2.9913,2.9913,2.9913,2.9913,2.9913,2.9913,2.9913,2.9913,2.9913,2.9913,2.9967,3.006,3.0261,3.0448,3.0621,3.0835,3.1089,3.1356,3.1356,3.1476,3.1664,3.1664,3.1664,3.1664,3.1664,3.2772,3.4327,3.5059,3.8062,4.1618,4.2353,4.4277,4.6308,4.6308,4.6308,4.6308,4.6308,4.6308,4.6308,4.6308,4.6308,4.6308,4.6308,4.6308,4.6308,4.6308,4.6308,4.6308,4.6308,4.6308,4.6308,4.6308,4.6308,4.6308,4.6308,4.6308,4.6308,4.6308,4.6406,4.6601,4.6894,4.7148,4.7266,4.7129,4.7519,4.7891,4.8183,4.832,4.8535,4.8848,4.8867,4.8867,4.8867,4.8867,4.8867,4.8867,4.8867,4.8867,4.8867,4.8867,4.8867,1.4805,1.4792,1.477,1.5021,1.3609,1.3045,1.6697,1.75,1.802,1.9761,2.1837,2.2754,2.0874,2.2553,2.4396,2.4983,2.5571,2.6345,2.7148,2.7509,2.7802,2.8194,2.8417,2.8604,2.8604,2.9138,2.9606,2.99,2.9913,2.9913,2.9913,2.9913,2.9913,2.9913,2.9913,2.9913,2.9913,2.9913,2.9913,2.9913,2.9913,3.0074,3.0354,3.0354,3.0675,3.1223,3.1223,3.1383,3.1664,3.1664,3.1664,3.1664,3.1664,3.1664,3.1664,3.1664,3.1758,3.2029,3.4499,3.6975,3.9449,4.1816,4.4277,4.6308,4.6308,4.6308,4.6308,4.6308,4.6308,4.6308,4.6308,4.6308,4.6308,4.6308,4.6308,4.6308,4.6308,4.6308,4.6308,4.6308,4.6308,4.6308,4.6308,4.6308,4.6308,4.6308,4.6308,4.6308,4.6308,4.666,4.6933,4.6933,4.7695,4.8027,4.7617,4.7949,4.8203,4.8203,4.8613,4.8848,4.8867,4.8867,4.8867,4.8867,4.8867,4.8867,4.8867,4.8867,4.8867,4.8867,4.8867,4.8867,1.2597,1.2611,1.2648,1.2809,1.2335,1.2416,1.4983,1.6473,1.748,1.797,2.0759,2.2558,2.1066,2.2527,2.4235,2.5211,2.5705,2.6266,2.7148,2.7509,2.7802,2.8194,2.8591,2.8898,2.8898,2.9432,2.982,2.9913,2.9913,2.9913,2.9913,2.9913,2.9913,2.9913,2.9913,2.9913,2.9913,2.9913,2.9913,2.9913,3.0127,3.0274,3.0381,3.0768,3.1049,3.1236,3.1436,3.1583,3.1664,3.1664,3.1664,3.1664,3.1664,3.1664,3.1664,3.1664,3.1664,3.1853,3.2583,3.442,3.6883,3.9341,4.1816,4.41,4.5763,4.6308,4.6308,4.6308,4.6308,4.6308,4.6308,4.6308,4.6308,4.6308,4.6308,4.6308,4.6308,4.6308,4.6308,4.6308,4.6308,4.6308,4.6308,4.6308,4.6308,4.6308,4.6308,4.6406,4.6699,4.6855,4.7148,4.7734,4.8047,4.8164,4.8027,4.8398,4.8652,4.8652,4.8789,4.8867,4.8867,4.8867,4.8867,4.8867,4.8867,4.8867,4.8867,4.8867,4.8867,4.8867,4.8867,4.8867,1.1606,1.1619,1.164,1.1728,1.1687,1.2136,1.4162,1.5364,1.6122,1.6122,1.9206,2.1376,1.9949,2.1939,2.4115,2.517,2.5692,2.6266,2.7148,2.7509,2.7856,2.827,2.8751,2.9085,2.9192,2.9633,2.9913,2.9913,2.9913,2.9913,2.9913,2.9913,2.9913,2.9913,2.9913,2.9913,2.9913,2.9913,2.9967,3.0087,3.0274,3.0474,3.0702,3.1062,3.1289,3.1396,3.1583,3.1664,0.0,3.1664,3.1664,3.1664,3.1664,3.1664,3.1664,3.1664,3.1664,3.1664,3.1664,3.3323,3.5695,3.817,4.1259,4.4277,4.5851,4.6308,4.6308,4.6308,4.6308,4.6308,4.6308,4.6308,4.6308,4.6308,4.6308,4.6308,4.6308,4.6308,4.6308,4.6308,4.6308,4.6308,4.6308,4.6308,4.6348,4.6504,4.6543,4.6699,4.7129,4.7324,4.7617,4.8144,4.8359,4.8457,4.8457,4.8711,4.8867,4.8867,4.8867,4.8867,4.8867,4.8867,4.8867,4.8867,4.8867,4.8867,4.8867,4.8867,4.8867,4.8867,4.8867,4.8867,0.0,1.1606,1.1619,1.1619,1.1619,1.2043,1.38,1.429,0.0,1.4236,1.7268,1.9458,1.8021,2.1007,2.397,2.497,2.5625,2.6385,2.7148,2.7535,2.7949,2.8537,2.8858,2.9152,2.9459,2.9753,2.9913,2.9913,2.9913,2.9913,2.9913,2.9913,2.9913,2.9913,2.9913,2.9913,2.9913,2.994,3.0087,3.0354,3.0408,3.0702,3.1223,3.1249,3.141,3.1664,3.1664,3.1664,3.1664,3.1664,3.1664,3.1664,3.1664,3.1664,3.1664,3.1664,3.1664,3.1664,3.1664,3.3135,3.5509,3.817,4.2174,4.6026,4.6201,4.6308,4.6308,4.6308,4.6308,4.6308,4.6308,4.6308,4.6308,4.6308,4.6308,4.6308,4.6308,4.6308,4.6308,4.6308,4.6308,4.6308,4.6308,4.6328,4.6484,4.6875,4.6953,4.7129,4.7558,4.7969,4.8223,4.8242,4.8613,4.8867,4.8867,4.8867,4.8867,4.8867,4.8867,4.8867,4.8867,4.8867,4.8867,4.8867,4.8867,4.8867,4.8867,4.8867,4.8867,4.8867,4.8867,4.8867,1.1233,0.0,1.1619,1.1619,1.1619,1.1691,0.0,1.3381,1.4047,1.2685,1.5426,1.8113,1.8153,2.0343,2.2819,2.5063,2.6092,2.6774,2.7201,2.7709,2.8177,2.8564,2.8858,2.9152,2.9459,2.9753,2.9913,2.9913,2.9913,2.9913,2.9913,2.9913,2.9913,2.9913,2.9913,2.9913,2.9913,3.014,3.0287,3.0368,3.0808,3.1089,3.1236,3.1463,3.1597,3.1664,3.1664,3.1664,3.1664,3.1664,3.1664,3.1664,3.1664,3.1664,3.1664,3.1664,3.1664,3.1664,3.1664,3.2029,3.3229,3.762,4.0988,4.3815,4.5744,4.6308,4.6308,4.6308,4.6308,4.6308,4.6308,4.6308,4.6308,4.6308,4.6308,4.6308,4.6308,4.6308,4.6308,4.6308,4.6308,4.6308,4.6308,4.6562,4.6816,4.6914,4.7207,4.7578,4.8008,4.8144,4.834,4.8672,4.8789,4.8867,4.8867,4.8867,4.8867,4.8867,4.8867,4.8867,4.8867,4.8867,4.8867,4.8867,4.8867,4.8867,4.8867,4.8867,4.8867,4.8867,4.8867,4.8867,1.1043,1.1287,1.1511,1.1511,1.1565,1.1619,1.1619,1.2446,1.2944,1.1955,1.4916,1.7854,1.8448,2.0975,2.3605,2.5617,2.6426,2.7014,2.7671,2.802,2.8341,2.8577,2.8858,2.9152,2.9459,2.9753,2.9913,2.9913,2.9913,2.9913,2.9913,2.9913,2.9913,2.9913,2.9913,2.998,3.0114,3.0274,3.0488,3.0755,3.1076,3.1289,3.1436,3.1597,3.1664,3.1664,3.1664,3.1664,3.1664,3.1664,3.1664,3.1664,3.1664,3.1664,3.1664,3.1664,3.1664,3.1664,3.1664,3.2408,3.3966,3.7803,4.0627,4.3086,4.5568,4.6308,4.6308,4.6308,4.6308,4.6308,4.6308,4.6308,4.6308,4.6308,4.6308,4.6308,4.6308,4.6308,4.6308,4.6308,4.6308,4.6367,4.6562,4.6777,4.707,4.7461,4.7715,4.8027,4.8457,4.8496,4.8594,4.8828,4.8867,4.8867,4.8867,4.8867,4.8867,4.8867,4.8867,4.8867,4.8867,4.8867,4.8867,4.8867,4.8867,4.8867,4.8867,4.8867,4.8867,4.8867,4.8867,4.8867,1.0873,1.1151,1.1362,1.1389,1.1504,1.1626,1.1647,1.1742,1.1843,1.1891,1.4645,1.7462,1.8607,2.1592,2.4454,2.6147,2.6707,2.7228,2.8114,2.8221,2.827,2.8631,2.8885,2.9179,2.9513,2.9766,2.9913,2.9913,2.9913,2.9913,2.9913,2.9913,2.9913,2.9913,2.9967,3.0127,3.0421,3.0421,3.0702,3.1223,3.1276,3.1423,3.1664,3.1664,3.1664,3.1664,3.1664,3.1664,3.1664,3.1664,3.1664,3.1664,3.1664,3.1664,3.1664,3.1664,3.1664,3.1664,3.1664,3.3041,3.5152,3.762,4.0084,4.2532,4.5021,4.6026,4.6308,4.6308,4.6308,4.6308,4.6308,4.6308,4.6308,4.6308,4.6308,4.6308,4.6308,4.6308,4.6308,4.6308,4.6348,4.6504,4.6875,4.7031,4.7363,4.8105,4.8262,4.8437,4.8808,4.8867,4.8867,4.8867,4.8867,4.8867,4.8867,4.8867,4.8867,4.8867,4.8867,4.8867,4.8867,4.8867,4.8867,4.8867,4.8867,4.8867,4.8867,4.8867,4.8867,4.8867,4.8867,4.8867,1.0847,1.107,1.1226,1.1362,1.1504,1.1653,1.1769,1.1816,1.1904,1.2169,1.2782,1.446,1.8259,1.9938,2.1986,2.5793,2.7054,2.7696,2.8167,2.8221,2.835,2.8911,2.9005,2.9245,2.9793,2.9887,2.9913,2.9913,2.9913,2.9913,2.9913,2.9913,2.9913,2.9913,3.0167,3.0434,3.0728,3.0728,3.0889,3.1223,3.1476,3.1623,3.1664,3.1664,3.1664,3.1664,3.1664,3.1664,3.1664,3.1664,3.1664,3.1664,3.1664,3.1664,3.1664,3.1664,3.1664,3.1664,3.1664,3.1948,3.2677,3.5059,3.7528,3.9994,4.2443,4.4649,4.6308,4.6308,4.6308,4.6308,4.6308,4.6308,4.6308,4.6308,4.6308,4.6308,4.6308,4.6308,4.6308,4.6308,4.6582,4.6855,4.6914,4.7539,4.8047,4.8183,4.8516,4.8789,4.8848,4.8867,4.8867,4.8867,4.8867,4.8867,4.8867,4.8867,4.8867,4.8867,4.8867,4.8867,4.8867,4.8867,4.8867,4.8867,4.8867,4.8867,4.8867,4.8867,4.8867,4.8867,4.8867,4.8867,1.084,1.1056,1.1219,1.1457,1.1626,1.1775,1.1925,1.2081,1.223,1.2372,1.3501,1.5458,1.8976,2.0735,2.2867,2.6515,2.7575,2.7989,2.8207,2.8283,2.8551,2.8991,2.9179,2.9446,2.9873,2.9913,2.9913,2.9913,2.9913,2.9913,2.9913,2.9913,2.9913,2.9913,3.0207,3.0501,3.0795,3.0942,3.1169,3.1463,3.1597,3.1664,3.1664,3.1664,3.1664,3.1664,3.1664,3.1664,3.1664,3.1664,3.1664,3.1664,3.1664,3.1664,3.1664,3.1664,3.1664,3.1664,3.1664,3.1664,3.2124,3.4514,3.6975,3.9449,4.1905,4.4365,4.6308,4.6308,4.6308,4.6308,4.6308,4.6308,4.6308,4.6308,4.6308,4.6308,4.6308,4.6308,4.6367,4.6601,4.6797,4.707,4.7539,4.7949,4.8281,4.8516,4.873,4.8867,4.8867,4.8867,4.8867,4.8867,4.8867,4.8867,4.8867,4.8867,4.8867,4.8867,4.8867,4.8867,4.8867,4.8867,4.8867,4.8867,4.8867,4.8867,4.8867,4.8867,4.8867,4.8867,4.8867,4.8867,1.0955,1.1131,1.1341,1.1647,1.1775,1.1891,1.2115,1.2338,1.2522,1.2596,1.4561,1.703,1.9594,2.2301,2.4951,2.742,2.7989,2.8221,2.8221,2.8417,2.8711,2.9005,2.9299,2.9606,2.9887,2.9913,2.9913,2.9913,2.9913,2.9913,2.9913,2.9913,2.9953,3.002,3.0301,3.0595,3.0889,3.1183,3.145,3.1664,3.1664,3.1664,3.1664,3.1664,3.1664,3.1664,3.1664,3.1664,3.1664,3.1664,3.1664,3.1664,3.1664,3.1664,3.1664,3.1664,3.1664,3.1664,3.1664,3.1664,3.2043,3.3873,3.6159,3.8445,4.0339,4.264,4.4561,4.4561,4.5021,4.5568,4.6114,4.6308,4.6308,4.6308,4.6308,4.6308,4.6308,4.6387,4.6543,4.6875,4.709,4.7441,4.8086,4.8281,4.8476,4.8808,4.8867,4.8867,4.8867,4.8867,4.8867,4.8867,4.8867,4.8867,4.8867,4.8867,4.8867,4.8867,4.8867,4.8867,4.8867,4.8867,4.8867,4.8867,4.8867,4.8867,4.8867,4.8867,4.8867,4.8867,4.8867,4.8867,1.1111,1.1362,1.166,1.1959,1.1932,1.1945,1.2372,1.2488,1.2583,1.2868,1.5004,1.752,1.9735,2.4056,2.7543,2.8056,2.8207,2.8221,2.8221,2.8417,2.8711,2.9005,2.9299,2.9606,2.9887,2.9913,2.9913,2.9913,2.9913,2.9913,2.9913,2.9913,3.0047,3.0314,3.0608,3.0902,3.1196,3.149,3.165,3.1664,3.1664,3.1664,3.1664,3.1664,3.1664,3.1664,3.1664,3.1664,3.1664,3.1664,3.1664,3.1664,3.1664,3.1664,3.1664,3.1664,3.1664,3.1664,3.1664,3.1664,3.1758,3.1948,3.3591,3.5602,3.5788,3.7528,3.954,3.954,4.1169,4.3353,4.5656,4.6308,4.6308,4.6308,4.6308,4.6308,4.6308,4.6601,4.6894,4.6914,4.7578,4.8144,4.8203,4.8535,4.8828,4.8848,4.8867,4.8867,4.8867,4.8867,4.8867,4.8867,4.8867,4.8867,4.8867,4.8867,4.8867,4.8867,4.8867,4.8867,4.8867,4.8867,4.8867,4.8867,4.8867,4.8867,4.8867,4.8867,4.8867,4.8867,4.8867,4.8867,1.124,1.1457,1.1735,1.2216,1.2291,1.2318,1.2583,1.2786,1.2976,1.3193,1.5267,1.8211,2.2135,2.5666,2.8016,2.8207,2.8221,2.8301,2.8404,2.8684,2.8978,2.9285,2.9579,2.9793,2.99,2.9913,2.9913,2.9913,2.9913,2.9913,2.9913,2.9913,3.0047,3.0354,3.0635,3.0929,3.1223,3.1517,3.1664,3.1664,3.1664,3.1664,3.1664,3.1664,3.1664,3.1664,3.1664,3.1664,3.1664,3.1664,3.1664,3.1664,3.1664,3.1664,3.1664,3.1664,3.1664,3.1664,3.1664,3.1664,3.1664,3.1664,3.3323,3.5323,3.5323,3.7067,3.8993,3.8993,3.963,4.0898,4.3371,4.5109,4.6308,4.6308,4.6308,4.6308,4.6308,4.6641,4.7012,4.7285,4.7812,4.8301,4.8574,4.875,4.8867,4.8867,4.8867,4.8867,4.8867,4.8867,4.8867,4.8867,4.8867,4.8867,4.8867,4.8867,4.8867,4.8867,4.8867,4.8867,4.8867,4.8867,4.8867,4.8867,4.8867,4.8867,4.8867,4.8867,4.8867,4.8867,4.8867,4.8867,1.1321,1.1606,1.1932,1.2332,1.2576,1.2752,1.2908,1.3098,1.3288,1.3444,1.5447,1.896,2.4591,2.6449,2.7363,2.8052,2.8221,2.8243,2.8564,2.8858,2.9152,2.9446,2.974,2.9913,2.9913,2.9913,2.9913,2.9913,2.9913,2.9913,2.9913,2.9913,3.01,3.0488,3.0688,3.0982,3.1356,3.157,3.1664,3.1664,3.1664,3.1664,3.1664,3.1664,3.1664,3.1664,3.1664,3.1664,3.1664,3.1664,3.1664,3.1664,3.1664,3.1664,3.1664,3.1664,3.1664,3.1664,3.1664,3.1664,3.1664,3.1664,3.2866,3.4139,3.4139,3.5338,3.6698,3.6698,3.7252,3.8246,3.9886,4.2174,4.4011,4.4011,4.4011,4.4048,4.409,4.5069,4.6043,4.6462,4.7559,4.8516,4.8808,4.8867,4.8867,4.8867,4.8867,4.8867,4.8867,4.8867,4.8867,4.8867,4.8867,4.8867,4.8867,4.8867,4.8867,4.8867,4.8867,4.8867,4.8867,4.8867,4.8867,4.8867,4.8867,4.8867,4.8867,4.8867,4.8867,4.8867,4.8867,4.8867,1.1348,1.183,1.2291,1.2298,1.2739,1.3214,1.337,1.3403,1.3444,1.36,1.5724,1.9685,2.6876,2.6321,2.5458,2.7799,2.8234,2.8341,2.8564,2.8858,2.9152,2.9459,2.974,2.9913,2.9913,2.9913,2.9913,2.9913,2.9913,2.9913,2.9913,2.9913,3.0194,3.0768,3.0795,3.1076,3.1664,3.1664,3.1664,3.1664,3.1664,3.1664,3.1664,3.1664,3.1664,3.1664,3.1664,3.1664,3.1664,3.1664,3.1664,3.1664,3.1664,3.1664,3.1664,3.1664,3.1664,3.1664,3.1664,3.1664,3.1664,3.1664,3.1664,3.1664,3.1664,3.1664,3.1664,3.1664,3.3417,3.523,3.523,3.7067,3.8902,3.8993,3.8993,3.9092,3.9346,4.1764,4.392,4.4317,4.6837,4.8848,4.8848,4.8848,4.8867,4.8867,4.8867,4.8867,4.8867,4.8867,4.8867,4.8867,4.8867,4.8867,4.8867,4.8867,4.8867,4.8867,4.8867,4.8867,4.8867,4.8867,4.8867,4.8867,4.8867,4.8867,4.8867,4.8867,4.8867,4.8867,4.8867,4.8867,1.1484,1.1837,1.223,1.2657,1.2895,1.3119,1.3478,1.3559,1.4546,1.8095,1.9476,2.1742,2.7168,2.7617,2.7363,2.8052,2.8323,2.8577,2.8871,2.9165,2.9459,2.9753,2.986,2.9913,2.9913,2.9913,2.9913,2.9913,2.9913,2.9913,2.9913,3.0114,3.0408,3.0782,3.0996,3.1276,3.1664,3.1664,3.1664,3.1664,3.1664,3.1664,3.1664,3.1664,3.1664,3.1664,3.1664,3.1664,3.1664,3.1664,3.1664,3.1664,3.1664,3.1664,3.1664,3.1664,3.1664,3.1664,3.1664,3.1664,3.1664,3.1664,3.1664,3.1664,3.1664,3.1664,3.1664,3.1664,3.2219,3.2772,3.2772,3.3323,3.4701,3.817,3.9175,3.9297,3.9396,4.0467,4.1501,4.1619,4.4039,4.6149,4.6149,4.7698,4.8867,4.8867,4.8867,4.8867,4.8867,4.8867,4.8867,4.8867,4.8867,4.8867,4.8867,4.8867,4.8867,4.8867,4.8867,4.8867,4.8867,4.8867,4.8867,4.8867,4.8867,4.8867,4.8867,4.8867,4.8867,4.8867,4.8867,4.8867,1.1538,1.1884,1.2271,1.2745,1.2956,1.3159,1.3614,1.4429,1.6321,2.0265,2.112,2.26,2.735,2.7448,2.7148,2.8212,2.8484,2.8751,2.9165,2.9366,2.9593,2.9887,2.9913,2.9913,2.9913,2.9913,2.9913,2.9913,2.9913,2.9913,2.9913,3.0194,3.0488,3.0782,3.1076,3.137,3.1664,3.1664,3.1664,3.1664,3.1664,3.1664,3.1664,3.1664,3.1664,3.1664,3.1664,3.1664,3.1664,3.1664,3.1664,3.1664,3.1664,3.1664,3.1664,3.1664,3.1664,3.1664,3.1664,3.1664,3.1664,3.1664,3.1664,3.1664,3.1664,3.1664,3.1664,3.1664,3.1664,3.1664,3.1664,3.1757,3.2586,3.5518,3.6417,3.6537,3.6811,3.8021,3.9117,3.926,4.1565,4.3832,4.4796,4.6336,4.7307,4.7307,4.6523,4.5867,4.5773,4.6728,4.6915,4.5961,4.7698,4.8459,4.74,4.8273,4.8867,4.8867,4.8867,4.8867,4.8867,4.8867,4.8867,4.8867,4.8867,4.8867,4.8867,4.8867,4.8867,4.8867,4.8867,4.8867,1.1518,1.1925,1.2345,1.2651,1.2983,1.3342,1.3749,1.5926,1.8501,2.0749,2.1394,2.2858,2.7363,2.6516,2.5848,2.8208,2.8657,2.8871,2.9406,2.9499,2.9619,2.9887,2.9913,2.9913,2.9913,2.9913,2.9913,2.9913,2.9913,2.9913,2.9913,3.0221,3.0515,3.0782,3.1102,3.1396,3.1664,3.1664,3.1664,3.1664,3.1664,3.1664,3.1664,3.1664,3.1664,3.1664,3.1664,3.1664,3.1664,3.1664,3.1664,3.1664,3.1664,3.1664,3.1664,3.1664,3.1664,3.1664,3.1664,3.1664,3.1664,3.1664,3.1664,3.1664,3.1664,3.1664,3.1664,3.1664,3.1664,3.1677,3.1704,3.1904,3.2118,3.2171,3.2185,3.2332,3.2866,3.4913,3.6646,3.6942,3.9026,4.162,4.3927,4.4494,4.4683,4.4683,4.2673,4.1139,4.1156,4.3166,4.3737,4.1428,4.5379,4.7307,4.5173,4.7195,4.8663,4.8848,4.8867,4.8867,4.8867,4.8867,4.8867,4.8867,4.8867,4.8867,4.8867,4.8867,4.8867,4.8867,4.8867,4.8867,1.1389,1.1769,1.221,1.2623,1.3214,1.3722,1.3817,1.7209,2.0557,2.1125,2.2697,2.4861,2.7701,2.7997,2.7912,2.8505,2.8991,2.9339,2.9459,2.9673,2.9847,2.9913,2.9913,2.9913,2.9913,2.9913,2.9913,2.9913,2.9913,2.9913,2.9913,3.0408,3.0728,3.0795,3.1303,3.1597,3.1664,3.1664,3.1664,3.1664,3.1664,3.1664,3.1664,3.1664,3.1664,3.1664,3.1664,3.1664,3.1664,3.1664,3.1664,3.1664,3.1664,3.1664,3.1664,3.1664,3.1664,3.1664,3.1664,3.1664,3.1664,3.1664,3.1664,3.1664,3.1664,3.1664,3.1664,3.1664,3.1664,3.1717,3.1944,3.2051,3.2225,3.2679,3.2786,3.2826,3.2946,3.3643,3.4204,3.4272,3.6312,3.8344,3.8816,4.0657,4.2003,4.2003,4.1524,4.1139,4.1139,4.162,4.1812,4.1235,4.2195,4.3452,4.489,4.5567,4.6728,4.8755,4.8867,4.8867,4.8867,4.8867,4.8867,4.8867,4.8867,4.8867,4.8867,4.8867,4.8867,4.8867,4.8867,4.8867,1.1348,1.1721,1.2189,1.2712,1.3342,1.3838,1.3838,1.7665,2.1221,2.1221,2.3984,2.6758,2.7968,2.839,2.8657,2.8791,2.9192,2.9526,2.9673,2.982,2.9913,2.9913,2.9913,2.9913,2.9913,2.9913,2.9913,2.9913,2.9913,2.9913,2.9913,3.0474,3.0795,3.0795,3.137,3.1664,3.1664,3.1664,3.1664,3.1664,3.1664,3.1664,3.1664,3.1664,3.1664,3.1664,3.1664,3.1664,3.1664,3.1664,3.1664,3.1664,3.1664,3.1664,3.1664,3.1664,3.1664,3.1664,3.1664,3.1664,3.1664,3.1664,3.1664,3.1664,3.1664,3.1664,3.1704,3.1837,3.1877,3.1944,3.2238,3.2412,3.2599,3.2906,3.2973,3.3013,3.316,3.3307,3.3414,3.3414,3.4471,3.5833,3.7085,3.8441,3.9302,3.9302,3.8246,3.7478,3.7478,3.8539,3.8831,3.7576,3.969,4.1235,4.1332,4.3529,4.5567,4.6915,4.8181,4.8867,4.8867,4.8867,4.8867,4.8867,4.8867,4.8867,4.8867,4.8867,4.8867,4.8867,4.8867,4.8867,1.1307,1.1721,1.2237,1.2899,1.3363,1.3777,1.3831,1.7639,2.1171,2.1211,2.4935,2.8221,2.8221,2.8444,2.8764,2.9005,2.9325,2.9646,2.9887,2.9913,2.9913,2.9913,2.9913,2.9913,2.9913,2.9913,2.9913,2.9913,2.9913,2.9913,2.9913,3.0474,3.0795,3.0795,3.137,3.1664,3.1664,3.1664,3.1664,3.1664,3.1664,3.1664,3.1664,3.1664,3.1664,3.1664,3.1664,3.1664,3.1664,3.1664,3.1664,3.1664,3.1664,3.1664,3.1664,3.1664,3.1664,3.1664,3.1664,3.1664,3.1664,3.1664,3.1664,3.1664,3.1664,3.1704,3.1797,3.2038,3.2144,3.2251,3.2545,3.2799,3.2986,3.304,3.3053,3.312,3.336,3.3414,3.3414,3.3414,3.3414,3.4086,3.6214,3.6608,3.6608,3.6608,3.477,3.3414,3.3414,3.5253,3.5833,3.36,3.7282,3.9108,3.7478,4.1235,4.4021,4.4984,4.7008,4.8459,4.8848,4.8867,4.8867,4.8867,4.8867,4.8867,4.8867,4.8867,4.8867,4.8867,4.8867,4.8867,1.1151,1.1714,1.2372,1.284,1.3214,1.3526,1.3783,1.7537,2.1064,2.1181,2.4935,2.8221,2.8221,2.8604,2.8991,2.9032,2.9499,2.9873,2.9913,2.9913,2.9913,2.9913,2.9913,2.9913,2.9913,2.9913,2.9913,2.9913,2.9913,2.9913,2.9913,3.0474,3.0795,3.0795,3.137,3.1664,3.1664,3.1664,3.1664,3.1664,3.1664,3.1664,3.1664,3.1664,3.1664,3.1664,3.1664,3.1664,3.1664,3.1664,3.1664,3.1664,3.1664,3.1664,3.1664,3.1664,3.1664,3.1664,3.1664,3.1664,3.1664,3.1664,3.1664,3.1664,3.1664,3.1851,3.2051,3.2091,3.2291,3.2559,3.2839,3.2946,3.304,3.3293,3.336,3.336,3.34,3.3414,3.3414,3.3414,3.3414,3.3514,3.39,3.39,3.39,3.39,3.36,3.3414,3.3414,3.37,3.38,3.3414,3.3987,3.5253,3.7183,3.7953,4.0271,4.4701,4.5361,4.6523,4.8848,4.8867,4.8867,4.8867,4.8867,4.8867,4.8867,4.8867,4.8867,4.8867,4.8867,4.8867,1.143,1.1904,1.24,1.2847,1.318,1.3478,1.3777,1.6502,1.9418,2.0912,2.3898,2.6673,2.7968,2.8497,2.8858,2.9018,2.9392,2.9726,2.99,2.9913,2.9913,2.9913,2.9913,2.9913,2.9913,2.9913,2.9913,2.9913,2.9913,2.9913,2.9913,3.0474,3.0795,3.0795,3.137,3.1664,3.1664,3.1664,3.1664,3.1664,3.1664,3.1664,3.1664,3.1664,3.1664,3.1664,3.1664,3.1664,3.1664,3.1664,3.1664,3.1664,3.1664,3.1664,3.1664,3.1664,3.1664,3.1664,3.1664,3.1664,3.1664,3.1664,3.1784,3.1904,3.1904,3.2118,3.2385,3.2545,3.2692,3.2853,3.3146,3.3213,3.3253,3.3387,3.3414,3.3414,3.3414,3.3414,3.3414,3.3414,3.3414,3.3414,3.3414,3.3414,3.3414,3.3414,3.3414,3.3414,3.3414,3.3414,3.3414,3.3414,3.3414,3.39,3.5054,3.6425,3.8261,4.0577,4.2099,4.3357,4.4512,4.5961,4.6728,4.6728,4.8181,4.8867,4.8867,4.8867,4.8867,4.8867,4.8867,4.8867,1.1579,1.1938,1.2284,1.2732,1.3071,1.3363,1.3661,1.5647,1.8154,2.066,2.2997,2.5385,2.7799,2.839,2.8684,2.8898,2.9179,2.9472,2.9766,2.9806,2.9833,2.9913,2.9913,2.9913,2.9913,2.9913,2.9913,2.9913,2.9913,2.9913,2.9913,3.0474,3.0795,3.0795,3.137,3.1664,3.1664,3.1664,3.1664,3.1664,3.1664,3.1664,3.1664,3.1664,3.1664,3.1664,3.1664,3.1664,3.1664,3.1664,3.1664,3.1664,3.1664,3.1664,3.1664,3.1664,3.1664,3.1677,3.1757,3.1784,3.1797,3.1864,3.2038,3.2211,3.2211,3.2425,3.2706,3.2919,3.3026,3.3133,3.336,3.3414,3.3414,3.3414,3.3414,3.3414,3.3414,3.3414,3.3414,3.3414,3.3414,3.3414,3.3414,3.3414,3.3414,3.3414,3.3414,3.3414,3.3414,3.3414,3.3414,3.3414,3.3414,3.3414,3.3414,3.5167,3.6637,3.7312,3.9123,4.0464,4.1139,4.3054,4.4305,4.4984,4.6915,4.8273,4.8867,4.8867,4.8867,4.8867,4.8867,4.8867,1.1328,1.1633,1.1965,1.2413,1.2759,1.3064,1.3356,1.5478,1.8028,2.0517,2.2961,2.5385,2.7799,2.839,2.8604,2.8631,2.8871,2.9165,2.9459,2.9499,2.9606,2.9887,2.9913,2.9913,2.9913,2.9913,2.9913,2.9913,2.9913,2.9913,2.9913,3.0474,3.0795,3.0795,3.137,3.1664,3.1664,3.1664,3.1664,3.1664,3.1664,3.1664,3.1664,3.1664,3.1664,3.1664,3.1664,3.1664,3.1664,3.1664,3.1664,3.1664,3.1664,3.1664,3.1664,3.1664,3.1664,3.1704,3.1984,3.2078,3.2131,3.2412,3.2603,3.2519,3.2519,3.2719,3.2959,3.2973,3.3173,3.3387,3.3414,3.3414,3.3414,3.3414,3.3414,3.3414,3.3414,3.3414,3.3414,3.3414,3.3414,3.3414,3.3414,3.3414,3.3414,3.3414,3.3414,3.3414,3.3414,3.3414,3.3414,3.3414,3.3414,3.3414,3.3414,3.3514,3.467,3.7183,3.7478,3.8636,4.1139,4.1332,4.2482,4.4984,4.5173,4.6429,4.8867,4.8867,4.8867,4.8867,4.8867,4.8867,1.1192,1.1463,1.1803,1.225,1.2515,1.2793,1.3288,1.4137,1.5981,2.0099,2.1715,2.3535,2.7493,2.8315,2.8377,2.8577,2.8698,2.8858,2.9165,2.9205,2.9312,2.9606,2.9633,2.9713,2.99,2.9913,2.9913,2.9913,2.9913,2.9913,2.9913,3.0474,3.0795,3.0795,3.137,3.1664,3.1664,3.1664,3.1664,3.1664,3.1664,3.1664,3.1664,3.1664,3.1664,3.1677,3.1864,3.1837,3.1664,3.1664,3.1664,3.169,3.1877,3.1944,3.1971,3.2158,3.2238,3.2251,3.2345,3.2385,3.2412,3.2519,3.2679,3.2826,3.2826,3.3026,3.3253,3.3253,3.3334,3.3414,3.3414,3.3414,3.3414,3.3414,3.3414,3.3414,3.3414,3.3414,3.3414,3.3414,3.3414,3.3414,3.3414,3.3414,3.3414,3.3414,3.3414,3.3414,3.3414,3.3414,3.3414,3.3414,3.3414,3.3414,3.3414,3.3414,3.38,3.477,3.477,3.5253,3.6129,3.7772,3.9108,4.0078,4.3339,4.6336,4.8867,4.8867,4.8867,4.8867,4.8867,4.8867,1.105,1.1314,1.1626,1.1979,1.2284,1.2603,1.301,1.3821,1.5692,1.9879,2.141,2.3315,2.7265,2.8154,2.8301,2.8417,2.8457,2.8551,2.8858,2.8898,2.9005,2.9299,2.9339,2.9446,2.974,2.9766,2.9806,2.9913,2.9913,2.9913,2.9913,3.0474,3.0889,3.1076,3.1463,3.1664,3.1664,3.1664,3.1664,3.1664,3.1664,3.1664,3.1677,3.177,3.181,3.1837,3.2118,3.2091,3.1824,3.1917,3.1971,3.1984,3.2171,3.2251,3.2278,3.2478,3.2643,3.2656,3.2652,3.2692,3.2706,3.2799,3.2973,3.312,3.312,3.3253,3.3414,3.3414,3.3414,3.3414,3.3414,3.3414,3.3414,3.3414,3.3414,3.3414,3.3414,3.3414,3.3414,3.3414,3.3414,3.3414,3.3414,3.3414,3.3414,3.3414,3.3414,3.3414,3.3414,3.3414,3.3414,3.3414,3.3414,3.3414,3.3414,3.3414,3.3414,3.3414,3.3414,3.3414,3.3414,3.5054,3.6411,3.7282,4.1524,4.4984,4.7586,4.8459,4.8867,4.8867,4.8867,4.8867,0.0,0.0,0.0,1.1572,1.2047,1.2488,1.2501,1.4525,1.7185,1.9563,2.2245,2.4783,2.7254,2.7923,2.8207,2.8207,2.8221,2.8243,2.8551,2.8591,2.8698,2.8991,2.9032,2.9138,2.9446,2.9486,2.9606,2.9887,2.9913,2.9913,2.9913,3.0474,3.1062,3.165,3.1664,3.1664,3.1664,3.1664,3.1664,3.1664,3.1664,3.1677,3.169,3.1971,3.2104,3.2131,3.2425,3.2398,3.2144,3.2425,3.2643,3.2643,3.2656,3.2656,3.2656,3.267,3.267,3.271,3.2893,3.2986,3.304,3.332,3.3414,3.3414,3.3414,3.3414,3.3414,3.3414,3.3414,3.3414,3.3414,3.3414,3.3414,3.3414,3.3414,3.3414,3.3414,3.3414,3.3414,3.3414,3.3414,3.3414,3.3414,3.3414,3.3414,3.3414,3.3414,3.3414,3.3414,3.3414,3.3414,3.3414,3.3414,3.3414,3.3414,3.3414,3.3414,3.3414,3.3414,3.3414,3.3414,3.3414,3.4571,3.7183,3.9706,4.2307,4.489,4.7605,4.8867,4.8867,4.8867,4.8867,1.0772,0.0,0.0,0.0,0.0,0.0,1.2427,1.3092,1.4829,1.9201,2.07,2.2501,2.6626,2.7629,2.7816,2.7816,2.8003,2.8261,2.8257,2.827,2.839,2.8684,2.8724,2.8845,2.9138,2.9352,2.9513,2.9606,2.9793,2.9913,2.9913,3.0474,3.1062,3.165,3.1664,3.1664,3.1664,3.1664,3.1664,3.1664,3.1664,3.1784,3.1984,3.2064,3.2225,3.2438,3.2732,3.2812,3.2732,3.2599,3.2643,3.267,3.2772,3.2866,3.2879,3.3093,3.3173,3.3187,3.3267,3.3293,3.3307,3.3387,3.3414,3.3414,3.3414,3.3414,3.3414,3.3414,3.3414,3.3414,3.3414,3.3414,3.3414,3.3414,3.3414,3.3414,3.3414,3.3414,3.3414,3.3414,3.3414,3.3414,3.3414,3.3414,3.3414,3.3414,3.3414,3.3414,3.3414,3.3414,3.3414,3.3414,3.3414,3.3414,3.3414,3.3414,3.3414,3.3414,3.3414,3.3414,3.3414,3.3414,3.37,3.4471,3.7002,3.9609,4.229,4.6728,4.8867,4.8867,4.8867,4.8867,1.0738,1.0894,1.1111,1.126,0.0,0.0,1.3273,1.4373,1.6214,2.0059,2.1873,2.3555,2.6425,2.7241,2.7522,2.7522,2.7669,2.7939,2.8194,2.8221,2.8301,2.839,2.8417,2.8524,2.8831,2.9018,2.9219,2.9459,2.9633,2.9847,3.0087,3.0541,3.1009,3.1476,3.1597,3.1664,3.1664,3.1664,3.1664,3.1664,3.1797,3.1944,3.2104,3.2358,3.2559,3.2746,3.3026,3.316,3.3146,3.2973,3.2906,3.2919,3.3093,3.316,3.3187,3.3347,3.3414,3.3414,3.3414,3.3414,3.3414,3.3414,3.3414,3.3414,3.3414,3.3414,3.3414,3.3414,3.3414,3.3414,3.3414,3.3414,3.3414,3.3414,3.3414,3.3414,3.3414,3.3414,3.3414,3.3414,3.3414,3.3414,3.3414,3.3414,3.3414,3.3414,3.3414,3.3414,3.3414,3.3414,3.3414,3.3414,3.3414,3.3414,3.3414,3.3414,3.3414,3.3414,3.3414,3.3414,3.3414,3.3414,3.3414,3.3414,3.5932,3.8636,4.1235,4.5285,4.7791,4.8867,4.8867,4.8867,1.0785,1.0779,1.0914,1.1104,1.1369,0.0,1.4196,1.6452,1.8672,2.0841,2.3414,2.54,2.5833,2.6386,2.6877,2.7161,2.7201,2.7428,2.81,2.8181,2.8194,2.8221,2.8221,2.8243,2.8524,2.8591,2.8818,2.9352,2.9446,2.974,3.0327,3.0635,3.0929,3.1209,3.1517,3.1664,3.1664,3.1664,3.1664,3.1677,3.1971,3.2118,3.2171,3.2732,3.3,3.304,3.3293,3.3414,3.3414,3.3414,3.3414,3.3414,3.3414,3.3414,3.3414,3.3414,3.3414,3.3414,3.3414,3.3414,3.3414,3.3414,3.3414,3.3414,3.3414,3.3414,3.3414,3.3414,3.3414,3.3414,3.3414,3.3414,3.3414,3.3414,3.3414,3.3414,3.3414,3.3414,3.3414,3.3414,3.3414,3.3414,3.3414,3.3414,3.3414,3.3414,3.3414,3.3414,3.3414,3.3414,3.3414,3.3414,3.3414,3.3414,3.3414,3.3414,3.3414,3.3414,3.3414,3.3414,3.3414,3.3414,3.3414,3.3414,3.5932,3.8441,4.0754,4.3339,4.5943,4.8459,4.8459,4.8663,1.0941,1.086,1.0887,1.0982,1.1212,0.0,1.2158,1.2773,1.3866,1.6271,1.7331,1.8973,2.2472,2.3495,2.441,2.6268,2.676,2.7121,2.7709,2.7789,2.7869,2.8194,2.8221,2.8248,2.823,2.8457,2.8657,2.8764,2.9219,2.974,3.0327,3.0635,3.0929,3.1209,3.1517,3.1664,3.1664,3.1664,3.1664,3.1677,3.1971,3.2225,3.2465,3.2826,3.3106,3.3334,3.3387,3.3414,3.3414,3.3414,3.3414,3.3414,3.3414,3.3414,3.3414,3.3414,3.3414,3.3414,3.3414,3.3414,3.3414,3.3414,3.3414,3.3414,3.3414,3.3414,3.3414,3.3414,3.3414,3.3414,3.3414,3.3414,3.3414,3.3414,3.3414,3.3414,3.3414,3.3414,3.3414,3.3414,3.3414,3.3414,3.3414,3.3414,3.3414,3.3414,3.3414,3.3414,3.3414,3.3414,3.3414,3.3414,3.3414,3.3414,3.3414,3.3414,3.3414,3.3414,3.3414,3.3414,3.3414,3.3414,3.3414,3.3414,3.5932,3.7576,3.805,4.0657,4.3262,4.5755,4.5755,4.6915,1.1226,1.1111,1.107,1.1151,1.128,0.0,0.0,1.3287,1.3994,1.6324,1.6992,1.818,2.143,2.2336,2.3312,2.5581,2.6079,2.6319,2.6774,2.7201,2.7589,2.7883,2.7923,2.7976,2.8207,2.8283,2.8444,2.8591,2.9152,2.9606,2.9913,3.0341,3.0715,3.0996,3.1289,3.1517,3.1664,3.1664,3.1744,3.1891,3.2185,3.2478,3.2772,3.3066,3.328,3.3414,3.3414,3.3414,3.3414,3.3414,3.3414,3.3414,3.3414,3.3414,3.3414,3.3414,3.3414,3.3414,3.3414,3.3414,3.3414,3.3414,3.3414,3.3414,3.3414,3.3414,3.3414,3.3414,3.3414,3.3414,3.3414,3.3414,3.3414,3.3414,3.3414,3.3414,3.3414,3.3414,3.3414,3.3414,3.3414,3.3414,3.3414,3.3414,3.3414,3.3414,3.3414,3.3414,3.3414,3.3414,3.3414,3.3414,3.3414,3.3414,3.3414,3.3414,3.3414,3.3414,3.3414,3.3414,3.3414,3.3414,3.3414,3.3414,3.467,3.5352,3.5352,3.6706,3.9302,4.3054,4.3054,4.3832,1.1592,1.1369,1.124,1.1362,1.1389,1.1875,0.0,0.0,0.0,1.6522,1.738,1.8464,2.0655,2.1578,2.2654,2.475,2.5184,2.5344,2.5585,2.6333,2.7014,2.7482,2.7575,2.7736,2.8114,2.8194,2.827,2.8577,2.9098,2.9419,2.9486,3.0047,3.0488,3.0782,3.1076,3.137,3.1664,3.1664,3.181,3.2104,3.2412,3.2692,3.2986,3.328,3.3414,3.3414,3.3414,3.3414,3.3414,3.3414,3.3414,3.3414,3.3414,3.3414,3.3414,3.3414,3.3414,3.3414,3.3414,3.3414,3.3414,3.3414,3.3414,3.3414,3.3414,3.3414,3.3414,3.3414,3.3414,3.3414,3.3414,3.3414,3.3414,3.3414,3.3414,3.3414,3.3414,3.3414,3.3414,3.3414,3.3414,3.3414,3.3414,3.3414,3.3414,3.3414,3.3414,3.3414,3.3414,3.3414,3.3414,3.3414,3.3414,3.3414,3.3414,3.3414,3.3414,3.3414,3.3414,3.3414,3.3414,3.3414,3.3414,3.3414,3.3414,3.3414,3.3414,3.3414,3.5833,4.0464,4.0464,4.0754,1.2033,1.1681,1.1369,1.1389,1.1389,1.1466,1.1712,0.0,1.2072,1.2302,0.0,1.5723,1.7765,0.0,0.0,2.3253,2.4008,2.4369,2.4396,2.4943,2.5718,2.6787,2.7148,2.7428,2.7722,2.8073,2.827,2.8577,2.8911,2.9205,2.9472,3.0047,3.0488,3.0782,3.1076,3.137,3.1664,3.1664,3.181,3.2104,3.2412,3.2692,3.2986,3.328,3.3414,3.3414,3.3414,3.3414,3.3414,3.3414,3.3414,3.3414,3.3414,3.3414,3.3414,3.3414,3.3414,3.3414,3.3414,3.3414,3.3414,3.3414,3.3414,3.3414,3.3414,3.3414,3.3414,3.3414,3.3414,3.3414,3.3414,3.3414,3.3414,3.3414,3.3414,3.3414,3.3414,3.3414,3.3414,3.3414,3.3414,3.3414,3.3414,3.3414,3.3414,3.3414,3.3414,3.3414,3.3414,3.3414,3.3414,3.3414,3.3414,3.3414,3.3414,3.3414,3.3414,3.3414,3.3414,3.3414,3.3414,3.3414,3.3414,3.3414,3.3414,3.3414,3.3414,3.3414,3.4869,3.7772,3.7772,3.9026,1.2623,1.2318,1.2013,1.1932,1.1911,1.1891,1.1803,1.1762,1.2032,1.3176,0.0,0.0,0.0,0.0,0.0,0.0,2.3794,2.3955,2.3955,2.4315,2.501,2.6186,2.6573,2.7001,2.7642,2.7816,2.8016,2.831,2.8617,2.8911,2.9205,2.9619,3.014,3.0768,3.0915,3.1196,3.1664,3.1664,3.1904,3.2358,3.2492,3.2786,3.324,3.336,3.3414,3.3414,3.3414,3.3414,3.3414,3.3414,3.3414,3.3414,3.3414,3.3414,3.3414,3.3414,3.3414,3.3414,3.3414,3.3414,3.3414,3.3414,3.3414,3.3414,3.3414,3.3414,3.3414,3.3414,3.3414,3.3414,3.3414,3.3414,3.3414,3.3414,3.3414,3.3414,3.3414,3.3414,3.3414,3.3414,3.3414,3.3414,3.3414,3.3414,3.3414,3.3414,3.3414,3.3414,3.3414,3.3414,3.3414,3.3414,3.3414,3.3414,3.3414,3.3414,3.3414,3.3414,3.3414,3.3414,3.3414,3.3414,3.3414,3.3414,3.3414,3.3414,3.3414,3.3414,3.3987,3.5054,3.5054,3.5635,1.3922,1.341,1.2596,1.2447,1.2352,1.2257,1.2149,1.2006,1.2244,1.3647,1.4178,0.0,0.0,0.0,0.0,0.0,0.0,2.334,2.318,2.3487,0.0,0.0,0.0,2.656,2.7268,2.7562,2.7789,2.8003,2.839,2.8738,2.9032,2.9325,2.9847,3.0648,3.0755,3.1036,3.1543,3.1623,3.1971,3.2643,3.2643,3.2853,3.3414,3.3414,3.3414,3.3414,3.3414,3.3414,3.3414,3.3414,3.3414,3.3414,3.3414,3.3414,3.3414,3.3414,3.3414,3.3414,3.3414,3.3414,3.3414,3.3414,3.3414,3.3414,3.3414,3.3414,3.3414,3.3414,3.3414,3.3414,3.3414,3.3414,3.3414,3.3414,3.3414,3.3414,3.3414,3.3414,3.3414,3.3414,3.3414,3.3414,3.3414,3.3414,3.3414,3.3414,3.3414,3.3414,3.3414,3.3414,3.3414,3.3414,3.3414,3.3414,3.3414,3.3414,3.3414,3.3414,3.3414,3.3414,3.3414,3.3414,3.3414,3.3414,3.3414,3.3414,3.3414,3.3414,3.3414,3.3414,3.3414,3.3414,1.6205,1.4939,1.2908,1.2752,1.2501,1.2291,1.2284,1.2162,1.2087,1.193,1.3413,1.4652,1.4617,0.0,0.0,0.0,0.0,0.0,0.0,0.0,0.0,0.0,0.0,0.0,0.0,2.7201,2.7696,2.7709,2.827,2.8738,2.9032,2.9325,2.9753,3.0354,3.0648,3.0942,3.1236,3.153,3.1971,3.2643,3.2643,3.2853,3.3414,3.3414,3.3414,3.3414,3.3414,3.3414,3.3414,3.3414,3.3414,3.3414,3.3414,3.3414,3.3414,3.3414,3.3414,3.3414,3.3414,3.3414,3.3414,3.3414,3.3414,3.3414,3.3414,3.3414,3.3414,3.3414,3.3414,3.3414,3.3414,3.3414,3.3414,3.3414,3.3414,3.3414,3.3414,3.3414,3.3414,3.3414,3.3414,3.3414,3.3414,3.3414,3.3414,3.3414,3.3414,3.3414,3.3414,3.3414,3.3414,3.3414,3.3414,3.3414,3.3414,3.3414,3.3414,3.3414,3.3414,3.3414,3.3414,3.3414,3.3414,3.3414,3.3414,3.3414,3.3414,3.3414,3.3414,3.3414,3.3414,3.3414,1.6637,1.6617,1.5782,1.5569,1.5409,1.4875,1.3167,1.2535,1.2713,1.3861,1.4481,1.5558,1.7867,0.0,0.0,0.0,0.0,0.0,0.0,0.0,0.0,0.0,0.0,0.0,0.0,0.0,2.7281,2.7669,2.807,2.843,2.8738,2.9032,2.9459,3.0047,3.0541,3.0929,3.1223,3.1517,3.1971,3.2643,3.2643,3.2853,3.3414,3.3414,3.3414,3.3414,3.3414,3.3414,3.3414,3.3414,3.3414,3.3414,3.3414,3.3414,3.3414,3.3414,3.3414,3.3414,3.3414,3.3414,3.3414,3.3414,3.3414,3.3414,3.3414,3.3414,3.3414,3.3414,3.3414,3.3414,3.3414,3.3414,3.3414,3.3414,3.3414,3.3414,3.3414,3.3414,3.3414,3.3414,3.3414,3.3414,3.3414,3.3414,3.3414,3.3414,3.3414,3.3414,3.3414,3.3414,3.3414,3.3414,3.3414,3.3414,3.3414,3.3414,3.3414,3.3414,3.3414,3.3414,3.3414,3.3414,3.3414,3.3414,3.3414,3.3414,3.3414,3.3414,3.3414,3.3414,3.3414,3.3414,1.9143,1.9344,1.8575,1.8339,1.8284,1.7755,1.6056,1.54,1.5429,1.6602,1.6576,1.699,1.9424,0.0,0.0,0.0,0.0,0.0,0.0,2.2352,0.0,0.0,0.0,0.0,0.0,0.0,0.0,0.0,0.0,0.0,0.0,2.8885,2.9259,2.9753,3.0434,3.0889,3.1076,3.1476,3.1971,3.2643,3.2643,3.2853,3.3414,3.3414,3.3414,3.3414,3.3414,3.3414,3.3414,3.3414,3.3414,3.3414,3.3414,3.3414,3.3414,3.3414,3.3414,3.3414,3.3414,3.3414,3.3414,3.3414,3.3414,3.3414,3.3414,3.3414,3.3387,3.328,3.3334,3.3387,3.328,3.3334,3.3414,3.3414,3.3414,3.3414,3.3414,3.3414,3.3414,3.3414,3.3414,3.3414,3.3414,3.3414,3.3414,3.3414,3.3414,3.3414,3.3414,3.3414,3.3414,3.3414,3.3414,3.3414,3.3414,3.3414,3.3414,3.3414,3.3414,3.3414,3.3414,3.3414,3.3414,3.3414,3.3414,3.3414,3.3414,3.3414,3.3414,3.3414,3.3414,3.3414]}]]